GFSMW_250_rhum_000.txt.gz
RH
24 24 28 52 49 69 86 81 75 86 100 83 60 27 15 19 20 25 72 86 83 77 81 77 60 55 52 45 41 38 33 30 35 39 40 39 41 46 50 49 48 44 43
24 23 26 26 34 51 66 66 73 78 53 33 19 16 17 20 20 45 77 60 38 40 38 37 32 22 14 11 12 13 12 12 12 13 13 13 13 14 15 15 15 16 20
24 24 27 30 38 46 62 74 54 32 22 20 19 22 26 25 39 37 30 21 17 16 16 17 19 21 20 18 18 18 19 19 16 16 15 14 15 15 16 15 15 14 15
24 25 28 34 47 69 73 43 27 24 24 24 32 40 35 31 27 23 22 20 20 19 20 22 20 21 20 18 18 17 18 17 16 15 14 14 14 14 20 25 24 23 25
22 29 30 44 73 73 48 31 27 28 36 37 34 32 28 25 24 24 24 22 21 21 24 23 22 20 19 18 17 17 15 14 14 14 14 13 12 10 9 10 17 22 27
24 36 38 55 71 58 36 32 29 31 32 31 29 26 24 24 24 24 24 28 28 24 24 23 21 19 18 18 16 14 13 14 12 12 12 12 11 11 12 14 14 14 23
25 41 41 66 64 46 36 32 30 34 32 29 28 28 28 28 28 31 32 30 26 24 23 22 23 23 23 22 17 15 13 12 11 10 10 10 10 12 12 13 16 20 32
26 43 54 66 54 42 36 32 33 33 30 30 30 32 30 30 33 35 35 30 27 25 24 23 23 23 23 18 15 14 14 13 12 12 12 14 14 16 17 17 19 26 33
29 44 64 61 48 41 36 32 35 31 31 34 32 29 32 34 34 34 31 28 28 27 24 22 22 26 21 18 16 15 15 15 14 16 16 19 22 25 28 31 34 33 28
36 50 63 56 48 43 37 34 38 33 29 29 29 33 34 35 34 31 31 28 27 28 24 24 26 26 21 19 17 18 17 17 18 20 25 26 28 35 39 42 34 29 27
40 50 62 58 49 45 39 36 40 35 29 35 36 36 37 34 34 32 30 30 36 32 26 26 28 25 22 20 19 19 20 23 26 27 28 32 36 40 36 32 33 34 32
50 58 61 61 54 48 43 38 41 34 37 42 38 38 37 36 34 36 34 39 39 29 27 31 29 24 22 20 21 23 27 28 33 34 34 37 37 32 32 33 33 30 24
65 64 60 59 56 51 46 42 43 39 44 44 48 42 39 36 37 38 41 41 32 29 32 32 26 24 22 22 27 30 34 33 33 35 38 32 34 35 34 31 28 22 18
66 62 59 58 54 50 51 52 45 50 56 52 46 42 39 41 43 44 40 35 31 33 33 28 24 21 24 29 35 38 36 35 36 37 36 33 31 30 30 25 18 14 12
64 62 60 58 53 50 52 54 59 59 54 50 46 44 43 43 42 40 37 33 33 33 28 24 22 27 33 37 40 39 34 42 40 35 32 31 31 27 20 15 13 10 6
61 62 62 61 53 51 53 55 57 53 48 45 44 45 42 40 40 38 33 33 35 28 23 23 34 38 44 41 34 34 44 41 32 30 31 29 23 20 16 12 6 5 4
68 63 62 61 51 48 49 52 48 45 44 44 42 38 37 38 38 33 33 37 26 23 30 38 44 48 38 33 43 47 37 31 31 31 27 24 20 13 7 5 5 4 3
62 57 59 57 50 49 48 47 46 44 42 36 33 35 37 36 32 33 33 25 24 38 44 50 47 37 37 48 46 33 33 34 32 27 23 17 9 6 5 4 4 4 3
62 61 61 58 55 52 50 48 46 39 34 33 34 36 35 31 38 27 24 28 42 46 52 40 36 42 51 38 34 36 36 32 29 25 15 6 6 5 5 4 4 4 3
61 58 57 54 50 48 46 43 38 35 34 36 34 31 39 37 25 24 38 48 49 48 40 37 53 47 36 36 37 36 32 32 24 14 8 6 5 6 4 4 4 3 3
66 65 66 67 62 53 47 41 38 37 34 32 41 41 28 25 30 44 49 48 46 39 49 61 42 39 39 42 37 34 32 22 13 8 7 6 6 5 4 4 3 3 3
58 58 56 52 52 48 42 40 36 37 46 43 29 26 28 39 48 51 45 42 46 64 52 41 49 49 49 39 38 36 21 11 8 7 6 6 5 5 4 4 4 3 2
58 56 53 49 44 40 38 45 47 39 29 26 26 38 46 51 47 44 48 68 65 45 50 53 55 51 44 43 36 20 13 9 9 8 5 5 5 4 4 4 3 3 3
40 39 39 44 51 47 39 30 28 26 27 39 45 51 45 45 44 60 71 58 53 54 53 54 51 47 47 30 19 15 11 10 8 6 5 5 5 4 4 3 3 4 4
50 45 40 34 30 28 26 26 32 42 45 49 45 43 41 57 73 65 58 61 59 57 53 48 47 43 25 20 14 10 9 7 6 6 6 5 5 4 3 4 4 4 4
28 28 27 27 27 30 43 48 48 47 41 39 39 50 75 69 72 72 66 63 56 53 48 50 34 22 18 13 10 9 6 6 6 6 5 5 4 4 4 5 5 5 6

GFSMW_250_rhum_003.txt.gz
RH
19 19 21 30 33 33 32 32 39 52 79 85 100 100 99 87 86 89 58 24 16 20 27 59 34 31 27 23 22 21 21 22 22 22 20 20 20 20 20 19 18 16 16
21 22 22 27 31 32 31 27 39 68 80 94 96 99 96 93 62 37 18 16 21 28 39 24 17 18 20 22 24 23 21 20 19 18 18 19 16 16 17 16 16 15 15
26 24 25 27 30 29 26 23 24 39 77 89 92 84 52 32 23 18 22 32 36 30 26 25 22 22 23 25 24 22 22 19 18 21 22 20 22 23 23 20 17 16 16
27 31 31 31 29 28 26 23 20 30 62 82 60 28 23 21 22 38 43 38 29 26 27 26 27 26 25 25 24 22 22 21 21 21 19 17 16 18 20 28 28 26 26
32 32 31 32 29 29 30 24 23 39 74 60 28 26 30 35 42 39 34 30 27 28 28 26 26 27 25 23 23 23 22 22 22 22 20 16 14 13 12 13 18 22 25
33 33 34 33 31 29 33 24 25 61 66 36 28 31 39 37 35 34 28 28 29 29 30 28 30 30 26 24 24 21 21 21 22 23 19 15 15 14 12 10 10 12 21
31 34 36 34 29 27 32 25 36 67 49 31 32 32 34 34 33 30 29 32 32 31 34 35 32 28 26 23 23 25 24 23 24 19 17 14 13 13 12 14 14 14 16
33 31 38 35 27 27 35 29 46 64 40 34 33 34 33 33 32 30 31 34 32 37 37 35 32 30 27 26 26 30 26 24 20 17 15 16 14 14 13 13 16 20 26
34 35 40 37 28 29 35 33 54 54 38 36 33 33 32 34 34 32 34 32 37 39 36 33 32 31 29 28 30 30 24 23 20 17 18 16 16 17 20 22 24 23 25
34 35 36 38 31 35 39 44 56 48 39 36 35 37 34 31 31 33 37 38 37 37 34 32 32 30 28 29 33 26 26 24 19 20 16 17 22 28 32 32 32 32 26
38 38 34 34 38 44 44 59 62 49 41 37 35 35 36 34 32 40 44 38 36 34 33 33 32 31 32 36 29 27 26 21 21 17 22 28 30 32 34 39 34 29 26
36 31 30 33 47 60 56 61 59 49 42 40 38 35 37 37 35 42 44 39 36 35 35 36 33 34 36 32 28 29 24 21 19 26 29 32 33 38 38 32 27 25 24
36 34 34 41 63 62 62 62 58 50 44 43 41 38 39 41 39 42 45 42 38 39 38 36 37 35 34 30 29 26 21 21 28 26 30 33 38 33 28 26 27 26 21
34 35 37 54 63 59 67 66 60 54 50 48 46 44 45 47 46 52 50 44 41 40 40 38 33 34 32 30 27 21 24 31 26 29 36 36 30 26 27 29 24 19 16
42 38 48 54 59 67 73 70 68 64 58 53 48 51 55 55 58 56 50 43 41 40 35 31 35 32 32 27 22 27 32 28 32 41 35 31 28 32 28 22 16 10 5
41 47 60 59 67 70 72 72 69 64 58 53 53 55 57 57 54 52 44 44 42 35 32 36 33 35 25 23 32 28 30 36 42 34 34 37 35 29 24 14 7 6 4
45 55 57 77 86 80 72 67 63 62 58 54 52 51 50 51 50 46 45 42 36 36 36 33 33 24 27 29 27 30 44 40 37 38 39 37 31 21 9 6 7 6 5
61 69 80 84 77 66 67 69 68 65 63 57 52 50 49 49 47 45 40 38 38 33 36 29 24 30 32 28 36 47 42 42 41 42 39 29 18 7 6 7 7 6 4
73 79 77 75 71 70 69 67 65 62 59 56 54 52 49 45 45 47 44 35 37 36 26 26 33 32 31 46 44 45 44 49 50 45 33 16 7 7 8 7 5 5 4
68 72 72 70 66 67 67 64 60 56 57 57 52 53 56 56 48 38 34 38 29 26 34 34 31 34 48 43 44 50 48 49 48 43 16 8 9 9 7 5 5 5 4
64 65 67 71 74 72 67 60 56 58 60 65 63 58 50 43 38 39 32 27 32 36 35 33 44 48 45 49 47 52 49 49 43 15 10 10 10 7 5 5 5 4 4
68 70 74 75 71 68 66 68 72 71 66 58 50 43 42 43 36 29 31 37 38 34 37 55 54 56 53 50 55 51 52 38 14 11 9 10 7 5 6 5 4 4 3
67 67 66 68 71 76 74 66 62 58 49 43 46 49 35 31 31 36 39 35 32 49 57 60 66 61 60 59 53 57 34 15 12 10 10 6 6 6 5 5 4 4 4
65 64 64 66 64 63 62 56 50 51 54 46 34 32 31 35 38 36 36 48 68 67 66 63 60 65 60 59 56 26 17 11 10 10 6 6 6 6 5 4 4 4 5
58 63 69 72 70 64 62 60 48 37 34 31 32 37 39 35 36 52 68 69 63 65 59 62 62 57 62 46 25 17 10 10 9 5 6 6 6 5 4 4 5 6 6
66 66 64 62 56 43 36 34 34 37 38 45 38 34 38 56 66 70 67 67 64 60 60 55 54 59 35 21 14 9 8 7 5 6 6 6 5 4 4 5 6 6 7

GFSMW_250_rhum_006.txt.gz
RH
25 22 25 27 26 26 25 28 34 33 33 29 29 26 32 42 49 82 87 100 100 95 78 72 30 17 29 28 20 21 23 25 25 27 25 25 25 25 26 26 27 26 26
28 23 24 28 29 29 28 31 31 32 40 34 27 28 42 92 100 100 100 100 90 80 58 23 19 31 32 26 25 26 25 28 28 28 26 25 23 24 25 24 25 24 24
28 29 24 27 29 32 33 32 34 29 42 28 27 37 60 85 100 100 95 78 55 33 21 28 39 31 27 29 28 29 28 29 27 26 25 24 29 32 32 28 26 24 21
30 32 29 25 27 29 36 36 35 29 33 28 27 29 32 75 80 78 44 31 23 36 44 44 33 29 29 31 30 29 30 30 29 26 25 27 28 28 28 31 30 28 23
43 33 34 29 27 30 32 38 40 30 32 29 27 24 42 54 69 36 24 27 45 49 39 32 30 28 29 31 32 34 36 33 31 29 29 25 24 22 17 21 24 22 19
75 51 35 35 31 35 39 39 34 30 31 29 27 29 46 68 44 27 33 43 39 35 33 31 31 32 32 31 34 38 37 35 33 32 28 27 25 24 22 21 18 16 19
90 98 56 38 34 38 44 45 33 31 31 28 30 31 58 62 35 30 32 36 33 31 32 34 35 34 32 33 37 38 35 33 29 29 27 24 26 23 19 18 16 20 17
95 100 82 43 41 40 47 46 42 32 30 29 32 39 68 56 36 34 31 31 32 33 35 37 34 33 32 35 38 35 32 30 30 30 27 26 25 23 19 19 20 17 19
82 77 66 50 43 42 48 51 49 35 31 30 33 51 71 55 38 35 32 34 33 34 40 40 35 34 39 37 35 32 32 34 32 28 27 25 24 22 24 21 18 19 20
83 66 79 61 46 43 46 56 48 38 34 32 38 56 69 54 40 37 36 36 37 34 33 32 37 43 42 39 34 36 36 34 30 27 26 26 25 26 21 21 23 25 30
83 68 80 69 46 47 49 54 47 40 38 39 46 58 65 54 43 39 38 36 36 37 38 37 37 38 37 38 42 38 35 31 28 26 27 28 26 20 23 24 31 35 28
86 80 85 65 41 42 45 52 46 42 41 46 50 53 63 57 47 42 40 37 34 35 36 41 43 40 44 46 43 36 32 29 27 29 31 26 20 26 26 36 36 27 25
100 80 74 56 38 42 48 49 47 46 45 44 45 59 70 59 48 44 42 41 42 42 45 47 46 49 47 45 39 34 30 30 32 31 23 22 26 28 37 32 29 28 24
94 79 64 61 40 42 46 50 50 46 42 43 56 72 74 62 53 48 47 48 49 48 49 51 51 48 47 41 36 31 34 33 29 22 26 26 32 36 30 32 30 21 16
99 84 77 58 38 39 43 47 49 49 48 58 78 80 76 67 60 57 57 56 54 52 51 49 47 44 40 37 37 38 32 28 23 30 27 36 33 35 36 28 21 18 12
96 86 66 47 40 42 47 50 59 67 70 76 90 93 83 74 73 71 67 60 55 51 49 46 45 43 41 43 37 31 25 26 31 28 39 34 42 38 30 23 18 12 8
76 67 54 40 40 43 47 66 78 76 82 98 100 95 86 83 78 74 66 61 54 50 49 47 46 49 44 36 30 24 30 27 34 37 40 45 39 30 24 18 12 9 6
65 48 40 41 44 45 60 75 83 89 96 99 92 88 82 74 71 68 62 54 52 49 46 51 49 40 35 27 28 30 28 38 40 51 44 42 34 26 13 9 11 8 7
46 44 46 47 48 60 82 90 91 96 96 91 87 79 77 71 66 59 54 50 47 54 56 45 41 31 27 30 29 34 44 52 53 47 49 39 26 14 9 10 8 7 5
47 50 48 47 55 81 92 98 98 94 92 87 81 75 70 64 59 53 52 58 62 52 46 34 29 29 33 35 45 49 52 49 49 54 42 22 13 9 10 8 7 5 6
52 49 45 51 71 89 97 95 92 91 84 80 76 70 64 60 60 63 61 58 50 40 32 30 33 34 43 49 52 50 46 51 56 39 22 12 10 10 8 6 5 6 6
49 47 53 71 86 92 90 90 87 82 75 70 69 67 68 70 65 60 56 45 33 30 35 35 46 50 53 53 46 50 54 54 39 20 12 11 10 8 5 5 6 6 5
43 44 54 73 83 85 82 77 75 74 71 69 72 73 68 65 59 47 36 30 36 37 44 54 56 61 52 51 54 56 60 44 22 14 12 8 7 5 5 6 5 5 4
37 38 49 65 73 71 74 78 75 73 76 72 66 67 64 52 38 32 38 38 42 59 56 61 57 51 54 54 55 60 38 22 17 13 8 5 4 6 6 5 5 4 4
32 36 45 57 67 74 76 77 78 69 64 65 63 51 37 34 40 38 45 66 59 61 61 51 51 56 50 51 56 31 18 13 10 7 4 5 6 5 5 5 4 5 6
34 38 47 59 66 68 69 65 62 59 50 40 36 37 40 34 44 68 66 63 64 56 48 49 50 42 42 48 25 15 11 9 6 4 5 6 5 4 4 4 5 6 7

GFSMW_250_rhum_009.txt.gz
RH
27 23 22 27 30 26 24 21 20 24 26 24 22 29 48 52 40 31 35 33 45 64 79 93 98 100 100 100 80 43 28 31 26 25 24 25 27 27 29 28 26 26 26
33 28 24 24 28 31 26 27 25 23 26 26 29 27 35 55 47 28 25 29 54 93 99 100 100 100 96 65 30 26 34 28 27 26 27 28 30 32 34 33 29 27 27
40 33 28 25 26 31 32 28 28 27 26 40 64 40 28 44 46 30 27 45 74 100 100 99 82 55 35 29 35 35 32 28 28 29 31 36 40 41 41 37 33 32 31
44 40 35 29 28 29 33 32 30 32 38 40 74 42 26 38 32 28 29 32 54 88 88 58 31 32 39 42 42 34 30 27 28 30 36 36 40 45 42 42 39 34 34
51 49 40 29 28 29 32 37 33 36 52 32 49 42 32 38 30 28 25 28 58 74 51 30 43 46 48 41 34 31 28 29 32 34 33 31 37 40 37 36 34 35 32
57 50 42 33 29 34 35 37 37 35 39 53 45 38 33 30 31 28 26 41 59 63 33 37 48 42 37 36 33 31 33 36 37 35 33 34 38 37 33 29 30 28 27
69 52 51 39 40 42 44 40 41 36 38 44 46 34 28 32 33 30 31 52 70 53 35 32 36 37 35 35 34 34 38 40 39 35 38 41 39 33 33 30 24 23 23
67 61 54 45 51 63 58 55 44 42 40 46 47 41 33 32 32 31 38 64 69 54 41 34 35 36 36 35 34 36 40 34 32 34 33 32 27 30 32 27 22 21 22
78 67 55 47 77 79 73 63 51 47 43 49 52 43 38 33 34 34 41 63 66 59 46 44 39 36 35 38 38 40 41 38 36 35 32 30 30 33 30 25 22 22 24
89 77 74 49 60 86 83 80 60 48 48 53 54 49 45 35 36 37 40 58 68 61 52 47 44 42 39 37 36 35 36 36 36 35 36 37 35 32 28 26 26 29 27
92 78 81 61 62 75 76 67 66 56 49 53 53 52 49 41 41 36 39 53 68 68 56 49 46 44 42 41 41 42 43 40 40 42 42 36 33 32 30 30 32 22 18
66 76 82 80 76 81 66 55 58 60 55 50 53 58 52 48 42 40 38 43 64 78 68 58 50 46 45 45 46 50 46 43 44 42 37 37 35 35 33 31 20 23 23
58 73 99 94 78 75 83 71 60 61 56 50 50 62 59 54 47 41 40 48 69 73 68 64 58 52 52 56 55 51 49 48 44 40 42 40 37 36 27 24 25 29 37
61 72 85 82 79 78 81 63 59 56 55 52 52 63 61 58 46 46 49 61 70 74 75 70 64 62 63 65 62 57 55 48 45 44 41 36 35 23 27 29 38 42 36
54 66 90 85 74 79 79 67 68 53 50 49 52 56 61 59 51 53 60 64 75 79 76 80 78 74 71 68 64 55 49 46 47 42 38 30 26 29 35 41 41 32 22
50 60 82 92 90 75 66 68 69 66 47 47 53 61 61 52 60 63 77 84 88 86 97 93 80 73 68 62 52 48 48 48 42 38 26 30 32 41 43 39 36 27 17
54 63 82 100 83 83 83 84 78 62 44 46 54 49 60 64 75 86 98 94 93 99 95 83 74 64 57 53 53 51 47 42 29 31 34 42 43 42 41 38 27 19 12
81 89 87 94 88 84 92 93 78 45 40 41 52 64 80 87 90 100 96 99 100 94 83 71 64 58 58 57 51 44 35 29 34 41 47 44 41 45 35 25 17 13 8
85 82 96 83 78 87 83 73 45 40 43 55 75 97 100 100 100 100 100 98 90 80 72 62 64 62 54 47 43 30 33 38 50 50 42 42 44 34 26 18 12 9 7
84 86 86 86 79 66 58 50 44 46 54 74 100 100 100 100 97 98 95 88 80 70 67 68 57 52 52 34 33 35 49 52 50 43 42 40 31 24 16 11 9 8 5
97 94 81 78 69 58 47 46 51 59 79 99 100 100 96 96 95 93 87 78 72 71 66 58 56 40 34 35 43 53 52 48 42 39 38 31 24 13 11 8 6 4 5
99 79 69 59 55 56 57 58 65 82 100 100 96 94 94 93 91 85 76 73 71 62 58 47 36 36 40 51 50 56 48 40 38 38 30 21 12 11 8 6 4 5 5
100 94 75 63 64 66 67 70 86 98 98 96 97 97 89 86 78 74 75 68 60 51 38 38 37 55 52 59 55 49 42 39 41 31 19 13 12 9 5 4 6 4 4
100 100 95 79 64 64 66 69 82 91 94 93 89 86 79 74 73 68 60 52 38 40 36 46 57 57 59 53 50 43 41 45 32 18 15 12 8 4 5 6 4 4 4
100 100 93 74 62 58 57 61 73 80 84 81 73 70 71 68 60 50 37 38 37 37 63 59 62 59 51 49 46 40 38 26 15 15 10 5 4 5 5 4 4 4 5
100 97 87 73 59 50 49 52 58 58 58 60 63 61 55 46 36 38 37 37 58 66 60 61 53 47 45 43 39 34 21 14 14 8 4 5 6 4 3 4 4 5 6

GFSMW_250_rhum_012.txt.gz
RH
44 41 35 36 33 30 27 21 18 25 24 21 17 18 35 47 47 29 22 21 28 28 28 28 29 29 40 59 76 93 100 100 96 94 65 37 30 29 28 29 27 29 30
55 47 38 34 36 34 33 26 22 20 24 22 20 32 58 73 72 50 26 25 34 42 38 29 29 48 80 100 100 100 100 92 75 46 29 30 32 29 33 31 30 29 30
69 53 48 38 35 35 34 28 25 21 21 24 24 28 51 64 60 57 37 27 30 50 42 30 31 60 77 97 100 84 69 39 31 32 40 38 32 31 30 28 28 28 29
69 60 53 47 43 39 35 29 27 24 22 24 26 28 37 49 55 55 44 38 36 42 33 28 30 38 55 90 71 46 30 33 49 51 42 34 31 33 37 39 35 34 31
75 58 64 50 46 40 40 33 29 25 23 25 30 46 71 53 52 60 54 51 38 39 30 28 27 28 46 63 45 35 45 56 41 37 35 33 33 35 36 40 44 38 39
68 56 68 56 54 52 47 38 34 27 26 26 31 48 68 77 56 53 72 62 39 40 32 30 27 30 44 55 35 39 43 42 39 37 37 39 39 38 38 37 36 36 38
73 63 66 57 68 65 55 45 39 31 28 32 31 46 61 64 60 55 64 58 42 37 33 32 28 31 44 55 40 37 36 40 42 43 43 43 41 40 39 37 33 32 36
51 61 65 62 76 75 60 49 43 36 30 36 39 42 44 45 61 60 49 49 44 36 35 33 29 32 51 59 47 41 42 42 41 42 41 38 36 35 35 37 38 38 38
42 51 69 73 87 84 79 58 47 40 37 41 51 55 52 54 54 68 57 50 41 38 38 34 30 32 57 61 56 49 46 46 49 46 42 41 42 43 45 45 42 39 36
54 48 74 80 87 72 75 68 62 47 47 60 68 66 58 58 53 54 50 51 52 44 40 34 30 34 57 61 61 57 54 51 49 48 46 47 49 51 51 48 48 46 39
62 55 65 98 98 76 73 72 61 48 71 87 82 83 72 68 68 64 58 57 56 51 42 32 32 41 48 57 69 75 72 64 60 56 53 54 56 57 57 56 49 47 49
60 66 60 95 98 90 87 69 58 56 81 93 87 91 84 72 64 62 65 67 60 56 42 33 37 38 40 50 53 58 66 66 59 58 61 64 60 63 55 50 51 46 37
58 71 66 84 94 87 83 69 59 56 88 90 80 78 80 78 70 69 70 76 66 51 45 39 36 38 44 48 50 55 62 60 64 72 68 67 62 57 55 52 43 36 27
34 47 64 70 92 91 78 64 65 62 85 98 81 74 68 69 69 65 70 69 65 60 55 43 43 43 46 53 56 61 61 68 76 73 67 64 58 56 51 42 32 27 30
27 48 58 78 87 86 73 77 79 74 80 83 85 74 61 60 62 58 58 65 73 67 54 55 52 48 58 60 66 59 66 80 81 73 66 63 59 52 37 28 30 44 46
41 59 67 68 67 73 79 87 98 90 86 85 93 75 67 63 56 51 46 57 64 71 67 62 62 66 64 72 63 66 86 90 74 72 69 63 57 34 32 41 48 46 36
50 58 57 58 62 80 92 100 100 100 94 100 100 92 79 72 48 44 43 52 70 73 66 73 74 72 76 67 71 93 90 77 76 70 73 53 31 38 51 45 43 40 29
61 61 63 68 66 89 99 96 91 86 90 100 100 98 85 69 43 41 45 55 62 72 82 84 76 77 69 80 89 85 82 80 77 78 37 32 48 46 43 44 36 29 26
50 58 70 76 86 97 89 92 90 98 100 100 100 91 73 54 43 41 49 59 76 99 89 81 74 74 86 83 83 88 79 85 63 35 37 51 49 49 38 34 28 27 16
78 80 88 96 97 86 83 92 100 100 100 95 90 74 54 44 42 51 58 93 100 93 79 74 81 81 80 89 85 86 86 42 38 53 58 51 44 36 32 28 26 14 8
97 94 95 94 97 99 100 100 98 92 77 64 60 56 50 51 57 76 97 99 88 80 78 75 78 90 89 85 88 67 37 41 61 54 49 40 35 31 28 24 11 8 5
95 99 99 95 90 84 73 69 71 74 74 69 62 60 62 71 88 97 91 86 81 79 78 85 88 82 88 79 44 40 53 62 54 44 38 36 30 29 21 11 8 4 4
95 99 96 97 99 100 99 93 84 78 72 70 70 70 80 93 94 91 83 76 77 84 88 80 85 82 48 40 50 67 56 51 42 41 37 31 29 15 11 8 5 5 6
90 95 94 97 96 83 76 76 74 72 71 71 75 84 89 86 75 70 77 82 82 78 77 76 48 42 51 77 61 58 54 48 44 40 32 26 13 12 8 5 6 6 4
92 94 90 90 94 96 96 95 88 80 78 76 72 69 67 68 70 73 75 72 68 67 48 43 54 82 72 64 63 54 46 42 38 31 20 12 12 7 5 6 6 4 4
97 97 97 100 100 100 100 100 100 98 88 65 54 53 55 58 58 57 60 54 43 43 58 82 80 66 63 56 49 45 38 34 27 15 12 11 6 5 6 5 4 4 5

GFSMW_250_rhum_015.txt.gz
RH
65 67 61 49 40 34 31 33 32 31 28 22 17 16 20 24 29 36 24 20 20 22 25 30 26 22 25 29 32 25 24 24 46 76 88 86 91 88 80 68 41 38 31
100 96 80 64 50 46 35 31 34 32 29 30 23 20 24 32 34 40 32 26 27 33 38 42 28 24 27 33 39 29 24 30 43 56 67 84 73 57 36 33 41 37 36
100 100 86 80 74 65 53 35 37 34 30 32 29 25 25 27 30 31 41 43 43 41 43 56 48 28 28 33 35 28 26 31 30 54 71 56 34 36 50 52 48 43 37
82 97 100 97 100 99 71 48 45 44 31 32 31 28 25 26 29 31 39 57 57 63 63 69 58 36 29 38 32 26 25 24 29 59 52 39 39 56 51 41 38 36 33
77 90 100 100 91 81 71 66 51 49 43 34 34 32 28 26 27 31 31 32 63 77 77 77 65 47 40 44 37 27 24 24 36 59 48 34 32 35 39 41 42 43 43
67 63 88 86 95 86 90 84 72 57 47 40 37 36 31 28 25 31 35 38 50 77 86 80 78 67 54 48 42 28 25 26 36 50 48 40 35 32 33 38 41 44 45
80 84 88 85 87 85 73 95 84 62 58 47 43 38 37 33 38 38 39 48 62 79 82 81 80 80 72 52 41 30 28 28 36 51 53 48 42 38 36 35 38 41 43
61 79 74 73 75 76 81 90 84 73 66 62 60 49 43 39 55 57 54 50 73 85 91 85 86 97 84 58 42 32 31 33 38 44 53 52 52 50 48 46 46 50 54
38 42 53 52 54 60 67 83 96 87 70 73 74 59 57 66 45 58 65 55 82 95 96 82 79 81 83 59 46 35 34 35 41 40 52 55 55 55 53 58 61 58 55
32 40 40 46 42 45 50 71 68 72 72 81 74 72 68 64 48 48 55 70 70 69 66 65 66 62 64 65 48 40 39 37 38 41 44 46 50 43 43 50 52 51 45
16 26 32 42 40 41 51 63 74 70 83 95 76 77 78 68 70 74 77 81 84 70 56 55 67 70 66 59 51 50 44 40 36 37 34 36 38 36 41 49 49 49 51
10 16 24 33 48 46 53 56 73 77 88 93 80 80 82 74 75 82 93 96 85 74 64 55 50 54 59 60 60 57 50 43 41 33 31 34 34 38 44 48 48 53 58
5 12 20 35 47 46 54 51 66 86 100 91 81 82 72 69 92 98 100 100 92 86 73 65 56 54 56 60 64 62 58 51 40 38 38 34 37 41 47 48 53 61 63
6 13 22 38 49 48 52 60 78 96 93 92 85 86 65 69 91 95 87 80 79 76 75 67 54 50 51 55 59 60 57 49 45 47 41 43 44 49 49 55 64 66 64
7 16 26 38 56 54 57 66 82 90 84 82 98 82 67 76 84 86 90 91 89 70 65 65 56 49 52 55 56 60 54 54 59 54 48 48 52 54 59 64 66 67 66
8 19 30 42 54 56 62 74 74 77 82 100 94 87 74 74 76 90 85 86 71 69 64 57 50 46 47 51 53 63 66 65 72 56 54 52 55 62 66 70 70 64 34
19 28 38 48 54 69 82 77 76 98 100 100 99 95 90 85 84 87 89 93 100 88 84 57 46 44 45 44 54 61 71 76 65 56 56 58 64 68 69 70 62 34 43
29 30 34 44 58 73 81 85 100 100 100 99 99 99 96 88 95 100 100 100 100 100 89 58 42 39 45 47 54 66 82 70 59 65 65 69 67 70 72 40 37 49 38
37 43 51 63 77 94 100 99 98 97 100 100 100 95 100 100 100 100 100 100 100 78 53 44 39 43 50 54 74 80 66 70 70 67 71 65 74 54 38 47 51 40 30
73 83 100 100 100 100 98 97 87 100 100 100 100 100 100 100 100 100 100 84 62 59 50 45 50 53 69 71 72 70 66 67 74 70 73 64 39 42 58 45 38 29 31
100 100 100 100 100 98 97 79 80 90 95 99 100 100 100 99 93 72 67 72 68 64 61 60 69 71 71 68 67 70 73 67 72 70 46 44 62 55 41 33 30 30 22
88 97 100 96 90 85 87 88 84 89 97 97 90 76 74 78 86 89 83 75 70 68 72 75 76 69 65 73 78 69 70 70 50 46 67 66 47 41 34 32 28 19 10
96 94 89 84 89 95 99 100 94 89 87 91 96 99 97 92 88 82 75 74 78 79 76 71 71 78 74 67 65 62 47 45 70 77 54 49 44 36 32 24 14 10 6
100 100 96 90 87 85 86 90 93 96 98 98 96 92 85 76 71 68 65 63 65 69 71 68 65 62 57 52 45 56 76 83 66 61 54 42 35 31 20 12 9 5 5
94 95 96 96 92 89 91 94 94 96 96 93 94 96 96 96 94 91 87 85 79 74 67 60 53 49 60 80 91 86 74 70 66 53 40 34 27 16 11 8 5 6 5
80 85 92 94 94 93 92 94 99 100 100 100 100 100 100 99 96 93 89 74 60 50 47 55 75 92 95 92 85 77 73 60 46 38 31 23 13 10 7 6 6 5 5

GFSMW_250_rhum_018.txt.gz
RH
59 67 64 66 75 79 58 41 36 38 36 35 27 26 25 25 28 25 20 25 27 31 38 27 28 31 21 20 21 21 22 20 22 26 31 28 26 26 29 36 51 60 57
57 51 60 60 86 100 100 71 69 53 43 36 43 33 33 29 33 32 24 21 24 29 28 29 27 28 21 22 21 27 36 26 22 24 30 29 26 22 22 31 43 42 36
80 64 52 52 73 100 100 100 72 47 54 42 44 38 38 36 33 33 35 31 29 30 29 29 29 37 34 34 34 42 39 41 28 26 25 22 24 24 23 25 31 40 34
82 74 60 50 47 77 96 100 99 92 75 65 67 45 50 40 36 34 32 34 28 26 29 34 31 40 48 56 52 50 56 57 46 29 32 28 23 23 24 23 34 40 34
76 86 70 57 50 49 74 95 100 98 99 86 86 72 51 55 47 37 31 38 34 28 26 29 30 33 56 66 70 79 79 74 60 44 44 39 28 24 26 30 29 38 41
74 63 56 63 62 52 49 75 91 85 83 89 92 90 70 62 59 44 36 40 38 31 28 27 30 34 38 64 83 92 89 83 72 58 51 52 42 32 30 30 39 46 47
53 51 56 61 56 59 61 57 61 94 98 93 89 89 88 75 68 49 46 43 42 35 31 29 31 34 36 38 54 84 97 94 81 78 75 60 48 38 32 28 40 48 49
46 41 52 61 64 60 58 62 57 93 100 100 90 90 98 86 79 64 54 58 60 54 38 40 37 37 41 48 56 63 84 88 82 80 93 82 56 44 38 33 29 29 34
15 11 18 35 55 66 63 56 58 81 99 100 95 78 100 86 81 78 69 69 68 44 45 38 49 61 54 61 71 90 95 87 85 88 94 99 70 51 43 39 36 34 33
17 17 20 23 22 28 46 49 55 69 86 100 96 77 74 80 97 85 76 66 61 56 52 43 42 48 61 65 89 99 98 97 95 83 79 76 66 58 44 41 38 36 33
9 7 7 12 18 24 31 47 40 52 68 88 90 74 66 68 86 88 88 71 59 63 56 53 64 78 82 80 84 90 83 73 67 66 67 67 68 60 51 48 43 38 34
6 5 5 10 9 17 28 39 39 35 55 65 65 62 63 78 100 99 95 81 66 70 58 76 82 91 97 90 90 88 74 64 56 52 55 58 54 51 48 47 46 39 36
2 2 2 4 6 10 20 29 36 43 55 55 56 55 71 100 100 91 96 91 94 78 71 94 100 94 90 84 80 76 73 66 54 49 44 44 46 46 46 45 43 40 37
3 2 2 2 4 6 14 21 34 51 57 49 53 71 95 100 100 99 100 90 97 74 89 95 91 88 80 90 86 72 66 62 55 47 38 35 36 38 41 42 39 35 27
2 2 2 2 4 9 14 23 34 52 54 62 67 91 100 100 97 99 99 99 83 73 89 100 91 87 90 97 92 70 65 55 48 42 36 37 37 38 36 37 34 34 37
4 4 3 4 9 18 26 37 54 61 66 61 72 97 100 100 100 96 94 94 91 100 91 90 93 80 83 85 88 80 71 55 43 39 35 39 37 34 34 32 41 40 36
12 8 9 13 19 31 48 58 68 70 65 75 100 100 100 100 99 94 99 97 99 97 98 95 92 85 68 70 89 94 73 50 41 38 36 38 35 34 39 41 45 46 39
25 25 27 34 41 52 70 77 70 76 84 95 100 100 98 100 100 100 88 86 100 98 91 90 92 92 100 98 86 61 56 49 43 39 38 36 39 41 43 50 52 40 27
54 58 60 59 65 76 79 76 94 100 100 93 100 100 100 100 100 100 100 100 91 79 83 86 94 99 97 75 72 76 67 53 45 35 36 45 46 47 39 40 43 35 32
67 78 84 86 90 94 99 100 99 100 100 100 100 84 99 100 100 99 72 76 86 88 100 100 93 85 95 94 93 76 56 52 50 52 47 43 39 36 35 30 32 40 35
99 98 97 98 98 99 100 100 100 100 100 100 100 100 91 91 84 96 100 100 100 99 93 98 100 100 95 79 69 63 60 53 47 42 39 38 35 31 36 47 40 31 31
91 100 98 100 98 100 100 100 100 100 100 100 100 100 100 100 100 100 100 93 96 100 100 100 91 78 68 61 56 51 50 47 48 45 41 37 44 59 53 40 34 36 32
86 72 91 98 100 100 76 92 100 83 98 100 100 100 97 96 89 90 99 100 100 100 95 81 74 70 65 62 53 45 43 42 48 54 58 59 59 55 42 35 34 24 16
95 86 85 85 91 96 93 86 88 88 90 90 83 80 85 96 100 100 100 99 94 90 85 75 62 53 45 43 45 50 60 69 70 67 66 61 52 39 33 26 20 11 8
99 98 92 83 85 95 98 95 91 86 89 96 99 100 100 100 99 95 94 87 78 69 61 52 45 45 48 55 66 74 81 83 77 67 58 46 33 27 22 14 9 7 6
94 100 100 100 100 100 100 100 100 100 100 100 100 100 98 96 85 79 75 66 56 50 46 45 53 71 87 92 90 84 74 61 51 42 32 25 23 16 11 8 6 7 7

GFSMW_250_rhum_024.txt.gz
RH
100 100 96 91 85 81 71 69 69 58 54 57 69 68 67 66 65 74 80 59 47 41 42 42 57 57 42 31 27 29 30 28 23 20 25 32 39 44 43 42 43 37 30
100 100 100 98 77 78 73 69 73 63 59 62 61 62 70 85 74 64 80 84 83 88 87 86 76 52 46 44 39 35 34 32 30 24 20 20 29 37 47 52 52 48 40
100 100 100 100 100 100 100 94 76 64 62 68 88 76 63 84 100 96 96 98 91 94 76 66 64 64 56 48 40 34 34 35 36 36 31 29 30 32 32 40 49 52 45
100 100 100 100 100 100 100 84 70 67 69 72 77 76 69 55 54 66 64 83 83 86 100 82 70 65 67 54 44 34 33 32 31 35 34 33 32 32 39 41 50 59 62
100 100 100 100 99 100 96 93 95 87 90 87 92 93 85 79 71 68 68 73 76 93 89 92 69 66 74 69 53 43 37 35 35 34 34 33 31 32 33 38 39 56 76
78 78 78 80 79 74 71 73 75 73 70 71 70 76 93 100 100 87 72 74 70 76 92 100 82 67 82 82 67 63 48 46 47 44 43 40 36 31 32 35 38 39 41
62 62 62 70 75 71 74 76 75 68 63 66 76 77 85 96 94 81 82 99 98 96 81 84 87 92 92 88 79 76 61 56 61 56 50 46 46 38 35 37 42 46 51
48 53 57 57 61 67 70 69 64 61 61 58 52 50 59 69 84 82 81 86 100 99 94 100 89 100 98 92 81 72 68 64 62 61 58 53 49 46 44 42 43 63 85
43 49 49 48 49 52 58 60 55 52 50 51 46 45 49 49 62 82 79 83 89 100 100 100 89 96 97 96 80 77 72 84 85 80 68 64 59 55 52 54 57 57 63
54 54 54 49 49 49 47 44 42 43 42 38 36 33 35 43 57 61 68 74 89 99 100 100 100 100 96 87 84 78 95 97 95 85 74 67 66 63 59 62 55 54 57
48 41 34 29 30 36 35 33 32 29 32 32 33 38 40 44 52 56 62 68 99 100 100 96 100 99 99 90 97 86 86 98 90 92 76 72 68 65 58 57 65 65 62
31 29 24 18 14 15 18 19 17 14 16 20 22 21 22 32 43 54 68 84 100 100 100 100 100 98 97 100 98 85 91 99 95 84 76 71 70 71 79 77 66 68 68
29 24 12 11 13 11 9 7 9 8 9 10 13 18 23 26 32 48 56 76 100 100 100 100 100 100 100 94 86 97 100 94 84 82 74 74 74 72 72 76 73 71 72
26 16 12 8 5 4 5 5 5 5 5 6 8 8 13 17 24 35 54 80 94 100 96 91 100 99 100 100 100 100 100 86 87 80 76 83 79 85 92 74 71 64 62
23 11 6 3 2 3 4 5 5 5 5 5 7 11 11 14 22 35 54 75 85 98 100 100 100 100 100 100 100 100 77 84 69 70 80 100 100 90 74 73 72 72 75
24 13 8 4 4 3 4 6 6 7 9 11 12 13 15 20 31 60 76 80 97 91 100 100 100 100 100 100 100 84 73 65 58 67 79 87 83 72 68 69 73 70 61
42 30 23 24 20 13 7 7 10 15 18 17 23 31 35 45 62 70 86 98 100 100 100 100 100 100 100 95 90 77 60 60 66 75 82 93 76 73 78 77 63 52 37
76 74 63 77 47 22 17 11 24 30 25 24 27 39 49 60 79 98 100 100 100 100 88 97 100 98 82 64 42 52 58 73 83 95 99 90 88 83 68 55 43 39 36
92 90 76 74 53 46 42 52 39 35 55 56 52 60 71 92 100 100 100 100 100 100 100 100 97 92 66 72 59 83 99 93 100 100 95 98 84 62 48 46 56 73 69
100 100 96 93 85 72 68 81 86 100 100 100 100 100 100 100 100 100 100 100 100 100 100 82 66 64 71 73 83 90 100 100 100 100 99 75 58 52 60 78 76 66 56
81 90 98 95 88 100 100 92 92 98 98 100 92 96 100 100 90 85 100 100 92 64 61 60 68 70 81 95 100 100 100 100 100 93 64 56 62 82 81 71 56 46 40
80 80 73 75 96 77 86 90 86 94 100 94 84 96 100 100 99 100 79 80 91 82 92 92 98 82 87 100 100 100 100 98 71 60 70 83 87 75 58 46 42 36 31
81 84 89 78 56 74 73 75 88 75 90 95 98 100 100 78 59 56 63 66 84 87 78 82 88 100 100 100 100 100 74 61 76 84 80 68 56 48 42 40 34 28 20
100 88 86 88 98 77 76 80 76 80 74 82 81 79 86 86 76 69 71 79 81 84 98 100 100 100 100 99 78 66 80 85 79 64 54 46 41 40 37 29 23 18 15
99 97 86 86 94 81 89 87 85 87 92 100 98 100 99 100 100 100 100 100 100 100 100 100 100 92 74 73 88 88 81 66 59 51 43 41 39 31 24 20 17 14 10
100 100 98 94 94 93 92 93 95 95 96 96 96 94 90 93 97 99 99 99 98 90 79 73 75 89 96 90 80 70 61 52 45 39 39 37 27 21 19 15 12 8 6

GFSMW_250_rhum_027.txt.gz
RH
100 100 100 100 100 96 91 79 77 84 91 88 75 66 66 56 52 59 59 82 82 81 64 60 54 80 75 78 69 70 72 54 51 47 44 38 34 31 30 32 31 26 23
100 100 100 100 100 100 88 75 80 93 100 97 92 87 88 85 80 64 54 78 91 95 91 97 96 90 95 95 84 66 57 55 53 49 42 39 33 30 33 35 34 34 33
100 100 100 100 100 100 100 100 87 81 90 97 94 92 86 90 95 84 89 68 64 86 89 93 85 81 85 80 74 71 67 70 63 54 50 44 38 33 33 33 35 36 37
100 100 100 98 98 97 94 96 98 94 87 95 100 100 98 91 83 69 66 65 62 73 84 89 99 100 98 88 88 79 77 64 55 55 52 51 46 39 39 38 37 38 38
100 100 100 100 99 98 97 89 88 94 89 82 87 89 91 91 90 81 78 86 76 75 80 93 100 100 100 89 84 71 64 68 70 69 71 60 50 49 45 51 53 48 40
95 95 96 97 99 99 98 96 99 99 93 87 87 81 75 85 83 81 74 83 74 84 100 100 99 94 98 91 82 82 74 79 83 85 82 62 64 55 52 56 56 56 52
54 53 60 61 58 59 63 65 68 71 76 78 80 78 75 74 78 72 76 71 72 73 86 94 100 96 96 98 94 98 88 88 96 97 91 74 64 72 60 65 67 64 67
57 58 59 58 54 49 47 46 48 51 53 56 60 66 73 80 81 79 77 78 76 72 73 85 92 90 99 100 99 100 99 92 98 96 95 90 80 74 78 68 64 71 82
66 59 54 48 46 45 46 43 42 39 40 42 46 46 45 47 45 70 81 87 81 92 79 75 75 94 100 100 100 100 100 100 100 100 93 93 96 87 75 73 73 74 79
68 67 48 38 33 29 26 22 18 17 18 19 21 24 28 34 40 56 80 92 94 84 67 70 69 76 99 100 100 100 100 100 100 100 84 92 88 89 73 66 81 80 82
51 49 48 50 50 46 39 35 32 32 32 31 33 32 34 38 42 48 61 80 90 86 72 68 65 68 93 100 100 100 100 100 100 100 99 94 88 61 75 92 82 86 73
57 45 36 30 24 20 16 15 16 18 21 22 21 24 26 26 29 40 56 61 74 86 80 76 68 81 92 100 100 100 100 100 100 100 100 99 99 100 93 84 78 72 70
41 34 28 26 24 19 17 16 15 14 16 17 19 26 32 31 31 32 36 36 48 73 82 86 78 96 100 100 100 100 100 100 100 100 95 88 100 91 89 69 73 83 69
42 42 30 24 17 9 5 4 5 7 8 11 13 15 18 24 29 32 36 36 39 42 61 66 80 97 100 100 100 100 100 100 100 100 94 90 77 83 80 65 74 74 73
46 42 38 30 21 10 5 3 3 3 3 4 5 6 10 18 23 24 32 43 50 62 52 58 80 99 100 100 100 100 100 100 87 100 100 87 85 63 66 71 78 62 62
72 62 56 48 31 11 10 5 4 4 4 5 5 6 7 8 11 18 25 34 32 38 42 46 71 99 100 100 100 100 100 100 100 100 77 60 56 60 76 66 59 56 65
94 76 65 81 87 53 24 18 15 12 10 8 7 7 10 13 17 21 28 34 40 47 59 93 100 100 100 100 99 99 95 85 95 61 46 53 70 66 74 75 68 72 75
96 98 70 54 82 81 50 27 30 29 25 24 16 19 26 32 38 44 55 66 65 79 95 100 100 100 100 100 100 100 100 82 55 54 65 74 70 74 80 87 82 88 69
100 80 89 67 53 59 51 50 52 46 40 34 30 36 41 56 63 58 99 99 100 100 100 100 100 100 100 100 100 98 94 83 78 65 72 77 84 98 96 96 86 82 76
98 97 84 85 70 56 41 39 55 60 58 57 65 75 83 75 100 100 100 100 100 100 100 88 100 100 100 81 66 75 58 60 54 62 80 89 82 98 100 90 83 83 76
100 100 100 100 92 69 69 65 45 56 66 74 95 99 100 100 89 83 92 100 100 100 95 100 100 99 80 67 62 59 79 72 73 92 90 90 100 99 93 84 86 71 59
98 98 100 100 100 99 90 85 75 71 71 71 72 63 74 90 89 80 68 70 81 77 78 77 70 79 88 80 75 64 64 90 100 95 99 100 96 92 92 80 63 51 42
90 86 90 100 98 100 97 100 81 75 74 81 91 94 92 90 85 91 93 76 78 73 78 81 78 66 69 77 97 96 93 85 98 100 95 100 98 85 71 57 47 40 36
89 89 98 91 83 90 80 81 77 83 93 100 95 97 97 91 91 91 88 87 83 82 78 76 79 88 93 82 77 97 100 100 100 100 97 79 73 60 49 40 36 33 27
83 83 80 78 89 84 79 81 86 84 84 95 100 97 95 100 100 100 94 96 98 95 93 100 100 97 99 100 100 100 100 97 87 79 64 55 48 40 35 30 24 17 16
94 80 72 81 82 87 87 84 87 92 94 98 99 98 100 99 97 94 91 93 96 99 100 100 100 100 100 100 100 92 74 63 56 50 46 42 34 26 20 16 15 11 8

GFSMW_250_rhum_030.txt.gz
RH
100 100 100 100 100 100 100 100 100 100 100 100 93 91 93 82 80 79 82 86 92 79 67 62 57 52 59 63 64 76 78 76 69 68 56 57 61 59 56 53 47 46 44
100 100 100 98 100 100 100 100 100 100 100 100 100 100 99 99 97 90 91 81 79 74 69 74 73 70 72 74 76 75 71 76 66 66 71 63 64 64 64 53 52 53 55
100 99 100 100 100 100 100 100 100 100 100 100 100 100 98 97 100 99 100 89 78 81 86 87 93 86 76 76 72 89 82 72 66 66 76 69 66 58 57 65 70 67 56
100 99 94 94 96 100 100 100 100 96 91 89 92 96 92 84 79 68 65 77 83 83 86 82 97 83 76 85 84 90 78 87 94 70 74 79 77 72 71 71 75 75 62
100 99 89 87 81 82 89 92 95 97 97 94 95 90 94 98 100 100 99 95 96 100 95 88 86 94 98 100 100 100 100 100 85 91 79 87 80 80 84 78 89 81 81
99 100 100 98 92 95 100 100 100 100 100 100 100 100 100 100 100 100 100 95 94 100 100 98 96 93 99 100 100 100 100 100 99 94 84 86 80 81 77 80 95 94 86
96 96 94 90 88 89 88 84 87 90 90 92 92 92 94 90 86 84 85 87 91 98 100 100 100 100 100 100 100 100 100 100 100 100 100 99 90 77 80 83 89 94 95
59 56 56 56 53 56 60 59 57 53 49 49 52 51 46 50 54 53 53 56 58 67 76 79 92 100 100 100 99 98 100 100 100 100 100 100 100 100 95 91 99 96 94
56 59 64 69 64 56 54 52 51 53 52 50 47 43 40 39 39 42 46 54 65 70 83 94 100 100 100 100 96 100 100 100 100 100 100 100 100 97 91 98 100 97 92
68 64 58 53 52 54 52 49 46 41 35 29 28 28 27 28 30 33 35 36 45 69 86 86 86 90 100 100 100 100 100 100 100 100 100 100 100 100 100 100 100 99 93
56 51 54 54 52 54 50 41 35 31 28 25 23 23 25 26 27 29 30 30 35 52 76 81 87 94 100 100 100 99 100 100 100 100 100 100 100 100 100 100 100 97 83
60 50 59 47 40 41 41 37 29 24 21 18 18 19 20 21 20 22 28 36 50 58 76 93 89 96 100 100 100 100 100 100 100 100 100 100 100 100 100 100 100 100 70
60 50 56 56 39 31 33 32 27 22 17 15 13 11 13 15 16 20 26 29 33 38 57 88 100 100 100 100 100 100 100 100 100 100 100 100 100 100 100 100 90 82 71
71 55 39 36 35 42 36 26 23 16 9 6 5 4 5 6 8 14 21 28 32 36 39 46 55 68 92 99 100 100 100 100 100 100 100 100 100 99 100 97 63 68 53
43 47 44 49 42 38 26 36 32 23 9 5 2 2 2 3 5 10 14 21 28 36 43 53 60 66 65 81 92 77 75 92 100 100 100 100 100 100 97 85 76 59 62
64 55 58 51 52 42 59 57 58 26 13 10 5 4 4 4 4 6 12 19 26 35 47 56 64 83 100 100 85 76 87 100 100 100 100 100 100 90 83 74 54 52 54
62 64 56 62 75 56 72 74 44 30 23 16 9 6 6 6 7 9 12 15 23 35 62 80 88 94 85 73 91 100 100 100 100 100 100 100 91 72 53 42 44 48 55
67 62 74 78 91 74 74 64 46 46 52 34 21 13 12 11 10 14 18 25 32 39 49 59 66 78 92 100 100 100 100 100 100 92 63 75 71 66 53 53 59 70 72
78 71 84 79 100 97 71 63 39 55 61 50 52 34 28 40 30 35 48 50 64 94 97 100 100 100 100 100 100 100 100 94 81 93 97 95 67 59 58 54 65 74 81
87 75 87 94 76 87 94 87 70 53 47 60 35 52 48 40 44 55 85 100 100 97 100 100 100 100 100 100 77 61 64 62 73 82 83 68 70 76 87 82 90 91 88
96 87 95 100 86 78 80 100 82 68 55 59 55 43 44 46 49 49 62 92 85 70 71 86 84 83 90 87 80 78 73 76 82 89 87 88 98 100 98 98 90 76 68
96 100 88 96 96 93 94 95 88 79 72 75 74 70 70 72 70 68 68 58 57 59 57 58 58 58 56 60 60 68 84 97 98 100 100 96 96 94 74 65 64 63 66
84 91 95 80 80 84 95 99 100 99 85 93 100 95 86 82 88 91 82 83 81 79 79 84 87 95 98 98 94 91 96 98 99 100 99 80 77 71 64 63 73 68 57
84 78 92 94 92 85 86 96 100 99 96 86 83 96 100 100 100 100 99 100 99 98 97 95 89 94 93 98 100 100 100 98 94 88 77 80 83 78 71 62 56 46 38
79 78 79 82 86 90 86 79 77 80 83 84 94 98 99 100 100 99 100 100 100 100 100 100 100 98 100 100 99 98 92 95 94 92 88 76 65 57 54 46 39 34 28
75 81 78 72 81 87 88 92 93 96 98 92 90 89 82 80 80 85 88 86 89 94 95 98 99 100 100 100 100 100 98 93 80 69 63 58 53 47 42 36 24 16 11

GFSMW_250_rhum_033.txt.gz
RH
100 98 96 100 100 100 100 100 100 100 99 91 96 98 100 100 94 96 96 99 100 100 93 77 79 80 85 83 81 77 66 68 64 66 59 62 53 60 70 63 55 52 58
98 97 100 100 99 95 99 100 100 100 100 100 100 100 100 100 100 99 98 96 94 95 93 91 96 96 89 86 81 90 99 84 88 77 75 66 67 63 62 74 64 58 61
75 87 100 98 96 100 100 100 100 100 100 100 100 100 100 100 100 100 100 100 97 91 77 73 91 100 96 98 95 96 94 93 94 82 65 90 79 81 76 66 73 72 70
100 100 96 88 96 100 100 100 100 100 100 100 100 100 100 100 100 100 99 96 95 95 100 99 98 99 100 100 100 100 100 99 100 93 94 100 98 99 99 92 82 85 79
100 100 100 100 99 99 96 97 99 100 97 91 80 84 98 100 100 100 98 88 93 98 97 95 100 99 100 100 100 100 98 94 100 99 100 100 100 100 98 95 94 97 86
100 100 100 98 94 86 84 87 95 95 92 89 92 92 93 96 100 100 100 100 100 100 100 100 100 100 100 100 100 100 100 100 100 100 100 100 100 100 100 100 100 100 96
100 99 99 96 94 91 88 91 96 98 100 100 97 96 97 96 100 100 100 100 100 100 100 96 94 96 100 99 100 100 100 100 100 100 100 100 100 100 100 100 100 100 96
100 98 100 100 100 99 96 90 87 80 74 70 66 65 64 62 58 54 57 64 72 77 76 69 66 74 81 90 100 100 100 100 100 100 100 100 100 100 100 100 100 100 100
99 96 94 90 80 68 64 63 60 55 48 44 45 52 54 52 50 50 50 56 68 75 78 81 75 72 74 78 96 100 100 100 100 100 100 100 100 100 100 100 100 100 100
85 72 73 71 62 55 56 49 44 46 43 43 43 41 38 37 38 38 41 44 50 53 56 55 56 60 65 68 77 97 100 100 100 100 100 100 100 100 100 100 100 100 100
82 79 75 73 68 58 52 48 43 39 38 31 26 23 20 19 19 19 20 22 22 26 34 44 50 54 57 62 70 93 100 100 100 100 100 100 100 100 100 100 100 100 100
71 65 71 62 50 49 45 46 37 38 32 28 26 25 22 17 16 15 14 15 18 25 27 34 45 59 68 70 75 77 89 100 100 100 100 100 100 100 100 100 100 100 100
76 64 54 50 52 57 50 38 34 33 33 32 32 30 25 24 20 16 9 6 10 14 24 32 38 43 50 82 100 100 100 100 100 100 100 100 100 100 100 100 100 92 100
64 60 58 61 56 40 35 37 44 45 41 28 18 13 11 9 7 6 4 3 4 6 16 32 44 49 53 53 60 92 100 100 100 100 100 100 100 100 100 94 87 100 100
66 67 75 48 38 43 48 61 61 40 32 36 22 16 13 8 6 4 3 2 3 4 8 20 39 45 57 64 62 62 65 78 88 100 97 100 95 81 94 89 100 100 100
86 60 39 42 50 53 60 72 58 46 49 42 31 19 13 8 6 6 4 4 4 4 8 16 31 51 64 74 77 74 82 76 92 100 90 77 85 96 98 100 100 100 100
45 42 47 55 53 59 60 64 67 72 65 54 44 34 22 15 10 6 5 5 6 8 12 19 26 48 71 85 91 96 100 99 84 94 100 100 100 100 100 100 100 95 80
49 48 54 55 57 62 78 84 90 93 73 67 58 44 37 28 18 16 12 10 12 15 18 26 33 45 67 89 88 76 81 95 100 100 100 100 100 100 100 93 88 75 70
56 58 59 59 72 65 95 90 73 100 91 70 74 65 53 42 34 33 28 24 20 22 40 43 69 90 98 98 95 99 100 100 100 100 100 100 100 97 83 74 53 63 69
54 60 68 67 79 74 94 92 61 89 92 83 80 75 69 62 52 55 47 55 54 44 42 44 52 71 78 92 97 92 86 66 61 77 77 87 91 85 63 70 98 98 94
73 67 75 72 78 82 78 79 73 83 100 89 85 81 85 77 69 64 60 71 65 63 60 62 58 59 65 67 61 64 61 66 74 87 89 87 67 73 75 74 76 80 81
86 81 71 78 79 81 79 74 83 77 89 97 100 92 79 75 87 90 84 83 85 87 88 73 82 90 87 88 87 88 90 93 100 91 82 84 85 87 89 87 81 75 68
82 84 72 70 80 87 78 77 80 81 85 88 87 91 95 93 95 96 98 98 92 93 92 92 90 94 98 100 100 100 100 100 100 99 97 91 91 89 84 83 87 81 60
72 81 77 64 73 86 82 80 74 81 79 77 79 80 81 81 93 96 96 97 98 95 93 97 100 100 100 100 98 100 100 100 98 96 97 100 100 99 84 75 58 49 47
72 75 73 63 72 77 74 71 74 76 80 84 87 83 87 83 79 74 73 85 96 100 100 100 98 98 99 98 98 99 99 97 94 87 84 84 88 81 71 58 47 39 39
73 72 68 63 72 76 80 82 85 83 85 90 90 88 80 73 69 66 71 77 81 82 86 91 88 78 75 76 77 80 81 79 77 75 74 70 65 58 49 42 40 35 29

GFSMW_250_rhum_036.txt.gz
RH
100 99 100 100 98 86 92 93 76 72 67 77 72 80 82 93 99 90 95 100 98 98 92 89 84 88 92 93 100 100 100 100 100 100 90 88 99 100 100 87 89 83 73
92 94 89 94 100 100 100 99 100 90 80 82 81 81 84 100 100 98 97 98 100 99 92 100 100 99 99 99 87 80 79 89 98 100 100 100 98 100 97 92 93 97 82
94 89 96 88 93 100 100 100 100 100 100 98 96 94 95 100 100 100 90 82 85 95 97 98 100 99 98 98 97 96 90 80 81 96 97 100 100 96 91 96 100 100 100
80 83 87 92 96 90 100 73 70 82 98 100 100 100 100 98 89 75 77 83 79 85 92 89 97 100 100 92 90 90 89 88 91 95 100 100 100 100 100 100 100 100 99
98 85 82 87 66 83 67 86 100 100 100 100 86 87 92 94 91 95 96 99 97 100 100 100 100 100 100 100 100 100 100 100 100 100 99 100 100 100 100 100 100 100 100
75 75 71 69 79 67 67 83 92 87 71 78 93 94 91 88 88 100 99 97 92 94 95 100 100 100 100 100 100 100 100 100 100 100 100 100 100 100 100 100 100 100 100
82 89 92 84 74 69 77 73 68 79 86 87 80 78 70 76 83 92 99 100 100 100 100 94 86 86 91 93 94 95 89 93 100 100 100 100 100 100 100 100 100 100 100
100 100 98 91 76 80 85 83 83 83 76 70 74 79 81 88 94 92 87 81 73 69 64 63 61 56 52 60 71 81 98 100 100 100 100 100 100 100 100 100 100 100 100
100 100 100 89 92 98 95 90 90 94 90 77 74 74 67 65 61 54 48 48 48 50 54 53 58 69 77 74 79 98 100 100 100 100 100 100 100 100 100 100 100 100 100
100 100 97 93 94 89 92 95 92 80 76 68 61 54 50 53 50 49 43 34 30 31 36 41 49 54 56 66 72 82 91 99 99 100 100 100 100 100 100 100 100 100 100
100 100 92 86 88 84 80 79 72 63 59 54 47 39 38 33 24 21 20 20 20 20 22 26 31 40 52 60 69 80 82 97 100 100 100 100 100 100 100 100 100 100 100
92 81 82 77 75 84 73 64 62 61 48 40 37 28 28 27 26 23 22 21 23 20 17 20 26 31 34 35 39 49 70 91 95 98 100 100 100 100 100 100 100 100 100
84 78 83 84 79 71 57 51 45 41 34 34 33 32 33 36 32 27 26 21 16 12 12 12 13 16 24 34 44 45 46 50 62 73 80 100 100 100 100 100 100 100 100
95 91 86 78 65 55 56 55 43 43 39 34 43 54 44 29 25 24 19 11 8 8 8 8 10 12 14 18 37 56 61 55 54 54 70 97 100 100 100 100 100 100 100
94 86 75 62 64 63 48 43 38 39 42 48 56 52 37 41 37 27 16 8 7 6 5 6 7 8 10 14 23 34 52 66 69 64 64 72 80 99 100 100 100 100 100
87 72 70 68 56 55 45 36 47 52 54 62 51 66 69 55 56 35 18 10 7 5 5 4 4 4 6 8 15 31 52 68 88 87 81 79 82 88 83 92 86 81 82
68 76 80 62 45 39 37 48 64 62 71 66 68 98 85 69 59 47 29 26 15 10 8 7 6 6 8 11 23 39 58 88 100 100 98 100 91 89 96 88 93 99 95
91 69 45 45 48 52 56 69 71 76 66 88 83 86 87 81 67 54 42 32 32 26 28 19 18 19 20 21 32 59 98 100 100 99 98 86 84 83 97 99 92 80 70
67 50 47 51 60 61 67 69 75 81 61 73 93 91 86 72 70 64 56 53 46 41 36 35 36 38 40 47 63 66 71 72 83 92 98 100 90 82 89 74 74 68 66
57 62 63 63 63 67 69 69 73 80 77 75 96 82 79 80 70 67 66 72 69 61 60 57 61 60 56 55 57 62 67 76 78 77 77 76 78 78 74 79 76 82 82
61 62 72 69 69 70 71 73 73 72 70 80 82 84 74 74 69 69 77 82 80 87 83 81 83 87 85 81 87 88 87 83 83 84 83 82 77 76 81 89 97 97 93
67 67 69 71 68 72 70 70 77 71 73 76 73 72 69 71 73 75 72 71 73 75 75 78 80 82 86 94 96 93 93 96 98 100 100 100 100 100 100 100 100 100 100
68 68 60 68 66 71 68 67 74 72 71 71 75 71 70 68 81 79 67 65 66 74 81 87 91 97 98 99 100 100 100 100 100 100 100 100 100 100 97 97 85 74 61
60 59 57 66 62 66 62 65 67 65 73 76 71 72 72 76 75 70 71 69 72 81 91 92 94 92 86 86 86 87 89 90 84 78 80 81 79 75 69 64 58 52 48
54 56 68 68 58 66 58 62 62 66 69 70 74 75 79 81 74 67 64 66 69 69 68 70 74 78 82 85 84 81 78 79 79 77 72 67 62 59 54 50 45 42 37
62 72 78 67 56 62 58 62 62 71 75 78 81 83 85 78 75 68 74 76 75 78 76 75 80 84 83 81 82 81 81 80 76 68 62 57 53 51 46 41 34 26 20

GFSMW_250_rhum_042.txt.gz
RH
100 98 94 100 100 97 89 86 84 83 73 63 61 55 57 64 83 69 68 71 74 71 66 56 54 48 50 46 41 52 90 98 96 82 100 100 100 100 100 100 95 85 85
100 100 100 96 94 100 100 97 92 72 75 68 62 73 87 97 86 82 81 69 69 58 63 59 53 54 47 47 56 80 83 82 60 77 81 86 76 72 75 90 93 100 100
100 100 100 100 100 95 91 90 83 76 76 82 95 100 100 100 100 87 84 74 58 56 54 54 56 58 54 53 58 68 55 55 66 72 81 82 93 98 100 100 100 100 100
100 100 100 100 100 100 100 90 90 98 98 99 98 96 99 96 88 93 73 66 54 49 44 43 61 64 61 56 69 49 58 70 80 81 100 100 100 100 100 100 100 100 100
100 100 100 100 100 100 100 100 100 100 100 100 100 100 88 72 65 76 76 72 55 52 48 45 49 47 44 59 58 52 57 64 78 99 99 100 100 100 99 98 99 99 99
94 98 100 100 100 100 100 100 100 100 100 100 91 92 97 83 84 69 69 62 59 54 52 50 44 43 43 52 62 68 84 99 100 98 88 71 62 64 75 81 84 95 100
100 98 100 97 100 100 100 100 100 100 93 96 100 98 95 90 92 76 67 62 51 45 48 55 47 50 62 74 81 79 81 70 59 62 66 64 67 69 77 85 88 97 100
100 100 100 100 100 100 100 99 100 100 100 100 91 95 97 89 74 64 52 48 42 54 53 48 61 85 99 98 74 58 49 39 33 34 37 46 54 60 72 85 96 100 96
100 100 100 100 100 100 100 99 94 87 90 83 78 85 74 66 60 47 42 50 49 55 60 78 96 88 64 52 44 37 28 24 22 24 24 28 36 45 62 70 87 100 100
98 96 95 94 96 96 93 95 80 75 85 87 76 72 62 55 46 52 64 74 75 82 87 93 69 42 41 37 37 31 22 16 18 26 30 36 35 41 47 50 57 67 83
100 100 98 96 92 87 88 90 82 80 83 73 67 56 57 72 71 75 78 91 100 85 68 44 41 33 30 34 32 33 23 26 26 29 29 33 38 40 48 62 61 66 67
100 100 100 100 100 100 95 88 83 81 73 66 66 78 86 83 92 83 83 82 65 46 38 32 31 31 34 37 41 28 22 17 16 15 18 26 32 37 41 47 68 78 90
98 92 88 85 84 90 96 100 92 98 93 94 100 99 89 78 76 80 69 46 39 33 30 32 36 40 43 39 29 18 11 9 7 6 7 12 18 29 35 44 56 74 81
100 100 100 100 100 100 100 100 100 100 100 100 100 91 79 74 68 49 35 34 31 32 34 44 47 47 41 32 24 16 11 7 5 5 6 10 16 24 33 52 71 83 91
100 100 100 100 100 100 100 100 100 100 100 93 81 72 68 45 37 37 32 33 35 46 49 55 51 42 40 34 25 19 11 8 6 5 6 10 13 18 25 43 76 94 100
100 100 100 100 100 100 98 100 100 97 87 67 57 41 40 41 36 33 39 48 50 54 56 51 53 50 39 33 36 32 24 17 13 10 11 12 14 20 28 43 63 96 93
100 100 100 100 100 100 100 95 86 77 64 52 44 43 35 34 32 41 56 56 57 55 48 54 52 48 44 42 41 37 36 36 34 33 33 31 24 31 40 54 72 83 86
100 100 100 100 99 95 86 84 75 66 55 53 47 41 36 36 50 54 56 62 61 50 61 57 48 43 43 51 49 43 40 37 38 43 43 55 66 70 75 75 79 84 90
97 94 95 89 87 87 87 76 70 59 66 61 49 42 46 48 55 54 59 56 52 60 68 62 53 47 48 50 48 50 53 54 55 57 57 58 62 66 68 77 90 98 96
90 95 96 100 98 91 88 70 80 75 59 54 46 52 47 53 57 53 52 58 62 67 68 63 53 49 49 52 55 55 58 60 62 64 66 71 74 77 79 84 86 86 87
94 100 100 99 93 86 78 91 76 65 55 50 49 51 47 57 61 55 56 58 63 62 64 56 52 50 52 57 57 58 59 64 67 70 72 77 79 81 81 82 82 79 77
99 99 100 100 99 95 97 83 67 53 57 49 50 47 51 55 59 59 59 60 66 68 67 56 59 60 63 67 68 70 73 75 78 79 82 82 82 87 90 89 90 93 92
100 100 97 99 97 100 85 69 57 55 53 49 48 46 52 52 51 56 60 61 68 70 72 62 64 69 74 74 72 76 79 81 83 87 91 93 94 93 92 89 84 80 75
100 97 97 98 100 92 78 65 57 54 54 52 52 48 47 54 57 61 63 66 72 75 75 66 71 74 75 73 76 80 83 86 87 93 91 88 85 83 79 73 74 73 70
100 99 100 100 96 84 82 63 57 62 60 55 55 49 45 59 63 71 73 73 78 81 80 75 81 81 79 81 87 92 91 89 87 87 88 88 86 82 74 67 68 66 65
97 100 100 100 100 86 78 65 70 70 67 67 58 54 50 62 75 77 86 92 90 90 90 88 89 88 86 87 91 91 90 88 90 90 91 90 83 73 66 65 64 62 58

GFSMW_250_rhum_045.txt.gz
RH
100 100 100 100 100 100 100 100 100 100 100 100 98 100 100 100 100 98 86 83 82 76 98 100 100 87 83 81 64 53 55 52 49 46 54 50 48 65 54 48 57 76 89
100 100 100 100 100 100 100 100 100 100 100 100 100 100 100 98 92 84 76 67 82 100 99 99 91 78 69 59 60 54 51 48 45 44 47 45 47 64 72 97 100 100 100
100 100 100 100 100 100 100 100 100 100 100 100 100 100 99 100 94 83 70 81 77 81 82 85 76 63 66 68 56 53 53 48 45 46 44 45 56 82 98 100 98 89 91
99 100 100 100 100 100 100 100 100 100 100 100 98 99 100 100 88 84 100 100 89 72 63 55 63 67 71 57 57 53 48 47 51 50 52 56 66 76 84 86 100 98 100
100 100 100 100 100 100 100 100 100 100 100 100 100 100 91 87 85 96 98 96 96 83 70 58 55 59 62 60 57 48 43 47 56 69 86 100 95 94 96 88 83 71 79
95 100 100 100 100 100 100 100 100 100 100 100 94 90 94 97 92 81 71 79 92 88 77 66 61 55 58 53 48 44 47 57 74 97 100 100 98 88 60 64 65 60 62
77 88 91 98 100 100 100 100 100 100 100 100 100 97 95 89 87 87 99 92 84 71 76 73 65 60 54 48 42 47 55 75 88 90 86 68 50 37 36 35 43 40 44
82 75 83 90 95 100 100 100 100 100 100 100 100 100 99 98 100 89 88 85 80 73 65 69 68 56 48 56 64 58 80 80 78 52 32 29 27 25 25 29 32 33 38
100 93 85 82 82 88 94 100 100 100 99 100 100 100 100 99 98 86 91 86 76 72 64 65 51 46 58 78 77 72 79 53 30 28 19 22 24 29 33 38 46 47 50
100 100 100 99 99 100 100 100 100 100 100 100 98 100 100 98 90 86 86 75 72 68 57 47 48 65 88 94 85 68 41 35 31 27 26 25 26 26 28 34 35 40 41
100 100 100 100 100 100 100 100 100 100 100 100 100 100 98 86 79 81 75 68 57 55 51 58 83 94 90 72 46 38 32 33 41 32 25 23 19 16 15 17 26 31 39
100 100 100 100 100 100 100 100 100 100 100 100 99 86 82 85 79 73 59 69 71 55 82 93 96 74 56 41 32 35 40 46 36 26 16 14 11 8 7 10 12 20 31
47 77 99 100 100 100 100 100 100 96 98 97 90 90 78 74 67 71 78 72 66 73 84 78 55 44 34 33 40 47 43 40 34 25 16 14 10 7 5 4 7 14 25
46 52 80 99 100 100 100 100 100 100 99 89 74 72 66 80 90 86 91 68 72 73 64 40 37 32 36 47 53 52 42 39 33 32 25 16 12 7 5 4 7 12 20
56 62 72 85 93 93 95 91 80 78 74 76 90 98 100 100 99 92 66 73 70 47 35 31 32 38 48 53 56 53 43 40 38 38 32 26 22 17 10 8 10 15 20
46 57 67 90 97 94 100 100 100 100 100 100 100 100 100 99 81 74 58 49 44 33 31 35 43 49 55 54 54 48 43 39 39 36 33 35 31 33 33 23 27 35 37
91 100 100 100 100 100 100 100 100 100 100 100 100 100 87 81 70 54 47 42 32 33 41 48 52 54 56 56 51 46 44 44 46 43 44 40 39 42 38 41 46 52 60
100 100 100 100 100 100 100 100 100 100 100 100 94 92 77 68 57 53 38 33 40 44 49 52 55 59 59 53 48 45 46 52 52 52 52 50 50 48 42 44 48 51 55
100 100 100 100 100 100 100 100 100 100 100 87 94 78 68 64 49 43 37 38 47 50 54 53 65 61 54 52 50 50 57 60 60 57 54 56 60 61 60 64 68 72 77
81 97 100 100 100 100 100 100 100 100 93 89 89 89 69 47 47 42 43 46 49 54 54 56 61 60 62 55 57 61 65 64 58 59 61 64 68 74 77 77 76 79 83
89 97 100 100 100 100 100 99 96 95 97 100 93 70 60 49 41 44 47 47 48 52 56 57 59 63 62 56 59 65 67 65 64 69 73 76 78 77 78 82 84 83 85
97 96 95 90 82 82 81 96 100 100 92 90 81 68 51 44 43 42 45 44 44 49 56 59 58 60 62 60 60 67 71 73 72 68 70 73 75 79 80 81 82 85 81
98 96 97 98 97 99 100 100 100 92 95 90 76 57 47 44 43 42 43 47 50 50 54 55 61 65 74 74 71 77 83 80 79 81 82 87 87 83 76 72 72 75 72
100 100 100 100 100 100 100 99 96 96 89 83 67 52 51 53 45 45 44 53 57 56 58 63 69 77 82 82 84 86 93 95 90 87 92 91 87 81 77 75 78 76 73
95 93 99 100 100 99 98 100 100 98 93 80 63 61 64 60 54 51 48 55 65 68 69 75 80 85 94 97 99 100 100 100 98 92 97 96 92 85 81 78 77 72 64
96 97 100 100 100 100 100 100 100 99 95 78 61 70 72 68 57 57 57 56 62 76 82 87 91 93 96 100 100 100 100 98 94 99 98 92 86 83 76 75 69 64 58

GFSMW_250_rhum_048.txt.gz
RH
100 100 100 100 100 100 100 95 85 83 83 86 97 100 94 98 96 100 100 100 100 100 100 96 94 85 83 87 89 80 79 84 81 66 57 56 56 52 45 45 54 63 69
96 100 100 100 100 100 100 100 100 100 100 100 100 100 100 100 100 100 100 100 100 100 100 100 100 94 85 79 71 73 76 86 74 58 53 54 52 50 51 51 56 70 83
83 98 100 100 100 100 100 100 100 100 100 100 100 99 99 100 100 98 100 100 100 100 100 100 100 100 79 68 66 70 68 68 64 57 55 56 50 50 61 58 64 78 97
70 91 97 100 100 100 100 100 100 100 100 100 100 100 100 100 100 100 100 100 99 88 75 82 67 64 69 77 70 73 65 62 60 59 58 51 49 52 66 94 98 98 93
80 90 100 100 100 100 96 100 100 100 100 100 100 100 100 100 100 100 100 100 89 99 82 68 66 64 67 71 71 63 68 60 58 62 51 58 61 84 85 91 96 73 62
70 92 99 100 100 100 97 98 98 100 100 100 99 99 100 100 100 97 93 100 100 93 96 90 83 75 69 63 63 67 64 60 56 49 53 66 82 92 98 77 50 40 44
65 75 92 100 99 97 95 98 99 97 95 91 84 83 84 80 85 97 96 85 83 90 91 84 76 75 67 70 71 63 62 52 44 43 54 80 93 78 39 30 26 23 30
64 72 84 93 99 100 98 95 96 97 98 98 92 88 90 92 93 93 94 92 92 82 82 82 83 88 88 81 63 61 50 36 40 63 91 90 52 36 28 27 29 34 40
65 68 69 80 98 100 95 92 90 93 93 95 95 97 100 99 100 94 95 95 91 87 90 98 99 95 85 69 62 43 37 49 68 84 53 38 32 27 31 31 28 28 26
82 69 71 80 88 94 98 100 100 98 98 98 100 100 99 100 100 100 95 96 99 100 100 99 92 81 66 56 36 45 52 73 73 52 39 32 38 44 40 30 22 15 15
61 77 79 79 81 89 100 100 100 100 100 100 100 100 100 100 100 100 100 100 100 100 98 89 70 65 48 30 51 67 80 67 47 36 34 45 48 45 37 25 16 14 12
57 72 78 79 79 82 92 100 100 100 100 100 100 100 100 100 100 100 100 100 100 91 76 71 59 34 30 54 70 65 63 43 32 35 46 45 43 38 32 28 20 16 9
25 35 48 62 74 83 91 97 100 100 100 100 100 100 100 100 100 100 98 93 82 78 60 46 33 43 68 74 56 57 42 34 40 48 45 47 39 37 35 33 26 17 12
17 17 17 21 33 48 73 92 100 100 100 100 100 100 100 100 92 93 88 79 65 48 43 42 60 77 63 50 48 34 34 45 50 46 50 40 38 38 40 37 35 29 22
14 16 17 18 19 24 39 64 80 91 90 91 82 78 82 83 82 76 64 52 63 63 67 78 78 52 50 42 33 39 50 48 49 53 46 41 42 44 45 43 38 36 36
15 15 16 18 22 31 48 59 63 56 48 51 66 83 79 71 60 61 94 100 93 84 83 59 55 46 37 35 44 52 49 48 53 49 46 48 49 54 48 43 42 48 46
17 19 22 28 36 46 51 64 80 79 77 88 86 81 80 100 100 100 98 80 79 59 71 44 43 37 35 44 51 52 51 56 54 50 49 53 53 57 54 51 48 45 48
20 22 27 36 49 75 85 89 100 90 82 100 100 100 100 100 100 82 87 86 64 50 46 40 38 39 41 50 55 52 55 60 51 49 54 57 61 60 62 65 66 63 61
21 27 37 50 60 71 78 90 100 100 100 100 100 100 100 100 90 96 78 56 55 49 39 38 40 41 47 55 57 53 58 55 52 55 62 66 66 68 65 66 69 70 70
28 34 42 68 83 90 99 100 100 100 100 100 100 100 100 100 100 92 77 58 47 39 38 38 39 44 51 54 57 54 60 60 55 59 62 65 69 76 81 79 78 74 69
29 32 38 63 79 100 100 100 100 100 100 93 95 100 100 100 98 86 63 47 45 40 42 40 41 44 45 52 55 58 63 65 63 66 68 76 88 96 93 85 78 76 71
57 52 47 48 67 84 100 100 100 99 100 100 100 100 100 96 88 75 54 54 44 42 41 41 42 46 47 54 57 61 64 68 77 81 83 91 95 95 93 86 84 83 76
97 97 96 96 100 99 100 97 96 100 100 98 100 100 98 90 84 68 62 49 45 43 43 44 51 56 57 59 62 68 74 80 86 93 99 100 100 94 87 86 86 78 74
100 100 100 100 100 100 100 100 100 100 100 100 100 97 100 89 77 73 54 53 54 49 52 51 58 63 70 74 79 82 85 94 100 100 100 97 87 89 92 87 76 74 67
95 97 99 96 96 100 100 100 100 100 100 100 100 100 100 80 76 68 56 65 64 59 54 58 60 70 80 85 88 93 98 100 100 100 90 87 92 90 85 80 72 70 70
94 96 98 95 95 97 100 100 100 100 100 100 100 100 92 79 74 71 70 74 76 72 65 61 65 68 71 78 87 89 89 89 86 84 86 86 82 82 80 77 77 77 75

GFSMW_250_rhum_051.txt.gz
RH
98 95 100 100 100 100 100 90 88 91 85 82 81 85 91 96 94 91 88 83 83 88 81 91 94 100 100 100 100 100 98 90 76 68 72 71 80 76 67 64 60 53 44
94 93 97 100 100 100 100 100 100 98 95 94 94 96 91 91 92 96 100 100 100 100 100 99 100 100 100 100 100 95 87 81 77 80 72 79 81 80 68 63 54 44 41
95 100 98 98 100 100 100 100 100 100 100 100 100 100 100 100 100 100 100 100 100 100 100 100 100 100 100 100 100 97 84 81 84 84 78 74 86 77 67 58 46 41 62
81 100 98 95 94 100 100 100 100 100 100 100 100 100 100 100 100 100 100 100 100 100 100 100 100 100 100 100 97 88 83 83 91 82 84 82 74 69 60 44 48 64 77
57 75 82 93 94 83 100 100 100 100 100 100 100 100 100 100 100 100 99 100 97 92 85 82 93 96 85 80 77 82 88 87 86 82 90 83 72 61 42 40 48 56 54
42 48 56 68 91 92 84 92 100 100 100 100 100 100 100 100 100 100 100 100 100 97 97 100 89 86 82 79 80 86 91 90 89 89 88 76 64 45 40 29 36 33 29
47 54 52 55 66 79 82 80 95 100 100 100 100 100 100 100 100 100 100 100 100 100 100 100 99 98 95 98 94 95 100 89 93 87 80 65 45 37 32 41 42 26 23
33 47 68 82 74 64 73 79 80 92 94 97 100 100 100 100 100 100 100 100 100 100 95 100 100 100 96 98 97 94 86 82 88 77 66 45 36 42 59 47 31 24 28
21 28 44 59 72 72 71 78 80 85 93 93 97 100 100 99 94 96 98 97 97 100 100 99 100 100 100 100 95 93 90 86 73 63 43 40 51 53 47 30 27 28 35
30 29 21 32 57 76 87 90 90 89 96 96 99 100 100 100 100 100 100 98 98 100 100 100 100 99 100 96 98 89 88 76 55 38 43 53 48 38 32 29 38 40 35
20 16 18 18 30 42 53 69 84 94 95 96 99 100 100 100 98 100 100 100 100 100 100 100 100 98 96 97 90 89 70 48 35 46 55 60 42 33 30 43 46 42 37
21 19 21 24 24 28 39 47 56 59 66 80 92 100 100 100 100 100 100 96 100 100 94 100 100 100 96 91 71 50 41 36 60 66 62 44 36 36 42 45 45 41 43
19 18 16 17 17 16 17 25 36 52 61 72 85 85 97 100 98 98 100 97 100 100 99 99 94 92 80 49 36 38 38 72 74 59 47 38 40 44 44 48 42 46 43
14 15 15 15 15 16 17 19 24 29 36 39 55 61 85 94 98 99 99 94 97 97 100 90 76 52 42 38 45 60 72 69 56 45 36 41 44 47 52 46 44 47 45
15 14 14 14 14 14 15 18 20 21 28 45 72 86 98 82 78 86 81 90 98 89 68 44 48 40 48 74 69 61 56 48 42 37 40 45 49 55 52 46 47 49 49
15 14 14 14 14 14 17 28 29 22 34 52 69 70 74 67 74 68 82 80 75 55 55 53 58 74 66 68 40 54 41 36 39 41 49 51 52 58 49 49 54 53 50
15 15 16 16 16 15 15 17 19 22 29 44 42 45 46 50 79 78 70 68 74 76 67 79 86 65 57 42 53 37 36 38 42 48 53 51 54 55 54 57 56 56 58
15 17 20 19 18 17 17 17 19 21 26 33 39 46 56 74 79 79 80 81 93 100 99 96 76 58 47 51 38 37 35 38 45 54 54 54 58 61 59 56 59 64 71
20 21 22 21 20 19 20 23 29 34 38 39 47 82 76 80 85 81 98 100 100 100 100 86 62 55 53 42 38 37 39 42 47 56 56 57 61 63 60 60 69 75 79
21 22 22 22 23 23 28 29 33 38 52 85 100 99 86 83 100 100 100 100 100 100 82 75 67 53 44 39 36 39 40 42 46 53 55 57 62 69 72 79 84 89 91
24 23 23 23 24 29 35 42 60 81 93 98 96 93 100 100 100 100 100 98 94 100 90 61 58 46 40 37 39 42 46 50 52 55 57 65 74 81 86 92 94 93 92
47 40 38 35 34 45 57 73 100 100 100 92 100 100 100 100 100 100 96 96 100 88 79 57 55 44 41 43 45 49 56 61 62 68 75 83 86 93 97 93 93 96 93
82 82 64 54 53 60 63 61 75 91 99 86 100 100 100 100 100 100 100 94 94 99 70 58 52 51 50 52 55 55 62 69 78 85 90 96 98 93 89 95 95 90 77
95 94 95 95 93 85 82 88 98 100 100 100 100 100 100 100 100 100 96 100 98 86 70 59 56 70 66 60 59 61 64 69 77 83 86 87 87 84 80 76 75 78 79
96 96 99 98 97 100 100 100 100 100 100 100 100 100 100 100 100 100 99 100 90 77 71 58 69 79 79 73 70 68 66 64 65 68 72 74 75 77 80 82 87 84 83
96 97 92 94 97 98 100 100 100 100 100 100 100 100 100 100 100 100 100 97 93 75 72 69 78 80 81 74 74 70 70 71 74 74 75 76 79 81 85 89 87 89 87

GFSMW_250_rhum_054.txt.gz
RH
100 100 100 100 100 100 100 100 100 100 99 100 100 99 100 100 100 100 100 100 97 90 92 98 100 94 89 92 92 97 95 90 88 84 93 86 91 87 90 93 90 88 87
99 100 100 100 100 100 100 100 100 100 100 100 93 92 94 96 99 99 95 90 88 84 89 96 100 100 100 100 100 93 86 96 93 83 84 96 94 95 97 92 93 94 87
93 100 100 100 100 100 100 100 100 100 100 100 100 100 100 100 94 89 90 90 92 94 97 92 90 98 100 100 100 98 99 100 100 100 100 98 96 100 99 98 96 88 71
91 82 98 100 100 100 100 100 100 100 100 100 100 100 100 100 100 100 100 99 99 100 100 100 100 100 100 100 100 100 100 100 100 100 100 93 97 96 92 94 93 77 67
77 82 80 87 96 100 100 100 100 100 100 100 100 100 100 100 100 100 100 100 100 100 100 100 100 100 100 100 100 100 100 100 100 100 96 100 95 85 81 84 78 67 55
61 74 70 72 81 94 98 100 100 100 100 100 100 100 100 100 100 100 100 100 100 100 100 100 100 100 100 100 100 100 100 94 93 99 98 97 89 88 77 70 64 47 41
73 61 66 72 69 75 81 87 99 100 100 100 100 100 100 100 100 100 100 100 100 100 100 100 100 100 100 99 100 95 96 96 100 100 98 98 88 79 72 63 39 32 41
76 56 55 59 64 71 82 81 68 78 98 100 100 100 100 100 100 100 100 100 100 100 100 100 100 100 100 100 100 100 100 100 100 93 88 81 80 74 64 36 29 29 36
71 60 41 40 51 62 63 70 75 75 75 80 96 99 100 100 100 100 100 100 100 100 100 100 100 100 100 100 100 100 100 94 88 89 90 78 74 61 37 32 33 29 38
76 69 44 28 20 27 39 50 56 60 64 68 76 88 98 100 100 100 100 100 100 100 100 100 100 100 100 100 100 95 95 89 90 91 77 75 56 35 40 40 35 31 31
37 50 44 26 16 14 15 18 29 38 49 57 65 74 80 88 98 100 100 100 100 100 100 100 100 100 100 98 94 93 84 86 77 69 59 45 34 49 48 38 33 34 34
51 30 21 21 26 25 24 25 24 24 30 37 43 51 62 74 90 98 99 100 100 100 100 99 96 95 91 94 89 79 71 60 55 43 41 41 58 66 39 33 34 35 45
53 76 35 22 15 16 18 21 29 36 37 35 37 39 41 45 53 58 61 62 65 69 75 77 75 90 79 80 62 60 48 52 44 41 55 60 65 40 34 37 37 45 48
19 23 32 27 18 22 26 16 16 17 17 18 20 20 20 20 21 20 21 26 38 44 53 57 55 84 71 59 57 48 49 54 42 62 76 64 44 38 36 38 46 49 49
20 18 18 18 19 23 22 18 16 16 16 16 16 17 19 19 20 22 27 40 49 58 60 76 82 74 61 59 56 54 54 53 63 74 64 41 41 36 37 41 50 52 54
20 20 20 18 17 17 17 16 16 18 21 19 17 19 19 20 28 45 62 80 96 71 81 81 83 69 66 59 56 64 68 70 76 55 39 38 34 37 40 46 51 58 60
18 19 19 18 18 17 17 17 18 18 18 17 17 18 20 20 22 47 81 90 98 65 94 76 87 72 71 73 80 68 72 57 48 42 35 35 38 42 45 46 56 60 60
16 17 18 18 18 18 18 18 19 18 18 19 19 18 18 21 38 55 69 72 79 69 68 100 100 79 85 100 81 71 59 52 43 36 37 37 40 43 47 52 62 66 68
18 18 18 18 19 19 19 20 21 22 22 21 21 21 20 24 39 51 69 66 68 99 100 84 85 98 100 91 66 49 58 46 41 39 38 40 46 49 55 60 65 67 70
22 20 19 18 18 19 20 20 22 25 26 27 26 25 26 42 100 93 77 100 100 100 93 100 100 100 94 84 57 59 51 46 41 41 44 49 53 59 63 70 77 82 89
30 28 23 21 20 20 22 24 26 26 27 32 34 51 69 80 82 86 100 100 100 100 100 100 100 94 88 80 66 58 56 50 44 47 51 53 56 64 71 77 84 88 81
52 49 36 29 28 27 26 26 27 29 34 41 56 65 72 93 100 100 100 100 100 99 100 100 100 89 100 77 60 64 63 58 56 56 59 62 69 71 76 79 72 67 66
54 71 73 59 49 38 38 39 36 40 68 61 74 70 98 100 100 100 96 98 96 100 100 100 100 92 92 77 70 65 71 72 69 70 67 65 65 67 69 69 70 72 76
72 68 84 93 91 83 66 60 57 69 75 81 82 99 100 100 100 94 100 100 100 100 100 100 100 97 91 76 78 68 69 80 80 78 73 72 76 74 69 69 72 75 76
83 87 88 88 90 89 87 83 84 83 82 87 90 89 94 100 100 100 100 100 100 100 100 100 100 97 97 79 81 79 74 77 86 89 82 80 79 74 69 77 80 79 78
89 94 94 91 89 88 91 91 85 82 83 75 78 88 96 99 100 100 100 100 100 92 100 100 100 95 83 78 83 84 85 83 84 91 87 82 79 70 75 85 86 81 84

GFSMW_250_rhum_057.txt.gz
RH
100 100 100 100 100 100 100 100 84 78 81 88 93 100 99 100 100 100 100 100 99 96 100 100 100 98 100 96 91 96 93 97 94 99 99 100 100 100 93 100 100 97 92
100 100 100 100 100 100 100 100 98 80 78 86 98 100 100 100 100 100 100 100 100 100 100 100 100 100 99 98 98 99 98 96 98 94 99 100 100 95 100 100 100 100 95
100 100 100 100 100 100 100 100 100 93 93 99 100 100 100 100 100 100 100 100 100 100 100 100 100 100 100 100 100 96 95 100 100 100 92 91 100 100 100 100 100 100 87
100 100 100 100 100 100 100 100 100 100 91 99 100 100 100 100 100 100 100 100 100 100 100 100 98 94 95 100 100 100 100 100 100 100 100 100 100 100 100 100 100 97 87
100 100 100 100 100 100 100 100 100 100 100 97 100 100 100 100 100 100 100 100 100 97 90 92 98 100 100 100 100 100 100 100 100 100 100 100 100 100 92 93 98 84 100
38 93 100 99 98 100 100 100 100 100 100 100 99 100 100 100 100 100 100 100 100 100 100 100 100 100 100 100 100 100 100 100 100 100 100 100 98 95 97 96 83 83 78
40 34 74 100 100 97 94 100 100 100 100 100 100 100 100 100 100 100 100 100 100 100 100 100 100 100 100 100 100 100 100 100 100 100 100 100 99 100 94 86 80 67 56
64 54 36 72 92 96 97 91 89 99 99 100 100 100 100 100 100 100 100 100 100 100 100 100 100 100 100 100 100 100 100 100 100 100 100 100 100 97 88 77 62 44 31
52 93 89 37 54 77 85 88 94 100 100 100 96 100 100 100 100 100 100 100 100 100 100 100 100 100 100 100 100 100 100 100 100 100 100 100 99 82 75 56 38 24 29
62 66 88 90 49 36 40 58 74 77 78 88 94 98 99 100 100 100 100 100 100 100 100 100 100 100 100 100 100 100 100 100 100 100 98 93 80 64 49 33 24 25 36
99 57 61 82 83 37 25 30 33 52 64 67 68 69 70 78 84 88 97 100 100 100 100 100 100 100 100 100 100 100 100 100 96 86 79 61 50 37 28 26 33 33 42
30 72 49 38 56 79 40 20 22 22 29 34 44 60 68 74 78 82 88 89 84 86 85 84 87 86 82 81 78 77 76 64 57 44 46 41 36 32 29 31 34 38 45
26 26 32 28 43 45 46 33 24 24 25 17 20 26 36 44 48 51 48 52 56 60 58 64 58 52 49 46 42 38 35 32 34 38 38 38 38 33 34 38 44 43 31
26 25 24 24 28 19 29 52 40 23 19 18 17 19 22 25 30 36 42 43 59 65 52 35 26 26 23 24 28 34 47 58 50 52 43 46 42 45 41 47 41 31 33
22 22 23 23 24 25 24 22 22 25 30 34 38 31 31 29 27 31 42 39 33 24 22 22 20 33 42 45 52 80 81 68 73 47 60 56 52 47 51 34 32 32 34
19 18 19 20 20 21 20 20 20 19 18 18 16 17 18 18 18 18 18 17 19 22 27 28 83 66 60 38 100 100 90 86 79 76 67 70 58 56 35 32 30 33 37
20 20 19 19 19 20 20 20 20 19 19 18 17 18 16 16 16 17 18 20 31 62 76 32 57 48 91 100 89 79 86 98 97 81 77 75 51 35 34 32 36 41 45
21 20 20 20 21 20 20 20 20 20 20 19 19 20 19 20 21 21 21 21 24 28 27 35 58 87 98 94 70 90 100 98 88 80 81 60 44 42 37 40 46 52 49
26 24 22 20 20 20 20 20 19 20 20 20 21 22 21 22 23 23 24 24 24 30 40 65 94 71 60 64 100 100 90 100 98 87 59 55 52 47 44 48 51 56 59
23 24 24 22 21 20 19 20 20 20 20 22 23 23 24 26 27 28 26 27 35 59 62 70 70 71 100 100 100 91 99 100 90 73 67 61 62 62 54 54 57 62 63
39 36 34 28 23 21 21 21 21 22 22 22 23 24 26 27 29 30 32 43 45 54 97 96 84 100 100 100 100 94 100 100 93 81 69 66 69 71 69 64 65 66 66
39 47 51 55 40 31 24 22 22 22 22 23 24 27 29 32 41 51 68 72 88 100 91 98 100 100 100 100 91 100 100 100 99 75 77 69 75 82 76 70 72 70 67
47 48 48 62 67 61 49 37 31 28 28 28 31 36 35 41 52 66 75 80 92 95 99 100 100 100 100 90 100 100 100 100 79 82 81 83 73 77 85 83 80 77 73
56 54 50 56 85 84 78 64 57 41 43 52 49 44 51 60 69 87 84 84 97 100 100 100 100 89 100 100 100 100 99 92 85 82 76 80 82 73 79 80 81 83 81
68 64 65 66 74 89 88 83 78 68 66 69 57 57 69 92 100 94 99 98 100 100 100 99 97 100 100 100 100 92 97 90 92 78 86 93 84 79 72 74 76 76 79
80 75 72 76 75 78 85 88 88 90 87 83 87 90 89 83 82 82 90 100 100 100 100 100 100 100 100 100 100 98 100 100 86 86 96 94 95 85 78 73 72 78 82

GFSMW_250_rhum_060.txt.gz
RH
98 100 100 100 99 95 95 100 100 100 100 100 90 85 80 74 74 90 96 96 100 100 100 98 93 97 100 98 100 100 96 99 97 100 98 98 93 88 92 100 100 98 100
100 93 95 86 93 91 96 100 100 100 100 100 99 87 94 77 77 91 97 100 100 100 99 94 92 97 96 94 99 100 100 100 99 94 99 100 100 100 100 100 100 94 94
100 100 94 88 89 90 92 100 98 100 100 100 100 99 90 92 90 88 99 100 100 100 100 100 100 100 100 100 100 100 100 100 100 98 100 100 100 100 100 100 100 100 97
99 100 100 97 84 85 73 71 99 100 100 100 100 99 93 96 100 100 100 100 100 100 100 100 100 100 100 100 100 100 100 100 100 100 100 100 100 100 100 100 100 100 100
33 70 100 100 100 97 94 86 80 95 100 100 100 100 100 100 100 100 100 100 100 100 100 100 100 100 100 100 100 100 100 100 100 100 100 100 100 100 100 100 100 100 100
22 26 34 78 100 100 100 100 92 86 81 97 100 100 100 100 100 92 97 100 100 100 100 100 100 100 100 100 100 100 100 100 100 100 100 100 100 100 100 100 100 100 99
19 18 22 22 49 100 100 100 100 97 89 87 99 100 100 100 100 100 91 93 100 100 100 100 100 100 100 100 100 100 100 100 100 100 100 100 100 99 94 90 86 95 98
24 23 18 19 22 30 72 100 100 100 100 100 98 100 100 100 100 100 100 100 100 100 100 100 100 100 100 100 100 100 100 100 100 100 100 100 100 99 84 93 93 91 79
25 25 24 21 20 33 39 57 91 100 100 100 100 100 100 100 100 100 100 100 100 100 100 100 100 100 100 100 100 100 100 100 100 100 100 96 90 86 88 82 74 58 45
28 28 29 31 28 25 23 38 48 80 91 100 100 100 100 100 100 100 100 100 100 100 100 100 100 100 100 100 100 100 100 100 100 100 96 86 82 79 73 59 46 40 40
29 29 30 33 46 46 43 31 24 34 56 76 90 93 97 96 96 100 100 100 100 100 100 100 100 100 100 100 100 100 100 100 96 87 79 71 55 48 39 46 49 44 41
29 29 31 34 33 68 40 52 21 21 21 25 39 56 73 88 99 100 98 95 98 100 100 100 100 100 100 100 100 100 92 89 83 78 62 41 31 38 40 56 54 43 44
24 26 27 29 33 32 40 38 51 45 23 24 19 21 31 43 62 84 94 97 98 99 96 95 89 90 85 82 82 79 80 77 67 55 39 32 41 76 58 61 53 58 45
23 22 23 24 26 29 31 45 53 33 34 30 20 20 20 20 29 36 40 40 46 53 55 63 63 56 53 52 55 56 59 56 46 36 40 57 80 80 69 68 55 65 44
22 20 20 20 22 24 27 27 26 27 34 28 26 28 25 18 17 17 21 31 34 35 33 40 44 42 44 42 40 60 48 37 40 46 54 77 64 77 68 56 61 53 40
18 18 18 20 21 22 24 26 26 26 24 23 23 26 33 46 35 24 26 25 19 23 31 19 23 26 26 32 33 32 25 70 54 58 91 93 75 85 63 72 64 54 39
20 20 20 19 19 19 20 21 22 23 23 24 23 23 22 22 22 24 23 22 23 23 25 23 21 22 28 23 26 33 43 78 58 90 77 81 81 72 76 94 75 49 43
24 24 23 21 20 19 19 18 18 19 21 22 22 23 24 24 24 23 22 22 21 22 22 23 21 21 25 25 26 28 45 65 69 81 80 74 96 95 82 75 63 56 58
29 28 26 24 22 19 18 18 17 18 18 19 20 22 24 25 26 27 27 26 24 26 26 26 24 24 25 27 28 47 53 70 82 67 94 100 100 78 95 94 73 63 62
36 31 30 29 28 27 25 24 22 20 18 18 19 22 23 24 25 26 26 26 28 26 27 25 26 26 29 42 53 70 82 78 82 100 98 100 98 94 93 81 79 68 68
41 39 36 33 42 39 32 28 25 23 21 20 20 20 22 23 23 24 25 27 26 26 26 28 32 35 50 55 72 100 80 95 100 100 96 95 93 100 100 88 70 77 71
63 45 38 40 40 54 42 34 30 26 24 22 22 22 22 22 23 24 25 26 26 29 31 32 39 58 74 76 92 95 100 100 100 100 98 98 100 99 89 75 67 80 78
59 57 50 43 33 45 50 49 41 32 28 25 24 24 24 24 25 25 26 27 32 38 46 54 77 86 89 88 100 100 100 100 100 98 100 100 100 94 81 70 73 83 76
64 67 62 56 48 48 56 68 62 56 44 40 34 31 32 36 38 42 45 46 49 70 81 88 93 90 90 100 100 100 100 100 100 93 100 100 100 100 86 68 72 72 80
67 73 74 66 66 63 56 66 74 74 68 61 56 45 42 42 43 51 63 72 76 80 93 96 88 91 98 100 100 100 100 99 95 100 100 100 99 88 82 73 77 77 80
75 78 88 86 79 73 69 74 77 77 73 81 85 82 81 79 82 80 79 73 80 83 95 100 98 98 100 100 100 100 100 92 100 100 100 86 83 84 74 75 76 80 83

GFSMW_250_rhum_063.txt.gz
RH
69 83 88 100 100 100 100 100 100 100 100 100 100 100 100 96 84 74 73 74 67 68 74 84 86 89 100 100 94 96 100 100 98 97 100 100 98 95 99 98 100 100 100
39 69 83 84 94 100 100 100 100 100 100 100 100 100 100 92 88 81 73 71 70 74 80 88 98 100 100 100 100 100 100 100 100 100 99 100 100 100 100 100 100 100 99
22 23 46 78 79 68 71 100 100 100 100 100 100 100 100 100 100 93 94 90 88 89 96 100 98 100 100 100 100 100 100 100 100 100 100 100 100 100 100 100 100 99 98
22 20 24 52 88 86 79 74 91 100 100 100 100 100 100 100 100 100 93 84 82 85 96 100 100 100 100 100 100 100 100 100 100 100 100 100 100 100 100 100 100 100 98
25 21 25 42 62 90 99 88 78 92 99 100 100 100 100 100 100 100 100 100 93 78 79 95 100 100 100 100 100 100 100 100 100 100 100 100 100 100 100 100 100 100 99
30 24 22 29 51 85 100 100 100 100 100 99 100 100 100 100 100 100 100 100 100 100 98 100 100 100 100 100 100 100 100 100 100 100 100 100 100 100 100 100 100 100 100
30 28 23 23 38 76 100 100 100 100 100 100 93 88 88 90 98 100 100 100 100 100 100 100 100 100 100 100 100 100 100 100 100 100 100 100 100 100 100 100 100 100 100
30 30 25 24 24 31 65 100 100 100 100 100 98 93 85 72 80 86 100 100 100 100 100 100 100 100 100 100 100 100 100 100 100 100 100 100 100 100 100 100 100 100 97
28 31 32 27 26 25 24 31 74 100 100 100 100 99 93 94 92 87 80 82 100 100 100 100 100 100 100 100 100 100 100 100 100 100 100 100 100 100 100 100 100 94 82
27 30 31 30 27 24 24 23 24 39 75 100 100 100 99 90 88 93 98 92 92 94 100 100 100 100 100 100 100 100 100 100 100 100 100 100 100 100 100 97 89 83 75
28 27 27 30 29 27 25 23 23 24 26 27 33 42 60 72 74 73 77 83 92 98 100 100 100 100 100 100 100 100 100 100 100 100 100 100 100 100 95 89 80 70 59
31 29 27 28 27 28 28 26 24 22 22 22 22 23 24 28 30 38 57 78 88 96 96 99 100 100 100 100 100 100 100 100 100 100 100 100 99 87 77 64 63 50 43
32 31 30 29 27 28 28 28 25 23 22 22 21 20 20 22 24 26 27 32 38 60 78 94 100 100 100 100 100 100 100 100 100 99 89 84 81 63 52 50 43 45 49
28 23 22 21 23 24 25 28 30 29 28 26 24 23 23 22 20 19 20 28 32 35 42 52 66 68 72 79 81 83 79 76 69 67 58 58 48 42 44 35 47 64 46
18 18 20 20 20 20 21 22 23 26 28 28 28 28 26 23 24 25 25 26 30 30 32 28 30 35 40 39 43 54 55 55 44 46 42 36 36 37 47 58 63 52 66
19 19 20 19 18 18 19 21 22 23 25 25 25 26 28 29 31 31 34 23 22 21 22 19 22 19 24 28 30 33 34 26 28 33 33 26 42 73 43 58 63 68 71
21 20 20 19 18 18 19 18 17 17 18 18 19 21 22 24 26 29 29 28 31 39 62 66 40 41 53 50 45 44 31 27 33 58 38 31 58 46 62 61 69 91 90
30 26 25 23 21 19 19 18 17 17 17 17 18 19 20 22 23 25 27 27 26 26 27 26 27 27 28 33 36 30 31 29 24 26 30 31 33 65 71 85 93 96 100
37 36 34 32 30 26 24 22 21 21 20 18 18 19 19 20 20 21 23 24 25 25 26 26 26 27 28 28 28 46 33 28 25 28 31 38 61 71 97 100 98 100 100
40 44 40 36 32 30 28 26 25 24 23 21 19 18 20 21 21 22 23 24 24 25 27 28 28 28 28 29 32 33 34 32 30 35 47 63 76 100 100 100 100 100 90
52 47 47 44 39 37 34 33 29 26 24 22 21 20 20 20 20 21 22 23 25 28 29 31 30 31 33 34 34 36 35 33 43 68 89 93 100 100 100 100 100 100 97
78 73 62 55 48 48 40 50 46 37 30 28 26 22 22 21 20 20 19 20 21 24 26 28 29 30 31 34 36 35 38 54 76 84 92 92 100 100 100 100 100 96 100
45 53 67 64 64 63 55 46 56 58 51 49 37 28 26 25 23 24 24 24 24 25 25 27 29 31 31 32 37 41 55 71 85 86 99 100 100 100 100 100 99 90 94
38 46 53 64 64 63 66 67 61 60 57 63 56 46 44 37 32 28 28 27 30 31 31 34 36 37 40 53 68 73 89 100 100 100 100 100 100 100 100 100 92 93 100
45 47 50 63 73 68 71 72 69 71 71 75 68 66 60 48 45 48 40 39 40 47 52 60 72 79 84 97 99 98 99 100 100 100 100 100 100 100 100 100 99 90 88
45 48 51 63 79 78 80 77 68 68 70 68 76 79 83 81 78 74 70 72 73 74 83 88 91 88 88 96 100 100 100 100 100 100 100 99 100 100 99 92 90 87 77

GFSMW_250_rhum_066.txt.gz
RH
69 66 100 100 100 100 100 100 100 100 100 100 100 100 100 100 100 100 100 100 84 81 76 73 84 90 89 85 85 82 97 100 100 100 100 100 100 100 100 100 96 89 98
32 53 83 98 100 100 100 100 100 100 100 100 100 100 100 100 100 100 100 100 100 100 100 100 96 94 79 77 75 82 94 99 100 100 100 100 100 100 100 100 100 100 100
22 23 84 77 79 100 100 100 100 100 100 100 100 100 100 100 100 100 100 100 100 90 91 95 92 96 85 94 84 83 93 100 100 100 100 100 100 99 100 100 100 100 100
21 19 28 63 88 99 100 100 100 100 100 100 100 100 100 100 100 100 100 100 100 98 100 96 93 84 83 77 83 87 100 100 100 100 100 95 93 98 100 100 100 100 100
26 22 22 42 65 75 91 96 100 100 100 100 100 100 100 100 100 100 100 100 100 100 100 100 100 99 100 99 80 67 92 94 100 100 100 100 100 100 100 100 100 100 100
26 25 22 28 25 28 49 70 82 89 100 100 100 100 100 100 100 100 100 100 100 100 100 100 100 100 97 98 100 100 100 100 97 100 100 100 100 100 100 100 100 100 100
25 26 26 29 23 24 24 29 35 56 67 71 81 99 100 100 100 100 100 100 100 100 100 100 100 100 100 100 100 99 100 100 100 100 100 100 100 100 100 100 100 100 100
29 27 26 27 30 27 24 24 24 29 41 43 52 63 76 84 96 94 94 100 100 100 100 100 100 100 100 100 100 100 100 100 100 100 100 100 100 100 100 100 100 100 100
27 30 28 27 27 30 29 27 22 25 27 33 50 66 67 80 81 84 80 75 86 98 100 100 100 100 100 100 100 100 100 100 100 100 100 100 100 100 100 100 100 100 100
23 27 30 29 28 30 29 28 30 22 25 27 29 50 77 77 69 71 69 70 78 86 93 96 98 98 99 100 100 100 100 100 100 100 100 100 100 100 100 100 100 100 100
27 28 31 32 30 29 32 28 28 29 26 25 26 27 40 67 75 68 64 60 68 73 72 75 77 84 92 89 95 100 100 100 100 100 100 100 100 100 100 100 100 100 100
30 29 29 32 33 30 29 28 28 29 30 28 24 26 25 26 29 36 52 62 55 57 54 59 68 68 68 67 63 70 84 85 91 96 100 100 100 100 100 100 100 90 84
31 33 30 29 29 30 32 29 28 27 27 27 27 26 24 25 26 26 25 25 26 26 34 35 34 32 33 35 36 35 41 47 60 73 80 86 89 96 88 80 75 69 63
23 23 24 27 29 28 28 30 31 31 30 30 28 28 25 25 25 24 23 24 23 21 21 22 22 22 22 22 24 26 31 39 43 50 67 63 68 78 68 62 71 63 46
23 22 21 18 20 20 23 25 28 30 31 31 30 29 29 28 27 25 23 23 23 21 21 21 22 23 23 24 24 26 28 46 39 57 50 67 55 49 58 74 48 51 46
21 19 19 19 21 23 22 21 22 23 25 28 28 28 28 30 30 29 28 26 24 24 24 25 26 27 28 30 30 32 31 34 35 46 49 58 68 57 58 56 88 59 39
23 20 19 19 19 22 22 19 17 16 17 18 18 19 19 21 23 24 26 26 28 27 26 26 27 26 25 26 31 28 29 29 29 46 75 58 43 68 64 55 55 63 36
35 33 31 29 27 23 23 21 20 18 18 18 19 19 19 19 19 20 20 22 22 22 24 24 25 25 27 29 32 34 37 35 32 32 32 30 32 32 32 37 32 33 52
56 51 42 40 34 31 30 29 25 22 21 20 20 20 19 19 19 19 19 19 20 20 20 21 23 23 24 25 28 31 33 32 32 33 33 32 32 32 31 33 35 71 78
47 37 39 39 39 37 36 35 33 33 30 27 27 27 24 23 22 21 19 20 19 19 18 19 20 22 24 25 25 28 27 28 28 31 33 35 34 35 36 44 65 99 92
48 45 42 42 38 39 37 32 33 35 35 33 31 28 26 26 25 24 22 22 22 22 21 20 20 21 22 24 27 28 30 34 37 36 35 35 35 45 64 80 100 100 100
80 77 78 73 66 62 58 48 38 33 30 32 31 28 28 26 22 22 24 24 23 23 23 23 23 22 24 27 29 32 35 35 36 37 36 42 63 86 100 100 100 100 99
69 73 73 70 71 74 79 83 79 61 50 42 38 35 39 38 30 33 33 28 25 25 25 26 26 26 27 28 29 31 34 36 38 46 58 72 83 95 100 100 100 100 100
40 42 46 44 38 37 42 50 74 80 78 67 62 56 50 49 46 54 46 38 30 32 32 28 28 30 33 36 41 41 42 47 56 65 76 86 90 95 100 100 100 100 100
38 39 38 39 40 36 32 37 47 69 74 70 71 73 76 62 63 72 53 58 62 57 55 55 54 50 49 52 53 59 67 79 85 89 92 99 100 100 100 100 100 100 100
45 45 45 43 42 42 40 37 42 52 64 67 72 77 81 82 80 82 80 76 76 72 72 76 75 77 77 78 82 89 91 86 93 100 100 100 100 100 100 96 91 87 86

GFSMW_250_rhum_069.txt.gz
RH
78 100 100 100 100 100 100 100 100 100 100 100 100 99 99 89 85 95 100 100 100 100 100 100 100 100 100 100 100 100 100 100 100 100 100 99 90 97 100 100 100 94 96
34 49 96 100 100 100 100 100 100 100 100 100 100 100 100 100 99 100 100 100 100 100 100 100 100 100 100 100 100 100 100 100 99 100 92 99 92 93 100 99 100 100 96
24 41 70 97 97 100 100 100 100 100 100 100 100 100 100 100 100 100 100 100 100 100 100 100 100 100 100 100 97 96 84 76 86 90 68 87 100 99 100 100 100 100 85
28 26 52 69 91 100 100 100 100 100 100 100 100 100 100 100 100 100 100 100 98 100 100 100 100 100 97 100 100 100 92 87 71 89 95 95 100 98 100 100 100 100 100
25 49 33 64 70 78 93 100 100 100 100 100 100 97 100 100 100 100 100 100 100 100 100 100 100 100 100 100 92 90 91 88 93 100 99 96 100 99 91 100 100 97 100
28 31 77 68 71 62 77 85 78 86 98 100 100 100 100 100 100 100 100 100 100 100 100 100 99 97 100 100 100 100 96 89 88 98 96 82 85 76 100 96 100 100 100
30 29 47 100 100 70 40 29 26 29 42 84 100 100 100 100 100 100 100 100 99 100 100 100 100 100 100 100 100 100 100 100 100 100 100 100 100 100 99 100 100 100 100
31 30 31 35 44 98 99 36 24 27 28 33 43 78 98 100 100 100 100 100 100 100 100 100 100 100 100 100 100 100 100 100 100 100 100 100 100 100 100 100 100 100 100
31 29 30 33 35 34 35 87 75 25 26 28 29 33 37 64 95 100 100 100 100 100 100 100 100 100 96 100 99 100 100 100 100 100 100 100 100 100 100 100 100 100 100
35 31 28 30 36 36 36 34 34 41 30 26 25 27 26 31 35 32 32 37 42 49 52 60 59 54 59 64 72 82 93 91 96 99 98 100 100 100 100 100 100 100 100
36 34 31 29 31 37 38 34 33 32 31 32 30 24 22 23 25 28 28 29 28 26 26 26 26 30 45 48 48 62 72 76 80 82 93 96 97 99 100 100 98 98 74
36 40 40 35 31 31 37 37 34 32 31 30 30 30 33 44 27 22 23 27 27 28 28 28 26 24 24 26 34 44 46 42 40 47 60 76 78 73 72 55 50 55 54
36 37 37 34 31 30 30 32 34 34 30 31 32 32 30 31 29 29 28 27 24 23 25 28 28 29 29 25 25 25 25 23 26 30 32 34 34 32 31 42 44 49 59
26 23 28 34 34 32 32 31 29 28 28 28 28 31 32 31 30 31 30 29 27 28 27 25 27 29 29 27 25 26 26 26 26 27 27 29 35 39 34 37 54 57 77
24 21 19 20 23 27 30 30 30 30 29 30 31 32 31 31 31 31 30 29 28 28 27 26 26 26 26 26 25 25 25 25 25 26 26 27 30 33 33 39 38 41 42
26 24 20 18 18 18 17 19 21 24 28 30 32 35 36 36 35 34 34 34 34 33 33 32 31 29 27 26 26 25 27 28 28 28 30 33 34 35 35 37 33 34 39
22 20 18 18 19 19 17 17 18 19 19 20 21 23 25 26 28 28 28 28 29 29 30 30 29 29 28 26 25 24 23 23 25 28 30 30 28 28 29 35 44 38 39
26 26 25 24 23 20 21 22 22 21 20 19 18 18 17 18 19 20 21 20 20 20 19 19 18 17 17 18 19 20 23 24 25 24 24 26 26 25 28 35 37 37 40
38 37 38 39 41 39 38 37 32 26 23 22 21 19 18 18 17 16 17 17 17 17 18 19 19 19 20 20 19 19 20 19 20 21 22 24 27 30 32 34 38 38 38
56 59 60 55 50 46 47 41 39 35 33 30 30 30 31 30 26 23 22 22 21 20 20 19 19 19 19 19 20 20 21 21 22 24 26 28 30 31 33 40 38 38 39
52 57 59 55 48 43 42 36 34 33 31 32 32 33 35 34 31 31 29 28 27 26 27 26 25 23 22 22 22 23 22 23 24 26 26 29 34 38 39 39 42 43 52
59 52 49 51 48 44 48 46 40 38 37 35 33 34 35 33 30 31 30 30 28 27 27 27 26 25 25 24 24 25 26 26 25 27 30 37 38 42 44 45 49 58 73
67 81 87 88 89 88 87 92 90 86 84 77 68 63 59 52 44 43 39 38 32 32 33 32 35 34 27 27 28 29 29 30 31 33 34 36 37 48 55 55 62 90 100
66 65 66 76 80 85 83 78 77 75 70 64 58 54 49 55 59 61 60 61 56 53 42 50 55 47 38 38 40 38 38 40 45 45 47 52 55 59 70 75 84 93 99
52 59 55 53 56 60 65 61 55 51 46 41 39 40 43 47 59 64 67 69 74 78 67 70 75 70 60 59 60 60 59 58 60 62 69 73 76 79 83 91 95 94 96
45 49 49 46 50 52 51 53 51 48 45 40 40 40 42 52 62 64 70 81 84 82 83 83 86 89 85 86 80 79 79 81 82 83 90 91 92 95 95 96 100 100 100

GFSMW_250_rhum_072.txt.gz
RH
100 100 100 100 100 86 94 93 83 88 100 100 98 100 92 100 99 96 100 100 100 100 100 100 100 100 100 100 100 100 100 100 100 100 100 97 100 98 93 81 80 86 82
100 100 100 100 100 100 98 98 100 94 99 94 100 100 100 100 100 100 100 100 100 100 99 100 100 100 100 100 100 100 100 100 100 100 100 100 87 75 76 78 72 65 84
74 100 100 100 100 100 100 100 100 100 97 90 100 99 96 88 89 81 73 97 100 98 100 100 100 100 100 100 100 100 94 98 100 100 99 90 86 91 99 99 90 85 85
100 87 100 100 100 100 100 100 100 99 98 91 99 100 100 100 97 100 98 100 79 74 90 92 97 100 91 84 79 75 80 80 82 95 98 100 100 82 97 85 99 99 100
82 100 70 93 100 100 100 100 100 100 100 100 84 100 100 100 100 100 100 100 97 100 100 100 100 100 100 99 100 100 100 100 100 93 81 87 100 100 98 100 100 100 100
28 35 85 51 56 92 100 100 100 100 100 100 100 100 100 100 100 100 100 100 100 100 97 99 98 91 78 79 88 98 97 90 99 100 100 100 100 100 100 100 100 100 100
32 31 28 56 59 49 74 97 100 100 100 100 100 100 100 100 100 100 100 98 100 100 100 100 100 100 96 100 94 88 92 92 95 94 100 100 100 100 100 100 100 100 100
38 34 34 30 61 86 85 52 58 87 100 100 100 100 100 100 100 100 100 100 100 100 100 100 100 100 98 98 100 100 100 100 97 100 100 97 100 100 100 100 100 100 100
33 38 38 37 36 34 63 100 96 45 43 64 87 97 100 100 100 100 100 100 100 100 100 100 100 100 100 100 93 92 91 100 100 100 99 100 100 99 90 94 96 90 99
25 29 39 41 40 39 38 36 73 99 100 74 39 26 32 44 60 88 100 100 100 100 100 100 100 100 100 100 100 100 100 100 100 90 65 49 63 70 70 61 70 82 89
22 27 36 43 44 42 40 40 38 37 53 88 100 98 78 45 36 39 39 41 36 41 49 47 48 51 57 51 48 55 57 45 33 30 31 31 32 32 35 37 35 43 43
26 28 35 41 46 49 45 41 40 40 38 37 36 46 82 100 100 100 92 42 28 24 24 26 27 27 27 28 32 31 29 27 26 26 26 27 29 29 29 30 29 32 30
31 29 29 30 34 40 43 42 39 39 39 40 39 37 36 36 34 33 33 36 36 33 28 26 24 22 22 22 24 27 25 24 25 25 24 25 28 30 30 30 31 32 32
23 22 21 22 23 28 33 38 42 42 38 35 34 34 35 35 35 36 36 36 37 35 34 34 33 32 31 30 32 32 31 29 28 28 28 27 26 26 28 28 30 30 30
23 22 22 24 24 24 27 32 36 40 41 39 36 34 31 30 30 33 35 35 36 37 37 36 35 33 30 29 29 29 29 29 27 27 28 28 29 30 29 28 30 32 34
22 22 21 21 21 21 23 27 30 32 33 34 34 33 33 32 30 29 30 30 32 32 33 33 32 31 30 29 29 29 29 29 29 28 27 26 28 27 25 26 29 30 33
26 25 24 23 22 21 18 17 18 20 22 25 30 32 33 34 34 35 35 34 33 30 28 28 29 30 31 33 33 31 31 30 29 27 27 27 27 27 23 22 24 25 26
26 26 26 25 23 22 21 19 18 19 20 20 20 19 20 22 22 23 24 26 28 28 30 29 29 27 26 25 24 24 23 22 20 20 18 18 19 20 20 20 22 22 22
39 38 35 30 29 27 25 24 22 22 21 22 22 22 20 20 21 21 20 19 18 18 18 18 19 20 20 20 20 20 20 19 18 18 17 18 18 19 21 21 22 24 23
41 43 43 43 43 43 42 41 42 41 36 32 30 29 27 24 20 21 21 20 20 20 20 20 22 22 22 22 21 20 19 19 18 18 18 19 19 20 20 22 25 26 31
42 42 44 45 49 48 45 47 49 45 40 40 40 35 32 28 24 26 27 28 27 27 24 24 25 26 29 30 29 28 27 25 23 22 22 22 22 23 25 26 28 32 38
45 48 56 50 42 38 44 53 53 45 42 40 39 38 37 34 31 29 29 28 27 27 29 29 31 32 34 34 37 34 29 26 24 24 24 25 28 29 31 32 35 39 48
50 54 67 69 53 55 51 46 44 47 42 41 38 38 38 41 43 42 40 43 46 46 45 44 40 38 40 48 50 46 41 34 29 27 29 32 34 35 40 47 53 59 66
39 48 55 65 60 60 66 74 79 78 72 71 73 71 69 69 69 68 62 53 48 44 49 63 65 65 69 80 69 56 52 43 43 41 42 44 48 50 54 60 68 78 86
34 37 40 53 58 53 66 75 79 76 77 74 72 70 73 74 64 51 44 40 37 35 44 60 71 75 86 89 78 68 61 59 57 60 61 74 78 81 83 88 92 93 94
30 33 39 44 50 52 52 58 65 70 72 72 68 66 66 60 54 48 44 42 36 37 46 54 64 74 84 90 89 80 78 75 75 73 71 74 82 89 93 93 94 96 100

GFSMW_250_rhum_075.txt.gz
RH
100 100 100 96 100 100 74 87 100 100 83 99 100 100 100 92 80 100 100 100 100 100 100 100 100 100 100 100 100 100 100 100 100 100 100 100 97 94 89 92 90 93 87
100 100 100 100 94 72 77 100 100 95 96 100 100 100 100 100 95 99 100 100 100 100 100 100 100 100 100 100 100 100 100 100 100 100 100 92 71 76 79 78 81 88 100
100 100 100 100 98 100 78 84 100 94 100 100 100 100 100 100 77 78 77 100 100 100 100 100 100 100 100 99 100 98 93 100 98 74 76 76 73 74 82 87 99 99 94
100 100 100 100 100 100 99 98 86 100 97 98 99 91 99 100 100 100 99 100 100 100 100 100 99 98 93 96 87 76 64 67 69 65 59 54 59 100 100 100 100 100 100
75 90 100 100 100 100 100 100 90 87 80 71 84 100 77 94 100 100 100 100 97 97 100 93 91 78 72 74 69 61 58 51 57 64 65 90 96 96 100 100 100 100 100
100 66 86 100 100 100 100 100 100 89 99 97 99 97 100 90 94 100 100 100 100 100 100 100 97 92 100 100 100 78 83 80 88 85 87 86 100 81 93 88 99 100 100
100 100 85 75 100 99 100 100 100 100 100 100 100 99 96 100 100 100 100 100 100 100 100 100 96 98 100 100 100 100 94 91 87 97 84 94 97 100 100 100 100 100 100
50 95 100 100 63 57 87 92 100 100 100 100 100 100 100 100 100 100 100 100 100 100 100 100 100 100 100 100 100 100 100 100 100 100 90 100 100 100 100 100 100 100 100
42 47 64 100 100 100 72 86 96 100 100 100 100 100 100 100 100 100 100 100 99 96 98 99 100 100 100 100 100 100 100 100 100 100 100 100 100 100 100 100 99 91 94
30 41 48 46 68 100 100 100 87 100 100 100 100 100 100 100 100 100 100 100 100 100 100 100 100 100 100 100 100 100 100 100 100 100 100 100 100 100 89 76 54 42 39
21 27 38 47 50 43 49 100 100 100 100 100 100 100 100 100 100 100 100 100 100 100 100 100 100 100 100 100 100 100 100 100 100 100 100 86 66 44 39 32 31 32 31
18 20 24 32 41 48 47 39 42 87 100 100 100 100 100 100 89 77 92 100 100 100 100 100 100 100 100 100 100 91 87 80 81 67 49 36 30 29 28 25 25 26 28
20 21 21 29 35 39 45 50 49 47 44 41 39 44 61 96 100 100 100 92 72 59 62 47 49 50 50 39 31 30 34 42 39 28 24 24 24 27 24 24 26 27 27
36 35 35 39 39 35 43 45 44 47 49 49 48 45 43 42 41 51 59 60 68 73 79 75 77 84 85 76 54 42 37 36 37 34 35 35 33 32 31 29 28 29 29
30 34 36 32 30 30 30 31 31 32 36 41 43 45 45 42 40 40 41 41 40 41 43 44 43 42 43 43 42 40 39 39 37 33 34 33 32 29 27 25 24 24 26
22 20 20 21 24 27 27 26 26 27 27 27 30 34 39 43 44 44 43 43 42 41 40 38 38 38 37 36 34 32 32 32 30 29 28 28 27 26 25 27 28 26 24
24 26 26 24 23 21 21 22 21 20 21 21 22 24 26 29 33 36 38 41 42 42 43 44 44 42 40 37 35 34 33 32 31 30 29 29 29 27 23 20 19 19 18
28 26 25 25 24 23 24 24 22 20 20 20 19 18 19 20 22 26 30 33 35 37 39 40 39 38 36 35 34 32 29 26 23 21 21 20 19 19 18 17 17 16 16
35 33 31 30 28 27 27 27 25 23 24 24 22 21 19 19 20 20 19 19 21 22 21 21 20 19 19 19 18 18 17 18 19 19 19 19 19 18 17 18 16 17 18
33 38 38 39 38 36 35 33 32 29 25 24 26 26 25 25 25 24 22 21 20 19 18 18 18 18 18 17 17 17 18 22 23 24 23 22 23 23 20 22 23 23 24
33 39 40 41 39 38 42 45 46 47 48 46 46 46 47 44 38 32 29 24 24 25 23 24 27 28 26 26 28 27 28 29 31 30 30 28 28 25 24 24 24 25 26
30 32 36 44 45 46 50 56 50 51 56 54 50 45 42 44 41 38 36 33 31 31 29 29 29 30 30 31 31 29 31 34 35 32 36 36 29 26 26 26 28 30 32
21 26 29 34 36 42 47 52 48 52 53 50 46 42 40 43 38 37 36 36 35 35 32 31 31 33 38 41 44 43 45 44 47 49 46 41 39 35 32 33 36 41 48
16 16 25 36 35 33 35 47 53 55 55 54 49 44 42 41 43 42 41 39 39 37 36 41 49 56 53 48 45 56 67 66 77 67 63 60 60 49 50 52 58 59 62
18 14 11 15 29 34 34 41 48 49 52 63 61 62 64 62 62 64 65 64 66 64 61 62 53 37 30 29 34 50 67 80 81 72 72 78 75 72 73 74 76 80 83
10 12 11 10 12 21 30 34 40 50 51 59 59 58 59 65 64 64 68 64 57 53 56 53 46 35 33 32 35 53 68 80 85 78 77 79 86 87 88 93 95 94 99

GFSMW_250_rhum_078.txt.gz
RH
100 100 100 100 100 100 100 100 100 100 100 100 100 92 100 100 100 100 84 71 74 77 93 96 83 100 100 100 100 100 97 100 100 100 100 98 84 73 83 60 55 68 69
100 100 100 100 100 100 100 100 100 100 100 100 100 100 100 99 100 100 98 100 100 81 76 90 100 100 100 100 100 100 100 99 97 96 85 82 61 66 64 65 59 63 63
100 100 100 100 100 100 100 100 100 100 94 100 100 100 100 100 85 84 100 95 74 85 81 93 100 100 100 100 100 100 100 100 92 75 78 77 68 64 62 61 54 59 78
100 100 100 100 100 100 98 100 96 100 100 100 100 100 100 100 100 100 100 100 100 86 85 91 88 88 85 97 98 89 90 99 92 78 67 61 52 40 38 42 47 68 92
100 100 100 100 100 99 100 100 100 100 100 100 100 100 100 95 100 100 100 100 99 100 100 100 100 100 90 87 77 62 59 54 59 54 54 47 40 40 57 81 96 95 100
100 100 100 100 100 100 100 100 100 100 100 100 100 99 99 100 100 100 100 100 100 100 100 100 100 100 100 95 86 84 62 48 45 40 43 83 91 68 80 92 100 100 100
100 100 100 100 100 100 95 100 97 100 100 100 100 100 100 96 100 100 100 100 100 100 100 100 100 100 100 100 97 82 91 88 94 100 100 99 100 100 99 100 100 100 100
100 100 100 100 100 100 100 100 100 96 81 100 100 87 75 75 66 88 100 100 99 98 100 100 100 100 100 100 100 93 96 100 98 100 99 100 73 100 100 100 100 100 100
100 100 100 100 100 100 99 100 100 100 100 100 100 78 80 93 100 100 100 90 84 99 96 100 100 99 78 78 100 100 100 100 100 87 100 100 100 100 98 83 88 100 99
100 100 100 100 100 100 100 100 100 100 100 100 100 98 90 97 100 92 82 100 78 98 100 100 100 100 100 100 100 100 95 100 100 86 88 95 96 100 100 97 86 97 100
91 100 100 100 100 93 99 100 100 100 100 100 100 100 100 100 100 100 100 100 100 100 100 100 100 100 100 100 100 100 99 95 99 100 100 100 100 100 100 100 100 100 92
35 61 98 100 100 100 90 83 85 100 100 100 100 100 100 100 100 100 100 100 100 100 100 100 100 100 100 100 100 100 100 100 100 100 100 100 82 95 100 86 72 64 57
25 29 41 60 61 91 100 100 100 100 100 100 99 99 99 100 100 100 100 100 100 100 100 100 100 100 100 100 100 100 100 100 100 100 99 92 86 68 73 92 40 33 31
21 23 21 24 35 51 57 63 90 100 100 100 100 100 100 100 94 84 82 83 79 85 99 100 100 100 94 87 97 100 99 87 73 60 61 93 93 54 42 40 35 36 31
45 45 38 36 33 30 28 32 41 50 56 64 77 92 100 100 100 100 100 100 99 95 92 90 98 100 100 98 97 92 94 89 76 78 64 49 40 40 44 39 33 34 32
30 28 28 27 29 30 31 26 28 31 38 43 44 46 52 55 70 74 90 100 100 92 91 97 100 100 100 93 58 40 44 44 46 44 41 41 40 35 37 38 33 33 32
24 21 21 21 22 25 30 32 33 32 30 32 34 34 37 40 44 47 50 50 49 47 45 44 44 44 43 44 45 48 47 45 42 41 42 41 40 38 36 34 30 25 21
29 27 24 23 23 20 21 24 25 27 30 29 32 32 31 30 31 32 33 34 34 34 33 34 35 37 37 37 38 40 41 40 37 35 35 33 31 27 21 18 17 16 16
26 24 28 29 28 26 24 22 20 20 20 20 21 22 23 22 23 24 24 23 23 23 24 24 24 25 25 27 29 29 30 28 25 23 21 19 18 19 20 18 18 19 20
35 34 30 22 24 24 26 28 25 23 22 22 20 20 21 22 22 22 22 21 21 21 21 21 21 20 19 20 20 20 19 18 17 18 18 20 23 24 24 26 25 22 22
36 32 30 30 31 26 23 28 30 29 30 28 25 22 22 23 24 22 23 24 24 24 24 23 22 20 17 18 18 18 19 20 22 25 26 29 31 30 30 27 26 26 26
33 32 32 25 23 23 27 28 27 29 32 31 32 34 34 37 40 39 36 34 34 31 29 26 23 24 25 24 26 25 28 30 31 34 32 32 35 37 36 36 37 35 33
24 27 26 25 22 18 17 22 29 30 32 37 42 40 41 44 45 48 50 49 44 40 35 33 28 31 33 33 32 34 37 37 36 37 37 46 50 62 61 60 53 49 46
20 15 15 17 16 15 15 15 17 22 31 35 40 47 48 50 52 53 58 63 61 51 44 42 38 37 39 38 41 48 46 46 51 56 54 45 52 75 86 78 68 62 64
16 12 10 10 11 12 11 11 14 16 16 24 35 38 41 43 47 52 57 63 60 54 48 42 42 44 43 49 57 60 62 62 49 40 34 36 60 81 90 83 76 75 83
10 9 8 7 7 7 9 8 9 12 13 14 18 26 36 43 43 46 49 55 61 64 63 63 58 61 71 80 84 78 68 50 39 32 30 50 64 83 96 87 84 84 85

GFSMW_250_rhum_081.txt.gz
RH
100 100 100 100 100 100 100 100 100 100 100 100 100 100 100 100 100 72 99 100 100 100 83 66 64 97 91 85 74 83 100 87 92 86 91 79 77 65 66 67 74 72 77
100 100 100 100 100 100 100 100 100 100 100 100 100 100 90 100 100 100 99 100 100 93 99 90 93 85 75 68 64 58 81 100 89 69 85 85 65 68 58 59 64 79 78
100 100 100 100 100 100 100 100 100 100 100 100 100 100 100 100 94 100 100 100 99 100 100 100 95 95 86 80 59 47 60 65 81 66 64 72 68 62 65 62 54 44 36
100 100 100 100 100 100 100 100 100 100 100 100 100 100 100 100 100 100 100 95 81 95 100 100 100 100 100 99 78 67 65 52 47 49 50 50 56 64 62 48 42 32 33
100 100 100 100 91 100 100 100 100 100 100 100 100 100 100 100 100 100 100 100 100 100 90 98 89 64 74 82 76 52 51 78 74 50 42 42 40 36 50 49 39 47 68
100 100 100 100 100 100 100 100 100 100 100 100 100 100 100 100 100 100 100 100 100 100 100 100 95 63 60 60 65 72 83 96 84 66 58 75 74 72 54 67 67 89 84
100 100 100 100 100 100 100 100 97 100 100 100 100 100 100 100 100 100 100 100 100 100 100 99 92 100 100 100 97 98 100 100 88 98 84 90 84 76 86 65 61 90 100
100 100 100 100 100 100 99 85 100 100 100 100 100 100 100 100 100 100 100 100 100 100 100 96 100 100 100 100 100 100 100 100 100 100 95 90 100 100 92 83 87 100 100
100 100 100 100 100 98 100 100 88 94 100 100 100 100 100 100 100 100 100 100 100 100 100 89 100 100 100 98 96 87 100 100 100 100 100 100 100 92 93 100 97 100 93
100 100 100 100 100 100 100 100 89 86 100 100 100 100 100 100 100 100 100 100 100 100 100 100 100 100 100 100 100 100 100 100 96 76 90 100 100 100 91 98 100 100 100
100 100 100 100 100 100 100 100 100 99 69 67 85 98 91 89 100 99 100 100 100 94 100 100 100 100 100 100 100 100 100 99 78 64 63 83 100 82 86 100 97 100 99
100 100 100 100 100 100 100 100 97 100 100 100 100 100 91 100 100 100 100 100 100 100 100 100 100 100 100 100 100 100 100 74 71 95 94 99 97 100 77 92 99 100 100
98 100 99 100 98 100 100 100 100 100 100 100 100 100 77 100 100 98 90 96 100 99 100 100 100 100 89 78 80 100 100 100 100 100 100 100 100 100 99 97 88 99 88
34 64 100 84 95 100 100 98 90 91 100 100 100 100 100 100 98 98 100 100 82 88 99 100 100 100 100 100 100 100 100 100 100 100 100 95 87 87 93 87 76 62 45
40 26 29 77 100 100 100 100 100 100 100 95 100 100 100 100 100 100 100 100 100 100 100 100 100 100 100 97 95 94 92 91 100 98 97 99 86 74 67 50 47 70 72
25 32 37 38 36 74 100 100 100 100 100 100 100 100 100 100 100 100 100 100 100 100 100 100 100 96 100 100 100 88 78 80 78 78 74 82 76 52 60 86 61 41 39
24 22 19 19 24 31 40 55 90 98 99 100 100 100 100 100 100 100 100 100 98 100 100 100 100 100 98 94 79 70 74 69 66 61 66 74 98 90 63 44 38 30 26
45 38 29 24 19 16 16 20 28 39 53 60 90 100 100 100 100 100 100 97 95 95 85 90 82 81 83 91 97 100 98 95 93 88 83 74 52 41 35 27 25 24 23
40 42 36 32 30 25 21 19 16 16 18 22 31 47 70 82 93 97 93 88 87 94 98 99 98 95 89 84 70 53 46 44 44 44 43 38 31 26 22 22 21 20 19
41 36 37 37 36 30 26 24 22 19 17 16 16 16 17 22 26 26 28 31 33 34 35 35 36 35 36 36 35 34 32 33 32 29 26 24 21 22 20 18 19 18 21
42 39 38 39 38 32 29 27 22 20 20 18 18 17 15 14 16 19 24 26 26 27 30 31 32 32 31 29 29 28 26 25 24 23 22 20 19 19 21 21 24 25 30
41 32 28 21 20 34 34 24 21 21 20 18 19 20 17 18 18 19 19 20 21 22 23 23 23 24 24 24 25 26 25 24 21 21 22 22 22 24 26 28 31 34 42
34 29 27 23 13 16 19 25 21 18 18 17 18 17 20 21 19 18 21 23 25 25 25 24 24 26 26 27 29 29 28 25 26 30 30 30 30 32 37 39 43 52 62
31 31 25 14 10 7 9 11 16 16 13 13 12 13 16 17 19 22 23 22 25 31 34 33 31 33 34 36 38 38 38 34 34 36 37 37 40 48 57 55 56 55 52
30 20 11 7 5 5 4 4 6 10 11 10 9 9 11 13 16 18 24 28 32 36 38 41 43 46 45 43 49 48 45 47 44 42 46 48 57 65 68 55 42 38 50
19 9 6 5 4 4 4 3 3 4 6 6 7 6 7 9 13 16 20 26 36 40 42 46 52 53 54 55 62 64 56 53 51 56 53 64 80 76 59 44 35 43 68

GFSMW_250_rhum_084.txt.gz
RH
8 82 100 100 100 100 100 100 100 90 95 100 100 100 100 100 100 100 100 100 100 93 77 54 96 83 85 96 85 100 99 87 60 79 72 63 64 49 52 63 62 74 61
32 100 100 100 100 100 100 100 100 95 100 100 100 100 100 100 99 100 100 100 100 100 100 99 99 100 90 100 100 100 99 86 62 42 43 39 32 39 40 44 54 72 48
100 100 100 100 100 100 100 100 100 99 100 100 100 100 100 100 100 100 100 100 100 100 100 100 100 100 100 100 86 86 82 59 42 33 30 30 40 42 48 47 38 40 34
100 100 100 100 100 100 100 100 100 100 100 100 100 100 100 86 100 99 100 100 100 99 100 100 100 100 100 86 77 69 71 60 53 42 43 38 34 32 30 32 30 37 33
100 100 94 100 100 100 100 100 100 100 100 100 100 100 100 100 100 100 100 100 100 100 100 100 93 95 100 100 100 100 100 100 96 78 44 36 31 29 27 28 33 40 53
100 100 100 100 100 100 100 100 100 100 99 100 100 100 100 100 100 100 100 100 98 100 100 100 100 100 100 100 100 100 92 86 66 55 73 62 40 46 33 42 69 75 83
100 100 100 100 100 100 100 100 99 100 100 100 100 100 100 100 100 100 100 100 100 100 100 100 100 100 96 100 98 88 85 60 52 74 70 67 58 77 87 88 98 96 99
100 100 100 100 100 100 100 100 100 100 100 100 100 100 100 100 100 100 100 100 100 100 100 100 100 100 100 100 100 100 100 100 100 100 100 100 100 97 100 100 100 100 100
100 100 100 100 100 100 100 100 100 100 100 84 100 100 100 100 100 100 100 100 100 100 100 100 100 100 100 100 100 100 100 100 100 100 100 100 100 100 100 100 100 100 100
100 100 100 100 100 100 98 100 100 100 100 100 93 100 100 100 100 100 100 100 100 100 100 93 97 100 97 79 85 97 98 100 100 100 100 100 100 100 91 100 100 81 96
100 100 100 100 100 100 100 100 100 100 100 100 100 100 100 95 100 100 100 100 100 100 100 99 91 85 96 98 96 100 100 98 100 100 100 89 89 100 100 99 90 70 95
100 100 100 100 100 100 100 100 100 99 100 100 100 100 100 100 100 100 100 100 100 100 100 100 100 100 100 100 100 100 100 100 100 95 100 100 100 100 94 99 100 99 100
100 100 100 100 100 100 97 100 100 100 100 99 100 100 100 100 100 100 100 100 100 100 100 100 100 100 100 100 100 100 100 100 100 100 100 100 100 100 100 100 100 100 100
100 100 100 100 100 100 100 100 100 100 100 96 95 84 92 100 100 100 100 100 100 100 100 100 100 100 100 100 100 100 100 100 100 100 100 100 98 100 93 90 77 88 89
95 100 100 97 100 100 100 94 89 100 95 98 98 85 100 96 100 100 100 100 100 100 100 100 100 100 100 100 100 100 100 100 100 100 100 100 96 79 70 82 67 100 100
52 98 100 100 97 87 95 100 87 91 100 81 71 97 92 96 73 80 80 100 100 100 100 100 100 100 100 100 100 100 96 100 100 100 100 93 66 50 57 100 100 75 84
34 37 52 98 100 100 94 98 98 100 100 100 100 94 100 87 94 88 100 80 73 78 80 87 96 98 100 100 100 74 79 100 100 100 93 77 100 100 98 61 68 75 80
47 45 37 30 36 58 83 100 100 92 88 85 94 97 100 100 96 81 97 96 97 95 80 85 76 75 100 100 100 98 95 100 100 100 90 98 82 93 93 95 91 74 78
40 39 40 44 39 35 31 28 33 47 76 92 93 81 100 100 99 91 95 100 100 100 100 100 100 100 100 100 100 100 85 87 98 100 100 100 99 100 92 71 71 72 79
37 28 28 29 26 29 30 28 30 28 25 26 43 82 96 96 81 73 78 83 89 100 100 100 100 88 86 100 100 100 100 100 100 100 93 94 89 76 75 79 78 45 32
35 34 29 25 25 26 23 20 20 22 22 22 22 20 21 24 43 75 97 88 80 85 96 100 99 91 99 100 100 100 100 100 93 91 98 100 88 76 82 54 34 31 28
36 37 37 27 24 28 23 16 15 14 14 15 15 16 18 20 19 20 19 18 36 59 78 99 100 99 97 82 82 89 90 94 100 98 97 90 62 42 34 31 28 23 22
39 40 31 24 24 20 13 11 8 8 10 10 12 11 12 14 15 18 19 19 19 19 23 24 28 38 58 68 67 58 47 49 56 54 36 34 32 29 26 24 22 24 27
37 34 27 25 19 10 7 6 5 6 5 6 6 8 10 8 10 11 14 16 17 18 19 18 19 22 24 26 26 25 26 28 29 30 29 29 30 28 26 28 29 32 31
32 30 28 23 11 6 4 4 4 4 4 4 4 4 5 6 6 6 7 10 13 15 18 22 21 21 23 26 28 31 34 34 32 32 41 40 41 37 33 36 40 38 38
30 23 19 10 6 4 3 3 3 3 3 4 4 4 4 4 5 5 6 6 7 10 13 18 22 26 29 32 35 41 50 56 58 56 52 48 52 49 51 51 48 49 46

GFSMW_250_rhum_087.txt.gz
RH
6 8 8 8 7 13 23 26 59 100 100 100 100 100 100 100 100 100 100 100 100 100 100 100 100 100 100 100 99 72 52 63 100 100 90 78 83 84 68 56 53 38 33
5 6 7 8 11 16 18 35 100 100 100 100 100 100 100 100 100 100 100 100 100 100 100 100 100 100 99 96 82 75 89 100 100 91 96 95 80 73 57 45 49 42 40
4 6 7 8 18 24 24 34 100 100 100 100 100 100 100 100 100 100 100 73 93 100 100 100 100 100 100 100 100 100 100 100 98 76 60 56 44 63 49 63 47 32 37
4 6 7 13 40 45 42 75 100 100 100 100 100 100 100 100 100 100 100 100 100 100 100 100 95 100 100 100 100 100 100 100 100 75 52 65 63 45 30 28 33 35 46
5 8 13 97 95 100 100 100 100 100 100 100 100 100 100 100 100 100 100 100 100 100 100 100 100 100 100 100 100 100 100 100 100 100 73 91 60 68 75 84 70 52 48
11 18 40 100 100 100 100 100 88 100 100 100 100 100 100 100 100 100 100 100 96 100 100 100 100 100 100 100 100 100 100 100 100 100 100 99 100 95 81 64 63 45 39
18 100 100 100 100 100 100 100 100 100 100 100 100 100 100 100 100 100 100 100 100 92 84 98 100 98 100 100 100 100 100 100 100 100 100 100 100 98 62 71 46 51 77
86 100 100 100 100 100 100 100 100 100 100 100 100 100 100 100 100 100 100 100 100 100 91 73 80 86 100 100 100 100 100 100 100 98 100 90 86 100 46 74 77 98 100
100 100 100 100 100 100 100 100 100 100 100 100 100 100 99 100 100 100 97 100 100 100 98 94 100 100 77 83 94 100 94 100 100 99 100 70 76 100 100 91 85 100 100
100 100 100 100 100 100 100 100 100 100 100 100 100 100 100 100 95 100 100 100 100 100 100 99 81 91 84 98 100 100 100 93 96 91 93 87 78 96 94 97 90 100 90
100 100 100 100 100 100 100 100 100 100 100 100 100 97 100 100 87 100 100 100 100 100 100 100 100 98 100 100 100 100 100 100 100 100 86 100 100 100 100 98 100 100 100
100 100 100 100 100 100 100 100 100 100 100 100 100 100 100 100 100 99 91 98 100 100 100 100 100 100 88 100 100 100 100 100 100 100 100 100 100 100 100 100 100 100 100
100 100 100 100 100 100 100 100 100 100 100 100 100 100 100 100 100 100 100 100 100 100 100 100 100 100 100 100 100 100 100 100 100 100 100 98 100 100 100 99 100 100 97
100 100 100 100 100 100 100 100 100 100 94 100 100 100 100 100 100 100 100 100 100 100 100 100 100 100 100 100 100 100 100 100 100 100 100 100 100 100 100 100 98 80 83
100 100 100 100 100 100 100 100 100 100 100 100 100 100 100 100 100 100 100 100 100 100 100 100 100 100 100 100 100 100 100 100 100 100 100 100 100 100 94 93 100 100 76
89 100 100 100 100 100 100 100 100 100 100 100 100 100 100 100 100 100 100 100 100 100 100 100 100 100 100 100 100 100 100 100 100 100 100 100 100 100 100 100 100 100 100
100 100 100 100 100 100 100 100 100 100 100 100 100 100 98 100 82 99 100 100 100 100 100 100 100 100 100 100 100 100 100 100 100 100 100 100 100 100 100 95 98 100 100
60 98 100 100 100 100 100 100 100 100 100 100 100 100 100 92 78 75 77 90 100 100 100 100 100 100 100 100 100 100 100 100 100 100 100 100 100 100 97 100 100 100 96
51 46 47 85 98 100 100 100 100 100 100 100 100 100 100 98 96 100 99 76 73 78 87 82 80 89 96 94 100 100 100 100 100 100 100 100 100 98 100 100 98 98 95
28 29 32 37 39 44 51 84 100 100 100 100 98 88 84 90 96 92 97 97 95 85 80 84 76 91 81 80 62 70 55 76 90 96 100 100 98 71 57 84 80 94 97
27 27 24 25 26 27 29 32 36 51 68 77 74 79 84 80 82 81 99 97 88 87 95 96 91 82 85 99 90 94 98 97 76 79 79 72 69 66 83 90 96 98 100
34 29 30 28 27 24 21 20 20 24 28 32 32 28 32 44 68 82 75 66 60 52 68 81 71 79 96 99 98 92 100 100 100 100 99 98 100 100 100 100 95 93 97
40 34 32 31 27 20 18 17 15 12 12 14 19 21 25 24 26 26 23 25 28 18 13 19 49 63 63 65 71 74 78 88 92 95 95 100 100 100 100 99 91 94 97
41 35 33 29 28 18 15 11 7 6 5 5 5 6 7 10 14 15 16 16 16 15 18 19 17 14 14 15 21 29 42 67 80 86 86 88 83 88 95 88 86 76 67
41 32 30 31 25 20 13 7 4 3 3 3 3 3 3 3 4 4 6 7 8 9 10 12 13 16 18 19 18 17 17 20 22 24 29 32 30 34 38 40 42 41 47
36 29 31 28 22 15 7 4 3 2 2 2 2 2 3 3 3 3 3 4 4 5 7 9 9 11 12 14 17 20 22 25 27 28 26 31 36 39 45 48 57 65 63

GFSMW_250_rhum_090.txt.gz
RH
6 10 15 19 18 8 10 15 16 16 23 44 52 67 96 100 100 100 100 100 100 100 100 100 100 100 98 100 100 100 100 100 100 81 82 73 72 46 81 86 90 100 100
8 9 13 18 14 13 14 16 15 20 25 35 87 100 100 100 100 100 100 100 100 100 100 100 100 100 100 98 99 94 100 100 100 98 80 96 77 85 100 100 100 99 80
8 9 14 18 16 14 14 14 16 20 42 51 100 100 100 100 100 100 100 100 100 100 100 100 100 100 100 100 90 90 100 100 99 100 100 100 100 100 100 100 91 65 45
6 7 13 13 13 13 15 12 16 25 56 45 100 100 100 100 100 100 98 100 100 100 100 100 100 100 100 99 99 100 100 100 100 96 100 100 100 100 100 97 90 64 77
4 6 8 10 10 11 12 13 14 29 74 49 100 100 100 100 100 100 100 100 100 100 100 100 100 100 100 100 100 100 100 100 100 100 100 100 96 87 100 71 80 54 63
3 4 5 7 7 8 11 13 15 34 69 100 100 100 100 100 100 100 100 100 100 100 100 100 100 100 100 100 100 100 100 100 100 100 100 100 100 100 100 100 100 95 82
3 4 5 6 9 12 16 16 21 40 100 100 100 100 100 100 100 100 100 100 100 100 100 100 100 100 100 100 100 100 100 100 99 100 100 100 100 100 100 97 83 100 76
5 6 8 12 16 18 55 37 51 66 87 100 100 100 100 100 100 100 100 100 93 100 100 100 100 93 100 96 100 100 100 100 100 100 100 100 91 81 71 78 100 69 56
11 16 19 15 23 99 100 100 100 100 100 100 100 100 100 100 100 100 100 98 86 96 100 84 100 100 96 99 100 94 99 100 100 100 91 89 100 95 100 87 63 74 42
22 32 28 76 100 96 100 100 100 100 100 100 100 100 100 100 100 100 100 100 100 95 100 100 95 87 88 97 100 100 90 100 100 100 100 100 100 98 79 93 76 78 86
39 73 100 100 100 100 100 100 100 100 100 100 100 100 100 100 100 100 100 100 100 100 96 100 86 100 100 100 99 99 100 100 100 100 100 100 100 97 100 100 100 100 100
89 100 100 100 100 100 100 100 100 100 100 100 100 100 100 100 100 100 100 100 100 100 100 100 100 88 100 100 95 60 84 100 96 100 100 77 88 100 71 100 100 100 100
100 100 100 100 100 100 100 100 100 100 100 100 100 100 100 100 100 100 100 100 100 100 100 100 100 100 100 100 98 84 100 94 77 70 89 90 92 94 92 88 97 100 100
100 100 100 100 100 100 100 100 100 100 100 100 100 100 100 100 100 100 100 100 100 100 100 100 100 100 100 100 100 100 100 100 100 100 100 100 94 100 100 100 100 100 98
66 100 100 100 100 100 100 100 100 100 100 96 100 100 100 100 100 100 100 100 100 100 100 100 100 100 100 100 100 100 100 100 100 100 100 100 100 100 100 100 98 100 100
51 86 100 100 100 100 100 100 100 100 100 100 100 100 100 100 100 100 100 100 100 100 100 100 100 100 100 100 100 100 100 100 100 100 100 100 100 100 100 100 100 93 100
68 81 100 100 100 100 100 100 100 100 100 100 100 100 100 100 100 100 100 100 100 100 100 100 96 100 100 100 100 100 100 100 100 100 100 100 100 100 100 100 100 100 100
94 96 98 100 100 100 100 100 100 100 100 100 100 100 100 100 100 99 100 100 100 99 100 100 96 100 100 100 99 100 92 100 100 100 100 100 100 100 100 100 100 100 100
54 73 87 97 100 100 100 100 100 100 100 100 100 100 100 100 100 100 100 100 100 99 99 99 100 100 100 100 79 88 100 100 100 100 100 100 100 100 100 100 100 100 100
28 31 36 38 72 100 100 100 100 100 100 100 100 100 100 95 94 99 100 100 100 100 92 90 86 91 86 88 100 92 89 100 100 92 94 100 100 100 100 100 100 100 90
40 39 33 24 25 29 29 31 42 83 85 84 89 97 82 76 81 86 96 100 95 95 87 77 66 85 100 99 100 97 100 100 100 100 100 100 100 100 100 100 100 100 100
48 47 45 43 36 34 32 27 26 26 29 33 42 66 76 76 71 78 57 56 68 81 96 94 90 84 90 87 99 100 100 98 87 100 100 95 95 100 100 100 100 100 98
57 53 47 43 40 38 33 29 25 19 18 18 21 26 25 23 21 17 16 44 55 42 40 38 42 85 97 97 100 96 100 86 82 100 99 100 87 100 100 92 89 98 100
61 56 53 52 49 43 34 26 19 16 12 10 8 7 9 12 15 16 16 18 20 20 17 14 14 42 46 54 70 80 97 96 86 81 72 95 91 99 95 86 75 71 78
58 57 54 53 52 41 35 24 15 9 7 5 4 3 3 3 3 3 4 6 8 11 14 16 17 18 18 25 27 30 46 67 64 34 26 44 65 74 72 67 59 38 32
54 55 52 46 41 32 26 18 9 5 4 3 3 2 2 2 2 2 2 2 2 3 4 5 8 13 16 18 18 19 22 26 26 24 23 23 24 25 28 24 24 34 36

GFSMW_250_rhum_096.txt.gz
RH
3 4 5 7 9 14 19 16 15 16 19 16 24 15 14 22 28 33 84 100 95 86 83 93 95 68 89 100 100 100 100 100 100 100 100 100 100 100 100 100 100 100 100
3 3 4 6 8 10 15 15 14 12 17 20 19 14 16 18 24 30 57 100 100 100 100 100 100 100 100 87 96 100 100 100 100 100 100 100 99 100 100 100 100 100 88
2 3 4 6 7 9 13 12 13 13 17 17 17 12 18 19 27 40 100 100 100 100 100 100 100 100 100 100 100 100 100 100 100 100 100 93 88 100 96 98 98 100 100
2 3 3 4 6 8 9 11 10 12 12 11 12 13 16 19 23 44 100 100 100 100 85 100 100 100 100 100 100 100 100 100 100 100 100 100 100 100 100 100 100 100 100
2 2 3 3 4 5 7 9 8 10 9 10 12 16 19 20 22 28 68 100 100 100 100 100 100 100 100 100 100 100 100 92 93 100 100 93 100 100 100 100 99 100 100
2 2 3 3 4 4 5 6 7 7 8 10 15 19 21 22 20 25 34 47 92 100 100 100 100 100 100 100 100 100 100 100 100 100 100 100 100 100 70 69 87 100 78
3 3 3 4 4 5 5 6 7 8 10 12 16 21 26 26 24 22 33 48 68 64 82 100 100 100 100 100 100 99 100 100 100 100 100 100 100 100 85 86 100 95 78
4 6 6 6 6 6 6 7 8 10 14 15 18 25 36 32 21 24 32 40 80 98 100 100 100 100 100 100 100 100 100 93 97 100 100 93 100 85 100 100 100 100 100
3 5 7 10 11 10 11 10 11 12 15 20 30 40 52 45 36 36 31 45 98 100 100 100 100 100 100 100 100 100 100 100 100 100 100 98 72 100 100 100 93 100 94
2 3 5 8 13 17 15 17 21 28 40 52 51 45 46 57 46 36 33 69 100 100 100 100 100 100 100 100 100 100 100 100 100 100 100 100 100 81 91 100 100 94 100
3 4 4 5 7 11 16 25 39 47 56 68 70 67 63 58 39 30 46 91 100 100 100 100 100 100 100 100 97 100 100 100 99 100 100 100 100 100 100 98 100 92 97
5 6 6 5 6 7 9 16 24 37 53 68 63 61 99 75 59 69 55 60 100 100 100 100 100 100 100 100 100 100 100 100 100 86 100 92 100 100 100 100 100 100 100
7 7 7 13 12 17 10 16 19 35 66 75 73 100 100 100 100 100 100 95 100 100 100 100 100 100 100 100 100 100 100 100 100 92 99 100 100 84 86 97 100 100 100
25 17 20 16 20 27 38 38 38 54 62 64 74 87 92 100 100 100 100 100 100 100 100 100 100 100 100 100 100 100 100 100 100 100 100 100 100 100 100 100 100 100 100
50 47 22 17 24 44 40 54 64 97 100 100 100 100 100 100 100 100 100 100 100 100 100 100 100 100 100 100 100 100 100 100 100 100 100 100 99 98 99 100 100 95 81
71 70 69 67 68 51 38 62 62 77 63 60 84 94 100 100 100 100 100 100 100 100 100 100 100 100 100 100 100 100 100 100 100 100 100 100 100 100 100 96 81 88 80
49 54 65 83 83 85 91 71 70 78 85 100 90 100 100 100 100 100 100 100 100 100 100 100 100 100 100 100 100 100 100 100 100 100 99 100 100 90 99 100 100 97 100
33 38 45 51 43 49 54 69 85 95 98 97 99 100 100 100 100 100 100 100 100 100 100 100 100 100 100 100 100 100 100 100 100 100 100 100 100 98 100 100 100 100 100
68 69 68 68 66 68 67 66 69 78 82 79 88 99 100 100 100 100 100 100 100 100 100 100 100 100 100 100 100 100 100 100 100 100 100 100 100 100 100 100 100 100 100
62 62 62 58 60 66 64 66 66 66 70 70 65 68 75 85 96 100 100 98 100 100 100 100 100 100 100 100 100 100 100 100 100 100 100 100 100 100 100 100 100 100 100
48 49 51 55 59 61 62 62 59 53 51 53 54 56 58 60 62 65 70 76 77 85 98 100 100 97 97 99 100 100 100 100 100 100 100 100 100 100 100 100 100 100 98
51 50 50 48 49 52 52 52 50 46 45 47 49 51 50 42 39 37 36 36 43 46 51 62 73 80 84 73 74 67 64 71 78 70 87 100 98 100 100 100 100 100 100
45 47 48 50 52 56 54 55 54 54 49 49 53 53 46 40 28 22 19 18 23 24 26 28 25 30 33 33 35 37 38 44 37 46 57 69 74 68 65 95 100 100 100
54 54 58 61 65 60 61 62 61 55 52 51 51 51 43 32 23 12 7 5 4 6 8 10 11 16 15 19 22 24 25 25 25 26 30 38 41 49 57 72 98 99 100
72 70 72 76 73 69 68 67 60 56 53 53 52 42 25 13 6 3 3 2 2 2 2 2 2 2 3 4 5 7 9 12 15 17 19 23 25 25 23 34 56 65 69
77 75 72 78 73 71 69 68 58 53 52 54 44 27 13 5 3 3 3 2 2 2 3 3 3 3 3 3 2 2 3 3 4 5 10 15 16 16 18 20 21 29 35

GFSMW_250_rhum_099.txt.gz
RH
2 2 3 8 13 19 25 29 33 33 18 24 25 23 22 28 44 38 31 23 20 22 24 27 26 43 56 92 100 95 79 100 100 97 100 100 100 100 100 100 100 100 99
2 2 3 4 9 14 17 22 24 27 22 19 19 17 23 36 45 39 35 53 31 23 30 24 37 71 100 100 100 100 100 96 99 100 100 100 100 100 100 100 100 100 100
1 2 2 4 6 9 15 20 22 23 18 16 16 16 24 34 35 29 34 33 50 50 26 31 27 40 91 100 100 100 100 98 100 100 100 100 100 100 100 100 100 100 100
1 2 2 3 4 5 7 9 11 10 11 8 8 9 17 23 33 36 31 28 54 34 40 32 28 46 51 76 100 100 100 100 100 100 100 92 100 100 100 100 100 100 100
1 1 2 2 2 2 3 4 4 5 5 5 6 9 16 25 28 36 34 37 40 39 37 43 38 70 100 100 100 100 100 100 100 100 100 100 100 100 100 100 89 76 80
2 2 2 2 2 3 3 3 4 4 5 6 7 11 19 21 24 30 42 37 32 27 45 50 100 100 100 100 100 100 100 93 100 100 100 100 100 100 99 90 97 100 97
2 2 2 2 2 3 3 4 5 6 6 8 12 17 19 20 34 30 24 30 22 28 68 98 100 100 100 100 100 100 100 100 100 100 100 100 100 99 100 85 99 100 96
2 2 3 3 4 4 4 5 5 6 8 11 15 19 24 26 23 18 19 16 20 32 48 78 100 100 100 100 100 100 100 100 100 92 90 100 100 100 100 100 82 100 100
3 4 5 6 6 6 5 5 6 6 7 8 10 11 12 13 13 12 12 16 30 33 45 83 91 100 100 100 100 100 100 100 100 100 100 100 97 93 100 100 96 96 94
2 3 6 9 11 11 8 7 7 7 7 7 8 9 10 11 12 13 19 29 28 23 44 69 66 64 66 94 99 100 100 100 100 95 97 92 100 76 100 100 94 76 65
2 3 4 6 8 12 15 15 16 15 13 13 13 14 19 14 15 28 37 66 34 32 41 45 53 53 88 100 100 100 100 100 100 100 100 100 100 100 99 97 100 95 87
3 3 3 4 6 9 18 28 31 31 29 32 34 34 32 42 47 67 61 74 75 73 60 53 49 47 64 100 100 100 100 100 100 100 100 100 100 100 100 100 100 100 100
4 4 4 4 5 6 10 18 29 41 55 66 79 89 71 77 86 88 95 99 95 94 74 68 58 60 91 100 100 100 100 100 100 100 100 98 100 100 100 97 100 100 100
29 15 13 19 16 17 12 9 16 24 35 53 73 98 100 96 100 100 100 100 100 100 100 88 93 99 100 100 100 100 100 100 100 100 100 100 100 100 100 100 100 100 100
45 51 65 61 58 58 63 48 26 26 41 61 98 100 100 100 100 100 100 100 100 100 100 100 96 99 100 100 100 100 100 100 100 100 100 100 100 100 100 100 100 100 98
45 49 48 53 64 68 63 70 76 73 66 56 60 66 99 100 100 100 100 100 100 100 100 100 100 100 100 100 100 100 100 100 100 100 100 100 100 100 100 100 98 100 100
45 52 54 55 58 63 60 59 62 66 78 82 82 92 76 96 94 100 100 100 100 100 100 100 100 100 100 100 100 100 100 100 100 100 100 100 100 100 100 100 100 100 98
52 56 58 57 56 56 56 58 61 62 66 73 94 100 100 100 100 99 97 100 100 100 100 100 100 100 100 100 100 100 100 100 100 100 100 100 100 100 100 100 100 100 100
64 65 65 64 64 65 67 67 68 68 71 76 81 79 99 100 100 100 100 100 92 100 100 100 100 100 100 100 100 100 100 100 100 100 100 100 100 100 100 100 100 100 100
72 66 63 65 67 67 63 63 64 67 70 72 73 72 75 80 75 82 85 96 99 100 100 100 100 100 100 100 100 100 100 100 100 100 100 100 100 100 100 100 100 100 100
61 61 62 65 66 65 63 60 61 62 62 63 62 60 60 59 54 55 53 58 62 65 67 74 84 83 84 82 84 90 86 91 100 100 100 100 100 100 100 100 98 100 98
66 67 64 60 58 57 56 56 54 56 57 55 56 54 45 45 45 45 40 38 36 34 42 56 60 58 52 49 48 45 43 53 51 64 81 86 94 100 100 100 100 100 96
52 50 47 44 42 43 43 46 50 51 56 62 66 67 61 53 52 51 47 36 31 26 22 17 14 14 16 22 26 30 31 32 34 39 41 48 53 49 55 78 100 100 100
61 59 55 52 49 49 51 56 58 56 65 59 60 64 58 50 51 50 44 34 25 14 6 3 3 3 3 3 3 4 8 16 23 28 34 40 42 40 48 53 51 57 75
78 76 70 74 74 68 67 67 64 62 61 60 60 65 55 49 49 47 33 19 7 4 3 3 3 3 3 3 3 3 3 3 3 4 10 18 24 28 32 36 37 48 42
76 76 80 74 71 76 69 72 69 69 66 68 60 66 49 48 43 33 22 6 4 3 2 2 2 2 2 2 2 2 3 3 3 4 3 4 4 8 14 21 26 21 26

GFSMW_250_rhum_105.txt.gz
RH
2 2 2 2 3 3 3 3 6 8 10 14 20 15 20 20 22 19 21 22 29 31 39 43 46 41 36 36 40 45 48 35 38 33 32 28 37 51 56 43 46 54 78
2 2 2 2 2 2 2 2 3 4 6 11 13 16 15 14 20 22 20 23 31 30 33 51 52 32 31 36 41 48 53 42 45 32 30 35 37 49 65 52 40 50 52
2 2 2 2 2 2 2 2 2 3 4 7 10 12 14 15 14 16 18 22 26 34 32 45 48 42 42 51 51 52 65 75 53 40 42 36 36 33 41 60 100 95 100
2 2 2 2 2 2 2 2 2 3 3 4 5 9 10 12 13 15 17 20 23 28 31 33 40 49 50 51 50 56 65 72 82 56 51 44 47 26 41 88 100 100 86
2 1 2 1 1 1 1 2 2 3 3 3 3 4 6 12 13 16 19 18 18 27 31 34 40 44 53 50 52 55 59 69 78 59 54 50 56 49 74 100 100 100 100
2 2 2 1 1 2 2 2 2 2 2 3 3 3 4 6 11 15 22 19 18 22 30 33 34 39 46 48 48 55 67 65 54 56 56 65 70 72 58 93 93 100 100
2 2 2 2 2 2 2 2 2 2 2 2 3 3 3 4 6 10 18 25 22 22 28 33 34 36 40 54 54 61 67 70 42 50 45 92 72 72 66 72 90 98 100
2 2 2 2 2 2 2 2 2 2 2 3 4 4 4 5 6 6 12 23 26 26 28 33 33 32 48 64 57 60 66 52 38 29 68 77 80 71 52 52 81 96 93
2 2 3 3 3 3 3 3 3 3 3 3 4 5 6 6 7 8 8 12 22 26 26 30 35 38 48 55 49 54 46 24 19 58 90 64 74 65 61 75 100 100 100
2 2 3 6 4 4 4 4 4 4 4 4 5 6 6 8 9 10 10 10 11 13 18 25 32 34 36 39 37 19 14 24 77 92 70 71 62 52 72 77 100 100 100
2 2 3 5 8 7 5 5 5 5 5 5 5 5 6 7 8 9 10 13 17 21 22 22 25 25 19 13 15 28 60 92 95 83 59 55 68 82 88 100 100 100 100
3 3 3 4 5 10 11 8 6 6 6 6 7 7 7 7 8 9 9 10 10 10 11 12 12 13 18 36 50 64 62 61 55 44 38 71 100 100 100 100 100 100 100
10 6 4 5 6 9 18 20 19 19 14 10 9 9 9 9 10 11 12 13 14 17 19 22 25 27 31 34 37 41 36 35 52 72 77 100 100 100 100 100 100 100 100
23 20 13 12 10 10 11 18 30 40 42 35 25 18 17 15 14 14 14 14 15 16 15 16 20 22 22 30 42 49 86 71 81 100 100 100 100 100 100 100 100 100 100
36 33 33 33 34 28 23 23 24 26 32 50 66 78 75 77 70 60 59 51 43 40 44 48 63 59 55 62 100 91 97 95 99 100 100 100 100 100 100 100 100 100 100
36 36 34 38 40 35 32 35 25 18 15 19 23 28 29 31 56 74 80 100 74 71 72 85 70 72 87 83 84 100 100 100 100 100 100 100 96 100 100 100 100 100 100
42 44 46 48 48 49 49 52 50 47 47 46 49 50 49 52 66 68 68 70 74 81 80 86 89 77 66 81 91 91 97 99 98 97 100 100 100 100 100 100 100 100 100
54 57 59 58 59 60 59 56 54 55 56 58 58 58 60 61 62 63 66 73 76 72 71 72 75 86 74 75 76 77 84 100 95 87 100 100 100 100 98 100 100 100 100
55 55 57 56 59 63 66 66 64 64 65 64 64 66 65 66 69 68 68 68 68 67 67 68 67 67 69 71 73 72 73 63 68 80 100 100 94 100 100 100 100 100 100
61 59 56 58 58 60 61 61 62 64 66 66 67 68 71 74 76 78 82 81 80 82 86 83 85 87 87 84 86 86 86 84 80 87 81 72 70 76 98 92 93 100 100
58 60 62 64 67 67 66 69 70 70 68 68 68 68 68 69 69 70 70 72 66 66 67 66 66 69 67 69 68 65 69 64 68 66 66 66 66 58 62 60 58 67 73
64 62 61 62 63 65 68 66 65 63 62 60 57 56 55 53 53 53 53 53 52 51 48 45 44 43 42 38 38 41 41 42 39 46 56 53 49 44 46 43 42 38 39
66 65 65 65 65 64 63 62 63 63 59 62 66 66 66 66 67 63 56 50 48 50 47 44 39 32 28 23 25 26 26 26 27 26 24 26 32 37 38 32 32 33 34
79 79 78 79 82 81 80 81 79 76 75 66 64 69 73 68 63 58 56 54 47 46 39 32 31 29 27 27 24 19 15 11 10 12 12 9 7 5 4 4 5 6 10
94 93 93 92 94 92 90 88 82 82 79 81 76 70 70 68 71 62 58 59 55 48 44 43 39 28 24 21 20 16 14 14 10 4 3 3 3 3 3 3 3 3 3
79 90 94 99 100 99 91 84 86 82 80 78 77 76 66 70 75 74 70 67 69 46 32 28 27 24 18 15 14 14 8 4 3 3 3 4 4 3 3 3 3 3 3

GFSMW_250_rhum_108.txt.gz
RH
4 3 3 3 2 2 2 3 2 2 5 8 8 10 11 14 15 15 19 22 27 36 32 23 43 39 38 43 49 51 53 43 54 55 49 55 57 54 45 42 47 41 39
3 4 4 3 3 3 2 2 2 2 2 4 6 6 9 9 10 15 12 16 22 28 21 24 23 24 27 40 45 46 49 52 53 48 47 44 53 68 64 48 60 54 46
3 3 3 3 2 2 2 2 2 2 2 2 3 4 6 7 8 9 11 12 14 22 15 30 23 24 25 30 40 42 52 49 43 43 61 56 64 72 71 73 64 64 54
3 3 2 2 2 2 2 2 2 2 2 3 3 4 4 6 8 8 8 10 12 14 15 21 27 24 34 32 30 36 46 43 53 49 55 56 61 68 69 67 70 76 66
3 2 2 2 1 1 2 2 2 2 2 3 3 3 4 4 5 9 9 7 12 14 16 17 25 27 32 32 33 30 38 43 40 51 52 53 61 64 63 60 77 60 55
2 2 2 2 2 2 2 1 2 2 2 2 3 4 3 3 4 4 4 6 10 17 18 21 21 29 26 26 33 38 36 40 40 39 51 53 53 59 58 56 76 82 54
2 2 2 2 2 2 2 2 2 2 2 2 3 2 2 3 4 4 4 4 7 13 21 25 26 32 32 31 29 33 34 35 40 41 39 40 47 52 56 70 80 83 61
2 2 2 2 2 2 2 2 2 2 2 2 3 3 3 3 4 4 4 4 5 7 10 17 23 32 43 43 38 38 42 36 42 47 46 40 42 43 66 79 86 84 49
3 2 2 2 3 4 3 3 2 3 3 3 3 3 4 4 4 6 6 6 7 8 8 8 12 24 39 38 45 54 58 39 36 38 49 47 46 52 64 75 77 66 48
3 3 2 3 4 5 4 3 3 3 3 3 4 4 4 4 4 4 5 6 7 8 8 8 9 12 19 30 38 40 46 49 44 43 41 43 49 57 53 66 50 54 72
4 3 3 4 6 8 8 5 4 4 4 4 4 4 4 5 5 5 5 6 8 9 9 8 9 10 11 13 18 29 43 51 46 42 39 41 45 47 42 35 35 81 100
8 5 4 4 4 8 13 13 8 7 6 6 6 6 6 6 7 7 7 8 8 9 10 10 10 11 11 12 12 14 17 21 24 31 37 39 33 38 42 66 99 100 100
14 10 10 6 5 6 13 17 20 19 12 9 8 8 8 8 9 10 10 10 11 12 13 13 14 16 19 20 21 22 25 28 30 28 29 30 41 74 89 90 95 100 100
27 26 23 15 11 8 7 9 19 24 26 26 21 15 13 11 10 11 12 12 12 13 13 14 14 15 15 15 16 17 18 21 32 40 53 57 58 69 85 72 66 73 73
34 37 41 39 35 33 26 21 15 15 19 33 44 46 42 34 29 22 19 16 15 16 16 16 16 17 19 21 22 22 21 23 23 25 40 33 38 66 62 66 65 80 90
45 42 40 40 40 43 43 46 50 46 40 39 42 49 53 51 53 56 63 63 60 62 53 43 51 52 50 48 57 59 59 74 82 73 65 81 81 94 100 88 100 100 100
41 37 35 36 40 42 42 42 45 47 48 45 43 41 38 40 45 49 50 61 73 78 77 58 51 52 54 64 76 79 86 92 92 82 79 87 100 100 100 100 100 100 100
58 55 52 49 46 43 41 42 44 46 48 51 54 56 56 54 56 58 58 60 63 66 64 65 62 64 59 59 65 79 88 84 79 84 88 87 90 89 87 86 96 96 100
76 75 70 65 59 54 52 47 46 46 45 46 49 50 53 55 57 57 57 57 59 60 63 65 66 67 69 65 65 65 65 66 68 72 77 82 84 77 77 87 100 100 100
70 74 80 81 78 80 76 70 68 66 66 69 69 66 62 58 57 59 61 64 69 72 75 75 80 80 80 80 78 82 85 81 78 74 76 75 69 69 71 67 63 66 75
63 65 72 79 80 82 80 76 71 68 67 66 68 67 67 68 69 69 69 70 70 72 72 71 71 71 72 72 73 68 66 70 73 74 70 75 76 78 83 80 73 72 66
79 80 71 69 76 82 86 86 85 85 83 79 71 65 62 62 63 66 70 72 73 72 70 68 68 66 64 65 63 59 58 56 54 54 50 50 52 53 56 61 66 66 70
20 21 36 60 70 71 70 71 75 78 81 83 84 84 81 76 68 62 62 61 57 58 57 54 52 54 53 50 49 46 44 42 38 34 32 30 30 30 29 28 30 37 48
31 21 18 15 16 22 36 53 62 70 74 74 75 78 72 68 66 65 62 60 59 48 38 37 39 39 33 31 32 26 20 18 12 12 13 12 13 12 12 13 14 13 13
74 55 30 21 17 15 13 14 19 26 39 54 56 58 61 64 65 66 70 65 48 40 46 59 45 37 25 21 15 11 10 10 10 11 11 10 8 11 12 12 11 10 8
42 55 58 39 23 17 15 14 12 10 10 11 15 14 15 24 36 38 29 27 44 42 23 12 9 9 8 8 8 8 9 9 8 9 11 12 10 5 4 3 3 3 3

GFSMW_250_rhum_111.txt.gz
RH
9 8 7 6 6 4 4 4 4 4 3 3 4 6 7 7 8 9 9 11 14 24 22 28 35 60 50 46 56 47 46 92 93 79 95 100 93 88 82 69 66 61 52
11 8 7 5 4 3 3 3 3 3 3 2 2 3 4 5 7 9 8 7 8 11 17 20 28 33 50 29 32 32 41 42 56 66 55 62 62 60 60 54 63 67 55
9 6 5 4 4 4 3 3 3 3 2 2 2 2 3 4 4 6 7 8 8 10 16 16 17 24 41 30 26 22 26 36 46 59 52 46 56 60 60 57 61 62 59
6 4 4 4 3 3 2 2 2 2 2 2 2 3 3 3 4 5 6 6 7 8 12 18 16 23 51 26 25 18 20 28 39 57 68 53 43 47 54 57 59 60 71
4 4 4 3 3 2 2 2 2 2 2 2 2 2 2 2 4 5 5 5 6 7 11 18 24 26 40 38 29 15 18 27 26 26 37 39 35 32 48 55 54 52 57
4 4 4 3 3 2 2 2 2 2 2 2 2 2 3 3 4 5 5 4 4 5 6 10 17 14 22 29 36 33 19 22 26 36 31 30 38 38 35 36 50 49 48
5 4 3 3 3 2 2 2 2 2 2 2 2 2 2 3 4 5 4 3 3 4 4 6 9 12 18 26 29 40 39 45 29 29 41 44 47 47 37 31 35 37 46
5 4 3 3 3 2 2 2 2 3 2 2 2 2 3 3 3 4 2 2 3 4 5 5 6 7 11 19 31 42 39 40 42 37 38 39 46 49 50 46 40 39 43
4 4 4 3 3 4 4 4 4 3 3 3 3 3 3 4 4 4 3 5 6 5 5 6 6 6 7 9 16 27 40 37 39 41 44 44 55 61 52 49 51 52 47
8 5 4 4 4 6 6 6 5 4 3 3 4 4 4 4 4 5 5 5 6 7 7 7 6 6 8 8 9 10 15 30 43 48 48 49 51 50 54 64 58 60 53
16 14 10 6 6 7 10 9 6 5 5 4 4 4 4 4 4 4 4 5 5 6 6 7 7 8 9 9 10 11 11 13 15 21 27 32 36 45 53 60 59 63 69
22 18 16 18 14 8 9 11 12 8 8 6 7 7 7 7 7 7 6 6 5 5 5 6 6 8 10 11 11 11 11 12 12 13 13 12 13 19 26 36 45 41 58
39 38 35 25 19 18 15 12 15 18 16 11 9 10 10 11 11 12 12 12 11 9 8 8 8 9 9 10 10 11 12 13 14 14 14 14 14 15 14 15 20 25 28
51 50 48 44 38 32 24 20 17 18 23 25 20 15 11 10 11 11 12 13 13 13 13 13 13 13 13 13 13 14 14 15 16 16 17 17 19 22 24 27 29 31 34
57 57 57 56 55 50 46 44 36 27 23 19 28 36 36 34 28 22 17 15 16 15 15 15 15 15 16 16 17 18 18 20 20 21 21 21 21 22 27 28 33 60 68
51 56 62 63 60 59 57 56 54 53 52 48 40 35 42 55 57 55 59 59 55 52 47 44 36 26 24 22 22 22 21 20 20 20 23 25 30 35 37 62 69 74 66
57 54 52 53 52 55 58 58 56 54 53 54 54 53 51 50 48 49 50 57 50 55 60 62 65 64 62 69 69 73 67 70 71 67 64 67 62 70 67 82 89 98 100
67 64 57 56 55 57 56 50 48 51 56 58 54 51 49 49 50 51 50 49 48 47 49 57 60 60 72 84 82 72 74 69 73 79 93 99 96 98 100 100 100 98 97
24 34 52 58 52 52 56 62 67 68 65 60 57 61 61 56 51 48 49 50 51 51 52 56 59 61 61 62 63 64 66 68 71 71 67 64 68 72 71 76 75 80 86
63 46 33 28 30 47 60 58 56 58 62 69 76 77 74 72 68 66 68 67 66 64 64 62 60 58 58 58 58 57 59 62 63 66 63 62 60 58 57 60 60 58 61
54 54 67 73 63 39 25 23 39 56 62 67 68 68 68 68 73 74 76 76 73 70 71 70 72 79 85 83 81 84 82 76 76 73 68 64 60 58 58 57 57 61 68
68 69 58 46 46 55 56 47 29 18 16 22 38 50 59 61 63 62 64 63 63 65 70 74 77 77 75 73 77 75 71 69 69 71 70 70 71 70 70 69 65 60 59
56 57 60 60 46 38 40 50 53 40 25 18 14 12 13 19 34 39 44 51 51 48 48 51 54 56 56 55 53 54 53 51 50 51 52 51 50 49 47 46 47 49 46
45 45 42 49 38 30 29 34 40 42 36 23 13 12 12 11 9 9 9 10 16 28 38 46 56 58 53 47 43 38 32 35 36 31 32 34 34 34 29 22 18 16 13
58 42 37 36 36 28 22 19 19 18 16 16 14 11 10 9 9 8 7 6 6 7 8 10 12 16 21 21 20 19 17 11 9 9 9 7 6 6 6 6 6 6 7
61 52 43 35 31 35 26 17 14 12 11 11 10 9 9 8 7 6 6 6 6 6 6 6 7 6 7 7 7 6 6 6 6 5 5 5 5 5 6 6 6 6 6

GFSMW_250_rhum_114.txt.gz
RH
11 11 11 11 10 9 8 7 6 5 5 4 4 4 4 4 5 7 8 12 10 11 10 13 19 28 34 26 36 64 48 75 76 67 95 100 94 95 86 100 99 100 100
11 10 10 9 8 6 5 5 5 5 4 4 4 4 4 4 3 4 4 5 7 7 8 10 12 15 23 32 32 38 53 39 55 56 54 82 92 90 70 72 100 83 83
20 13 9 7 5 5 5 5 5 5 4 4 4 3 3 3 3 3 3 4 5 7 9 11 11 12 15 21 37 38 52 74 31 41 37 54 72 77 74 54 74 84 78
16 12 8 6 6 5 4 4 3 3 3 2 2 2 2 2 2 2 3 3 4 5 7 14 7 10 16 19 21 32 48 73 66 44 28 37 47 62 49 67 65 68 90
14 8 6 6 5 5 4 3 2 2 2 2 2 2 2 2 2 2 3 3 4 7 7 9 6 8 13 17 20 22 26 36 43 58 44 40 30 32 32 43 70 67 71
10 8 6 5 5 4 3 2 2 2 2 2 2 2 2 2 2 2 2 3 4 6 12 7 7 7 6 8 16 20 24 30 40 41 55 37 20 23 22 25 35 47 66
10 10 7 4 4 3 3 3 3 2 2 2 2 2 2 2 2 2 2 3 4 7 7 8 6 6 6 5 7 10 18 28 34 49 63 43 34 34 27 24 34 38 40
17 11 7 5 4 4 3 4 4 4 3 3 3 3 3 3 2 2 3 4 4 5 6 6 4 5 5 5 5 6 8 14 26 41 52 53 42 44 40 32 31 39 34
20 20 14 14 9 4 4 4 7 7 5 4 3 4 3 4 4 3 3 4 4 4 4 3 3 4 5 6 6 6 7 8 11 19 32 50 52 52 48 47 42 48 43
33 33 32 26 21 13 7 8 8 11 7 6 5 4 4 4 4 5 7 6 6 6 5 6 7 8 11 10 8 7 7 8 8 10 16 27 40 43 42 57 62 63 56
40 40 39 36 34 29 18 10 10 13 13 7 7 6 6 7 7 6 7 7 8 10 13 12 11 9 9 9 8 8 8 8 8 8 9 10 12 14 16 21 28 37 46
39 36 36 35 34 34 34 29 18 11 14 16 13 9 7 6 6 8 8 7 7 8 7 7 7 6 6 6 7 8 8 9 9 10 12 12 12 13 14 15 18 15 16
55 50 49 45 40 39 36 32 34 36 26 18 20 28 19 11 8 8 8 10 12 12 13 14 12 10 9 8 8 9 9 10 11 12 12 12 11 11 11 12 13 14 14
62 62 63 63 63 62 54 46 42 38 37 38 36 24 21 32 37 20 12 10 10 10 11 11 10 10 10 10 8 8 9 10 11 12 12 13 13 14 15 15 16 16 17
62 68 70 70 69 67 64 62 62 57 52 49 47 46 46 42 32 28 37 45 44 34 18 13 12 11 10 10 12 12 12 10 10 11 12 13 13 14 15 16 17 17 16
32 27 24 24 30 45 62 68 66 65 66 64 60 58 53 49 49 48 48 43 38 34 38 46 49 53 46 22 16 14 14 15 16 17 17 18 19 19 20 22 25 25 25
54 50 46 45 45 38 27 21 25 40 54 62 64 64 67 65 62 57 52 49 52 53 48 48 47 42 49 49 55 59 51 34 30 29 28 28 27 28 32 30 30 33 30
54 56 55 50 43 38 36 41 43 38 27 21 22 32 46 56 59 60 62 63 59 56 56 56 55 54 52 53 57 52 55 61 62 70 75 76 68 65 71 71 71 69 66
53 52 57 61 54 48 48 41 33 32 36 40 37 28 18 16 22 35 48 53 53 52 51 52 51 53 54 54 53 54 55 56 60 67 72 64 60 56 60 66 74 72 74
74 68 61 54 58 65 65 60 48 33 29 30 32 40 44 39 28 19 16 17 28 36 44 46 49 51 49 49 52 55 56 56 55 55 57 57 57 63 65 58 60 59 62
71 88 80 70 51 45 48 57 47 34 29 24 21 22 25 29 33 32 23 16 14 13 13 21 31 36 43 46 46 46 48 47 50 53 55 54 53 53 56 56 55 54 55
49 67 82 80 77 54 43 34 29 30 32 28 23 18 15 13 11 11 12 16 16 11 10 11 10 11 15 26 36 41 46 49 51 54 52 53 53 50 49 50 50 50 48
54 51 64 74 77 74 59 38 30 26 24 24 25 23 17 14 12 10 8 8 9 9 10 9 10 10 10 9 10 14 23 35 48 52 55 60 58 56 56 56 57 58 57
48 50 60 66 73 72 68 58 34 26 23 22 21 20 16 12 10 9 8 7 7 7 8 8 8 8 9 8 8 8 9 11 14 16 21 26 30 31 33 34 32 30 33
59 48 51 65 74 71 76 70 53 32 21 20 19 17 13 10 8 7 6 5 5 5 5 5 6 6 6 6 6 6 6 6 6 6 7 7 7 7 7 7 8 9 9
66 58 56 62 70 72 72 77 63 45 22 19 17 16 12 8 7 5 4 4 4 4 4 4 5 4 5 6 6 6 5 5 4 5 4 4 4 4 4 4 4 4 4

GFSMW_250_rhum_117.txt.gz
RH
44 40 31 26 17 12 10 10 9 9 9 7 6 5 6 6 6 6 6 8 9 10 12 13 15 17 19 23 24 21 34 41 50 53 72 84 90 84 88 88 90 100 100
11 10 10 9 10 9 8 8 7 7 6 6 6 6 5 5 5 4 4 4 4 4 5 5 6 9 11 15 20 20 25 32 38 45 47 57 80 90 76 71 90 80 77
12 14 13 10 10 9 7 6 6 6 5 5 4 4 4 3 3 3 3 3 4 4 4 5 4 5 5 6 10 18 29 26 36 44 37 52 73 52 61 83 81 86 73
16 15 14 13 11 9 7 6 6 4 4 3 3 3 2 2 2 2 2 2 2 3 4 4 5 5 6 6 7 7 14 25 35 35 54 55 54 85 49 46 57 57 56
18 15 14 14 10 8 7 6 5 3 3 3 2 2 2 2 2 2 2 2 2 2 2 3 5 6 7 12 9 7 7 7 12 30 32 37 46 87 56 49 54 42 44
13 14 13 12 13 10 6 4 4 3 4 4 3 2 2 2 2 2 2 2 2 2 2 3 4 11 24 26 13 8 7 6 7 15 30 33 43 49 52 44 50 40 43
18 20 18 19 16 13 9 5 4 5 5 4 4 4 3 2 2 2 2 2 2 2 2 3 4 7 24 34 32 11 10 6 7 10 20 33 43 44 45 46 54 37 33
31 37 39 34 30 27 21 14 9 5 4 6 5 5 4 4 4 3 3 3 3 3 2 3 5 10 15 18 21 38 29 8 6 6 8 12 17 27 39 48 64 63 57
35 36 35 33 32 31 29 26 23 15 11 9 7 6 5 4 4 4 4 4 4 4 4 4 4 6 11 20 19 21 15 8 6 7 7 7 8 9 11 18 39 57 67
44 44 42 41 36 33 29 28 24 22 18 12 12 9 9 6 5 5 5 5 6 6 6 5 5 6 7 6 8 6 6 6 6 7 8 8 8 8 8 9 13 20 37
33 33 33 35 33 32 33 30 27 26 27 27 21 17 18 16 12 9 7 8 8 8 10 9 8 8 6 6 6 8 16 25 28 34 36 24 14 11 9 9 9 10 14
26 25 24 24 23 24 28 31 34 32 29 29 28 28 26 26 28 27 19 12 9 20 17 12 18 12 16 20 16 35 28 22 20 15 11 9 11 10 9 9 8 9 9
53 53 49 44 38 31 23 18 17 19 26 32 32 30 28 29 31 31 34 36 23 17 18 18 16 19 38 48 45 36 22 13 12 10 10 12 10 9 9 8 9 9 9
48 52 57 55 50 47 45 44 40 31 22 17 19 30 36 35 32 31 31 32 33 42 35 29 23 17 17 17 15 15 14 12 9 8 7 8 9 9 9 10 10 11 11
51 46 44 51 54 53 51 48 44 41 42 43 42 33 19 17 24 35 37 36 34 33 33 32 36 45 49 36 29 19 17 17 16 15 12 8 8 9 10 12 13 13 13
68 67 66 54 48 46 48 44 44 47 45 37 32 32 41 46 44 28 16 19 32 38 39 37 37 41 36 31 37 46 41 37 31 16 14 16 17 14 11 10 10 12 13
44 50 76 80 82 70 49 41 43 44 44 40 32 26 25 26 28 38 47 47 35 21 17 24 34 37 36 36 36 34 29 31 35 41 43 35 22 18 18 20 18 18 17
55 50 48 59 74 80 84 80 60 49 43 39 34 30 24 21 19 18 19 23 30 36 39 32 22 18 24 34 35 35 36 38 41 43 45 44 37 40 42 31 21 19 19
61 58 63 48 49 59 72 73 76 81 59 43 39 34 31 30 29 26 20 17 14 14 14 16 21 27 22 19 21 33 39 38 35 36 35 34 38 39 41 50 52 51 47
62 62 64 71 63 55 61 68 75 71 74 61 38 31 25 25 22 21 21 21 18 14 12 10 10 9 10 17 19 16 20 26 35 40 44 47 49 45 40 39 46 50 53
80 78 79 74 75 76 62 66 74 76 68 62 53 40 22 20 19 17 16 15 14 12 10 9 8 8 8 8 9 13 14 14 17 22 26 33 39 44 45 44 46 48 52
88 77 75 75 76 71 69 68 69 72 68 62 52 45 27 18 15 14 13 11 10 8 8 7 6 6 6 7 8 8 9 10 11 12 13 15 17 24 32 40 47 48 48
93 89 80 84 78 72 67 63 71 72 71 68 59 48 35 23 16 14 13 10 9 7 6 5 4 4 4 5 5 6 7 8 9 10 11 11 11 12 12 13 17 24 31
66 79 83 85 86 79 71 66 68 73 78 74 63 58 41 31 18 13 12 10 8 6 5 4 5 5 5 4 4 5 5 5 6 7 8 8 8 8 7 7 7 7 7
57 56 66 78 70 79 77 68 66 71 81 72 69 66 59 35 19 13 12 10 7 7 6 6 6 6 5 6 6 5 5 5 4 5 4 4 4 4 4 5 5 5 4
68 57 56 68 72 74 79 72 65 72 79 78 72 63 64 44 25 15 13 11 8 7 7 6 6 6 6 6 6 7 7 6 6 6 5 5 5 4 4 4 4 4 5

GFSMW_250_rhum_123.txt.gz
RH
66 68 63 59 55 58 59 48 22 16 20 14 9 9 8 7 6 6 6 6 6 5 5 4 4 5 5 6 6 6 6 5 6 8 13 24 30 32 37 37 45 50 50
70 66 58 46 39 32 22 17 14 13 13 14 14 12 10 8 7 6 5 5 4 4 4 4 4 4 4 5 5 6 7 7 6 7 7 8 12 10 11 28 32 50 70
23 19 16 16 14 16 20 20 21 24 21 18 16 11 9 8 8 6 4 3 3 2 3 3 3 3 3 3 4 4 5 6 7 7 7 7 9 10 9 12 22 38 66
16 20 24 25 25 25 24 23 21 19 16 13 11 14 16 16 13 10 7 4 3 3 2 2 2 2 2 2 3 3 4 5 6 7 8 8 9 9 11 14 16 18 52
35 34 31 27 24 22 17 14 12 11 12 17 28 30 28 24 21 14 8 6 5 4 3 3 3 2 2 2 3 3 3 4 5 6 8 9 10 11 11 13 16 19 27
30 28 24 18 13 12 12 13 17 24 34 34 31 26 21 20 20 19 13 8 7 5 4 3 3 3 2 2 2 2 3 3 4 6 8 10 11 12 9 10 14 18 20
14 12 13 16 23 31 36 39 39 36 32 28 24 22 21 19 18 18 16 10 10 6 6 5 4 4 3 2 2 3 2 3 4 5 7 12 10 13 10 11 11 12 19
33 39 41 42 40 40 38 33 26 22 23 22 20 18 14 13 15 16 17 16 10 10 7 6 5 4 4 4 3 3 3 3 4 5 8 7 15 18 20 15 15 15 10
31 31 33 35 39 42 43 42 39 36 34 32 30 28 26 23 20 14 13 16 18 14 12 8 6 5 4 4 4 4 3 4 4 6 7 10 12 14 55 46 15 11 10
39 43 47 48 48 47 46 44 43 38 33 28 25 24 24 24 23 22 21 18 15 18 18 13 10 6 6 5 5 5 5 4 4 5 7 37 45 39 41 38 23 12 9
41 44 46 46 43 43 44 44 43 43 43 43 41 36 31 25 20 19 19 20 20 20 19 18 19 15 11 9 8 11 10 8 10 18 48 37 42 35 38 40 28 20 15
45 43 42 46 52 54 55 54 52 51 51 46 41 37 34 32 30 23 20 18 17 18 18 19 20 19 21 16 17 20 28 35 30 18 16 18 41 46 29 21 15 16 15
50 51 49 50 47 46 46 47 49 52 56 58 54 51 49 46 40 34 29 26 27 22 18 18 20 20 24 22 21 27 32 32 45 45 46 52 45 25 22 15 18 33 40
42 47 50 49 48 48 49 49 47 47 49 56 60 60 57 55 55 49 45 43 37 31 24 18 18 18 20 22 24 27 25 28 33 31 30 35 50 54 58 54 60 69 73
49 60 68 69 67 61 54 49 46 46 44 45 55 62 60 59 57 56 53 48 45 40 36 33 23 17 16 16 18 22 22 19 24 23 25 36 33 31 38 42 46 46 47
88 95 93 89 81 71 65 60 59 55 49 46 48 53 59 60 61 62 59 54 49 45 42 38 32 28 22 18 15 13 13 15 18 18 18 23 22 24 26 26 21 20 18
74 71 72 72 73 75 81 71 62 59 56 48 47 51 65 71 65 60 58 60 51 42 40 36 32 28 26 21 16 14 14 12 10 11 13 15 16 18 20 20 20 24 25
80 71 81 76 85 65 63 72 75 75 66 60 53 54 61 69 71 65 62 60 54 46 37 35 30 24 22 23 17 13 12 10 10 10 9 9 10 12 12 12 15 17 16
88 92 88 77 76 68 84 71 73 78 80 75 80 77 74 65 66 62 62 60 60 58 52 37 29 24 18 18 14 12 10 10 9 8 7 7 7 8 8 10 11 11 10
85 83 70 63 59 60 62 76 81 81 85 87 90 82 81 78 76 68 57 65 55 55 53 40 32 27 20 19 14 11 10 10 8 7 6 6 6 6 6 6 7 8 9
64 62 64 59 62 67 63 75 76 82 80 91 94 91 87 72 83 82 70 64 55 49 50 42 31 30 24 21 15 12 10 9 6 6 5 5 5 5 5 5 6 6 7
62 60 74 80 64 72 80 86 86 88 80 83 99 93 88 90 79 86 78 65 55 50 50 45 37 30 29 21 15 12 11 9 7 6 6 5 5 5 5 6 6 5 5
50 48 54 68 71 72 91 96 97 98 91 96 90 85 90 97 83 80 82 64 58 58 54 48 45 31 34 23 16 12 11 9 8 7 6 5 4 4 4 4 5 6 6
61 63 69 76 86 93 96 86 100 99 100 81 77 70 75 86 86 65 83 70 64 63 58 53 49 35 38 27 16 13 11 9 8 7 6 5 5 4 5 4 4 4 5
82 100 99 91 97 94 80 72 83 86 97 100 88 76 74 74 82 70 77 73 66 67 63 56 50 40 41 30 16 13 11 9 8 7 6 5 4 4 5 6 6 5 5
79 95 98 100 100 99 96 83 85 82 87 97 89 75 62 69 78 72 75 78 71 72 67 56 50 44 47 37 19 13 11 9 8 7 5 5 6 7 8 9 8 8 8

GFSMW_250_rhum_126.txt.gz
RH
85 84 82 75 62 53 45 23 21 23 21 19 16 13 13 11 13 16 16 16 13 8 6 6 6 5 4 4 4 4 4 4 6 6 6 8 10 11 23 30 28 28 32
54 47 47 46 27 17 13 15 15 13 13 15 16 18 18 17 15 13 12 12 12 10 7 9 6 4 3 3 3 3 3 4 4 4 5 6 6 6 10 17 19 20 23
16 16 15 14 14 15 18 23 24 24 23 21 19 17 14 12 14 18 22 23 23 20 18 14 11 4 2 2 2 2 2 3 3 4 4 5 6 7 8 9 12 13 14
14 14 15 18 24 26 25 23 22 20 15 13 14 19 25 26 24 26 27 26 26 23 19 16 13 7 4 3 4 2 2 2 3 3 4 4 5 7 8 8 9 10 15
27 27 26 26 26 22 16 14 13 15 23 30 34 36 34 34 31 26 23 20 20 20 18 18 14 8 4 3 4 3 2 2 2 2 3 4 5 6 7 10 10 13 17
25 24 20 16 16 20 28 32 30 29 34 34 34 33 32 30 28 24 22 18 14 13 14 15 14 11 5 4 4 4 4 3 3 3 3 3 4 6 7 8 10 15 15
17 19 25 31 31 29 31 33 36 37 37 38 36 33 30 28 27 26 23 21 19 16 14 12 12 12 11 6 4 4 4 4 3 3 3 4 4 5 7 8 11 13 13
29 30 34 36 37 38 41 45 48 48 46 46 45 42 39 33 29 26 23 20 18 17 15 13 11 10 10 10 6 5 4 4 4 3 4 4 4 5 6 7 10 16 14
38 37 37 36 37 39 40 39 38 38 38 37 37 36 34 32 34 35 34 31 26 20 17 15 13 12 10 8 10 8 6 5 4 4 3 4 4 4 4 7 9 18 21
39 39 40 41 42 44 44 44 43 42 41 39 36 35 35 33 31 29 26 26 27 26 25 23 20 16 13 11 9 11 11 7 6 5 5 5 5 5 5 6 8 11 14
40 50 63 68 63 58 53 48 44 40 41 41 38 33 34 37 39 37 33 29 28 26 24 22 22 23 19 17 14 12 12 16 15 13 9 7 6 5 6 6 10 14 25
74 83 74 62 53 49 41 40 46 46 44 45 48 49 42 39 43 47 50 42 37 35 34 31 27 24 21 23 20 17 14 14 16 20 20 18 22 22 11 9 7 7 13
58 59 58 61 60 64 58 61 58 56 58 56 56 55 54 52 49 50 53 57 51 41 39 39 35 31 31 30 26 24 20 16 15 15 16 21 22 24 26 29 19 14 16
73 82 92 74 64 75 70 65 62 74 65 77 77 80 72 60 58 57 59 69 62 58 50 42 42 39 33 30 31 30 34 27 19 16 15 15 17 19 20 24 30 36 38
80 77 71 75 83 82 75 71 67 65 75 88 81 90 96 87 78 71 62 54 68 73 67 60 50 42 40 37 30 29 26 25 26 22 16 14 14 14 16 16 18 22 27
69 66 66 69 69 57 59 64 57 56 65 66 72 74 73 91 95 98 92 76 63 61 72 73 62 57 47 41 37 30 26 24 21 23 20 16 13 12 12 12 12 14 17
58 58 61 57 54 53 48 45 45 47 67 73 81 80 86 80 86 94 96 83 80 74 66 67 64 56 59 47 38 33 26 22 21 20 16 14 13 11 11 10 10 10 10
57 60 57 66 65 54 51 46 55 70 91 93 98 98 99 96 87 82 88 92 83 78 75 63 62 58 52 48 38 33 27 21 19 16 13 12 11 10 10 10 10 9 9
66 86 93 81 74 62 61 60 66 88 94 98 100 100 100 98 98 100 88 75 78 80 80 65 61 60 53 48 38 31 27 21 20 17 14 11 10 10 10 9 8 8 7
100 100 94 78 79 76 78 85 95 89 80 90 93 99 100 97 97 74 83 82 68 60 77 74 60 57 55 53 45 33 27 22 23 17 13 11 10 9 8 7 7 6 5
77 87 99 82 72 91 92 92 97 100 100 96 100 98 100 90 83 100 94 81 80 63 58 72 64 59 56 49 48 34 27 22 23 17 13 11 10 8 7 6 6 6 5
86 100 87 79 99 100 100 99 88 93 100 100 97 99 98 96 84 81 90 84 69 70 60 66 62 62 52 50 50 40 29 23 24 19 13 11 9 8 6 6 5 5 5
94 93 100 100 96 100 99 99 100 100 100 100 100 100 100 89 89 68 75 87 67 63 56 66 64 55 54 49 48 41 29 25 23 19 13 11 9 6 5 5 5 4 4
99 87 83 94 100 95 98 99 100 100 100 94 94 84 74 80 83 56 72 75 68 70 64 69 66 55 54 49 42 33 28 25 24 21 14 12 9 7 6 5 4 4 4
95 100 99 100 100 100 99 95 91 100 96 91 60 55 55 54 69 51 54 56 73 78 61 67 68 60 55 49 40 33 30 24 24 20 14 11 8 6 5 5 6 8 8
95 86 90 84 98 99 98 94 97 97 89 72 58 37 32 42 48 50 54 48 73 78 59 73 72 59 58 53 39 31 30 27 26 20 14 12 8 5 5 8 8 7 6

GFSMW_250_rhum_129.txt.gz
RH
79 68 55 55 57 54 61 56 40 22 16 15 14 15 20 23 25 23 21 17 13 11 9 9 8 10 12 14 14 10 9 11 9 5 4 4 4 5 5 5 7 20 32
34 33 25 17 18 21 20 18 17 16 17 22 26 24 21 19 16 13 10 10 13 16 20 22 21 19 16 13 11 9 8 10 6 3 3 3 4 4 5 6 6 9 28
13 13 16 21 22 22 24 25 29 32 30 24 20 15 12 13 18 24 25 25 24 21 17 15 14 13 11 10 12 11 11 11 6 3 3 2 2 3 4 4 6 8 13
21 23 26 28 29 29 30 30 27 22 17 15 22 29 28 25 25 26 26 25 25 23 21 20 18 16 13 10 10 9 11 10 4 3 3 3 3 3 3 4 6 7 9
21 26 29 26 24 21 18 17 22 31 34 28 27 30 33 35 36 36 36 33 30 27 24 23 20 18 17 15 12 11 10 9 5 4 3 3 3 3 3 3 5 7 8
21 23 19 20 25 32 35 34 32 33 36 39 40 41 42 41 41 40 40 43 43 40 34 26 20 18 16 14 12 12 11 10 8 4 4 4 4 4 3 4 4 7 9
25 33 34 35 37 39 39 38 39 40 40 41 40 37 35 36 37 39 39 36 34 32 30 29 28 27 23 17 13 11 10 10 8 5 4 4 4 4 5 5 5 6 8
37 37 39 41 39 37 39 37 34 35 37 38 36 35 36 37 34 32 30 27 26 27 27 28 29 27 23 21 16 12 10 10 11 9 5 5 5 5 6 6 7 7 7
49 44 38 36 34 31 31 34 40 46 46 45 42 39 36 33 31 30 32 30 28 28 28 29 28 28 27 25 21 17 12 10 10 10 10 7 5 5 7 8 8 9 8
29 27 28 28 28 34 43 42 45 45 42 39 41 42 46 44 40 38 40 38 37 33 32 31 31 30 30 29 27 24 20 15 11 10 10 12 14 11 7 6 8 11 10
35 35 39 38 41 44 47 47 46 47 49 52 56 59 58 62 60 60 58 52 45 42 41 38 36 36 36 36 35 31 31 25 19 14 12 11 11 13 13 13 9 8 9
48 47 43 48 51 52 51 52 49 45 44 41 45 58 66 66 75 78 74 67 60 56 53 46 42 37 37 40 41 40 32 33 33 26 20 16 14 12 12 14 15 18 20
56 54 53 56 50 54 58 54 52 47 45 41 54 76 75 86 100 94 96 78 74 74 66 54 49 43 39 39 42 42 40 36 31 31 27 23 18 16 14 13 13 14 16
57 71 83 64 55 67 62 64 57 54 52 53 58 65 64 77 87 88 93 93 88 81 74 72 67 54 44 37 35 46 44 37 37 32 31 29 25 20 17 16 16 14 13
63 77 93 87 89 80 80 74 66 64 70 70 78 90 83 82 90 97 100 100 100 94 90 89 78 65 56 43 37 37 41 39 37 36 32 31 30 26 22 18 15 13 13
62 59 84 88 99 79 78 86 69 63 73 76 76 81 76 72 86 80 74 79 86 85 79 79 73 69 75 52 39 36 41 42 41 37 35 28 25 30 26 22 16 12 11
55 54 60 70 67 77 96 87 92 86 77 92 97 95 99 91 90 97 96 95 90 91 89 86 78 73 66 62 58 44 42 36 42 41 34 26 22 23 26 22 16 14 12
71 71 67 69 76 82 98 90 95 100 94 95 98 100 100 97 100 100 99 97 86 88 78 77 80 76 70 56 54 45 43 41 39 40 36 26 21 20 22 20 14 12 11
99 74 63 73 87 89 97 91 90 88 90 87 91 99 99 100 98 99 99 98 98 90 81 63 76 75 69 61 58 48 48 46 41 41 38 28 23 19 22 22 16 11 10
69 77 74 73 85 95 86 99 100 98 91 93 92 99 99 100 89 94 98 100 100 70 71 63 64 63 58 52 47 47 46 50 41 39 36 26 22 18 18 18 13 10 9
99 100 99 100 100 94 86 80 81 75 89 78 88 85 90 85 80 98 100 96 98 95 75 48 58 77 69 54 46 46 42 54 42 42 38 26 20 18 16 16 13 10 8
100 97 67 81 70 77 85 93 99 93 99 92 84 84 88 96 99 100 100 92 89 66 40 40 46 57 60 57 51 50 41 52 48 43 39 25 20 19 16 15 11 9 7
99 100 100 90 74 79 93 100 100 100 100 100 93 93 98 99 100 98 86 68 48 23 26 32 40 47 52 55 47 50 40 55 43 46 43 25 22 19 16 13 11 9 7
100 74 80 100 99 81 96 91 96 91 87 89 95 96 98 98 95 91 78 49 25 20 24 30 34 39 48 48 47 47 41 49 43 47 42 25 22 20 18 13 10 8 6
77 93 100 90 98 100 100 96 90 81 92 97 96 96 96 88 67 49 31 32 18 18 22 20 21 30 35 45 49 36 45 48 41 44 33 21 19 15 13 10 8 6 6
79 99 95 56 100 100 92 70 76 80 94 85 71 77 62 38 28 26 24 16 15 15 16 16 20 25 39 44 32 33 41 41 41 44 27 21 19 15 14 10 8 5 6

GFSMW_250_rhum_132.txt.gz
RH
63 62 54 47 52 48 22 16 16 17 18 19 20 20 19 21 21 21 22 20 15 13 13 15 20 23 22 20 18 16 14 11 10 9 11 12 14 15 12 6 7 8 6
34 30 33 35 30 17 15 17 21 26 24 22 23 23 24 24 22 20 22 25 28 28 25 22 19 17 16 15 14 14 15 14 11 9 7 6 8 8 10 13 10 8 7
21 19 16 15 15 18 25 27 27 24 23 21 21 21 22 30 33 30 26 25 24 25 24 24 25 24 22 19 17 16 16 16 14 13 10 8 6 5 7 6 4 4 3
15 17 19 22 29 31 29 24 23 19 19 26 34 38 37 35 36 38 39 38 35 33 32 33 34 33 32 31 27 22 20 17 15 14 11 9 6 6 8 4 4 3 4
21 19 19 22 29 27 22 22 30 35 38 39 39 39 37 36 33 31 30 30 33 39 44 44 43 40 38 35 33 28 23 18 15 14 14 11 6 6 5 4 5 4 4
23 12 14 21 26 33 38 42 43 43 41 38 36 34 32 32 34 36 39 39 38 38 35 31 28 28 28 28 26 27 28 23 18 14 12 12 10 8 7 4 6 7 5
22 24 35 43 46 42 37 36 36 34 30 29 30 32 34 36 40 41 36 38 37 36 37 36 35 32 28 26 27 25 23 24 21 16 14 12 12 8 8 6 5 7 7
41 41 39 37 34 32 29 29 33 35 36 35 34 33 36 40 42 41 38 39 43 48 47 43 40 41 37 30 28 26 25 24 24 23 16 14 11 12 9 7 6 7 8
28 30 30 29 26 28 34 36 37 40 37 36 35 34 37 44 49 49 53 49 56 57 59 55 51 47 43 38 30 25 24 27 25 23 22 18 14 12 13 13 9 6 7
40 40 44 47 40 38 39 39 43 40 36 43 46 43 39 38 41 45 54 66 72 71 70 66 61 61 58 51 42 34 29 27 26 26 23 21 19 14 13 13 14 14 10
44 46 46 41 42 53 49 51 46 44 46 45 47 54 50 55 58 60 62 65 74 76 75 71 72 69 65 59 51 48 41 31 30 28 28 25 24 22 18 13 14 14 15
41 41 40 37 40 46 65 58 53 55 56 59 59 59 70 61 62 72 73 73 67 64 68 69 66 65 57 61 58 55 51 38 31 30 30 29 27 24 24 22 15 14 14
46 40 35 40 46 58 71 76 78 72 72 86 73 88 84 83 84 83 82 78 77 78 81 80 86 83 76 66 58 52 54 53 44 39 33 34 32 29 26 25 23 18 15
56 56 55 56 60 61 62 61 69 86 100 98 98 97 84 81 74 89 97 97 96 98 98 96 88 93 83 86 77 66 58 49 49 48 36 32 35 33 32 27 27 26 22
58 76 59 66 65 53 57 58 75 84 95 96 79 79 76 75 66 74 84 87 97 90 94 90 88 82 100 92 84 74 67 59 50 49 44 35 30 34 31 32 25 26 26
59 54 61 82 78 59 68 74 75 75 96 96 86 71 73 77 86 93 100 98 91 88 92 92 85 77 100 89 81 68 53 58 55 51 46 43 34 32 32 30 28 24 21
60 66 68 63 72 80 86 98 76 67 75 67 70 89 86 99 99 100 98 94 94 90 96 94 93 97 100 91 72 55 40 40 54 52 48 46 39 32 34 33 31 25 22
100 100 97 100 100 100 100 100 94 97 92 70 73 76 88 95 91 97 89 92 100 100 96 91 94 100 92 90 58 53 30 37 41 55 56 46 41 37 34 32 30 26 18
86 73 100 99 100 100 100 100 100 99 100 100 100 99 86 91 94 83 97 96 100 100 100 98 100 98 96 58 59 44 24 32 38 51 54 51 40 40 38 38 34 26 17
100 94 84 97 80 92 100 100 100 99 96 78 92 100 100 92 91 84 85 94 99 95 98 90 97 81 44 36 38 26 23 28 34 44 54 50 48 40 38 39 32 26 18
90 96 100 100 73 64 75 89 100 95 69 63 98 94 77 77 90 97 86 86 95 90 100 77 49 28 26 28 24 19 20 28 36 42 49 47 49 37 41 37 33 28 19
98 81 81 89 73 56 51 53 63 69 75 80 86 84 94 90 84 82 83 91 98 98 75 52 30 22 22 19 16 15 19 24 23 33 40 42 45 34 39 34 34 28 19
90 88 87 82 65 63 73 89 90 94 100 100 100 98 91 70 66 60 62 88 90 83 45 26 22 19 17 13 13 14 18 17 19 27 33 44 36 37 40 32 33 22 16
89 74 75 72 83 100 100 100 100 100 95 80 74 58 53 60 62 54 48 48 47 29 23 18 16 15 13 11 11 14 15 16 20 27 37 33 37 42 31 33 27 22 18
98 100 100 100 100 98 90 77 75 73 60 50 51 46 42 42 33 32 33 23 20 19 17 13 13 12 10 10 11 14 14 18 24 26 28 32 37 29 31 34 25 21 16
100 94 71 52 60 76 73 60 46 46 49 44 27 24 25 24 21 19 19 17 16 15 12 12 11 9 10 10 11 12 14 20 26 23 24 27 25 26 29 20 20 17 15